[[{"header":{"parameterUnit":"m.s-1","parameterCategory":1,"la1":30.6,"la2":29.2853,"lo1":-89.7004,"lo2":-87.6739,"dy":0.0162,"dx":0.0183,"nx":112,"ny":82,"refTime":"2025-04-09T12:00:00:Z","depth":0,"parameterNumber":2,"parameterNumberName":"U-component_of_WINDS"},"data":[0.0,0.0,0.0,0.0,0.0,0.0,0.0,0.0,0.0,0.0,0.0,0.0,0.0,0.0,0.0,0.0,0.0,0.0,0.0,0.0,0.0,0.0,0.0,0.0,0.0,0.0,0.0,0.0,0.0,0.0,0.0,0.0,0.0,0.0,0.0,0.0,0.0,0.0,0.0,0.0,0.0,0.0,0.0,0.0,0.0,0.0,0.0,0.0,0.0,0.0,0.0,0.0,0.0,0.0,0.0,0.0,0.0,0.0,0.0,0.0,0.0,0.0,0.0,0.0,0.0,0.0,0.0,0.0,0.0,0.0,0.0,0.0,0.0,0.0,0.0,0.0,0.0,0.0,0.0,0.0,0.0,0.0,0.0,0.0,0.0,0.0,0.0,0.0,0.0,0.0,0.0,3.7956,3.9733,4.0888,4.0888,4.0767,3.9439,3.649,0.0,0.0,0.0,0.0,0.0,0.0,0.0,0.0,0.0,0.0,0.0,0.0,0.0,0.0,0.0,0.0,0.0,0.0,0.0,0.0,0.0,0.0,0.0,0.0,0.0,0.0,0.0,0.0,0.0,0.0,0.0,0.0,0.0,0.0,0.0,0.0,0.0,0.0,0.0,0.0,0.0,0.0,0.0,0.0,0.0,0.0,0.0,0.0,0.0,0.0,0.0,0.0,0.0,0.0,0.0,0.0,0.0,0.0,0.0,0.0,0.0,0.0,0.0,0.0,0.0,0.0,0.0,0.0,0.0,0.0,0.0,0.0,0.0,0.0,0.0,0.0,0.0,0.0,0.0,0.0,0.0,0.0,0.0,0.0,0.0,0.0,0.0,0.0,0.0,0.0,0.0,0.0,0.0,0.0,0.0,0.0,0.0,0.0,0.0,0.0,0.0,0.0,0.0,0.0,3.7473,4.0095,4.0664,4.0888,4.0888,4.0267,3.8853,3.6456,0.0,0.0,0.0,0.0,0.0,0.0,0.0,0.0,0.0,0.0,0.0,0.0,0.0,0.0,0.0,0.0,0.0,0.0,0.0,0.0,0.0,0.0,0.0,0.0,0.0,0.0,0.0,0.0,0.0,0.0,0.0,0.0,0.0,0.0,0.0,0.0,0.0,0.0,0.0,0.0,0.0,0.0,0.0,0.0,0.0,0.0,0.0,0.0,0.0,0.0,0.0,0.0,0.0,0.0,0.0,0.0,0.0,0.0,0.0,0.0,0.0,0.0,0.0,0.0,0.0,0.0,0.0,0.0,0.0,0.0,0.0,0.0,0.0,0.0,0.0,0.0,0.0,0.0,0.0,0.0,0.0,0.0,0.0,0.0,0.0,0.0,0.0,0.0,0.0,0.0,0.0,0.0,0.0,0.0,0.0,0.0,0.0,0.0,0.0,0.0,0.0,0.0,0.0,3.6655,3.7956,4.0517,4.084,4.0888,4.0888,4.0543,3.9181,3.6473,3.6301,0.0,0.0,0.0,0.0,0.0,0.0,0.0,0.0,0.0,0.0,0.0,0.0,0.0,0.0,0.0,0.0,0.0,0.0,0.0,0.0,0.0,0.0,0.0,0.0,0.0,0.0,0.0,0.0,0.0,0.0,0.0,0.0,0.0,0.0,0.0,0.0,0.0,0.0,0.0,0.0,0.0,0.0,0.0,0.0,0.0,0.0,0.0,0.0,0.0,0.0,0.0,0.0,0.0,0.0,0.0,0.0,0.0,0.0,0.0,0.0,0.0,0.0,0.0,0.0,0.0,0.0,0.0,0.0,0.0,0.0,0.0,0.0,0.0,0.0,0.0,0.0,0.0,0.0,0.0,0.0,0.0,0.0,0.0,0.0,0.0,0.0,0.0,0.0,0.0,0.0,0.0,0.0,0.0,0.0,0.0,0.0,0.0,0.0,0.0,0.0,0.0,0.0,3.7929,3.882,4.0508,4.0793,4.0888,4.0888,4.056,3.9181,3.6473,3.5973,0.0,0.0,0.0,0.0,0.0,0.0,0.0,0.0,0.0,0.0,0.0,0.0,0.0,0.0,0.0,0.0,0.0,0.0,0.0,0.0,0.0,0.0,0.0,0.0,0.0,0.0,0.0,0.0,0.0,0.0,0.0,0.0,0.0,0.0,0.0,0.0,0.0,0.0,0.0,0.0,0.0,0.0,0.0,0.0,0.0,0.0,0.0,0.0,0.0,0.0,0.0,0.0,0.0,0.0,0.0,0.0,0.0,0.0,0.0,0.0,0.0,0.0,0.0,0.0,0.0,0.0,0.0,0.0,0.0,0.0,0.0,0.0,0.0,0.0,0.0,0.0,0.0,0.0,0.0,0.0,0.0,0.0,0.0,0.0,0.0,0.0,0.0,0.0,0.0,0.0,0.0,0.0,0.0,0.0,0.0,0.0,0.0,0.0,0.0,0.0,0.0,0.0,3.8444,4.0283,4.0631,4.0697,4.0745,4.0888,3.9577,3.806,3.6404,3.5007,0.0,0.0,0.0,0.0,0.0,0.0,0.0,0.0,0.0,0.0,0.0,0.0,0.0,0.0,0.0,0.0,0.0,0.0,0.0,0.0,0.0,0.0,0.0,0.0,0.0,0.0,0.0,0.0,0.0,0.0,0.0,0.0,0.0,0.0,0.0,0.0,0.0,0.0,0.0,0.0,0.0,0.0,0.0,0.0,0.0,0.0,0.0,0.0,0.0,0.0,0.0,0.0,0.0,0.0,0.0,0.0,0.0,0.0,0.0,0.0,0.0,0.0,0.0,0.0,0.0,0.0,0.0,0.0,0.0,0.0,0.0,0.0,0.0,0.0,0.0,0.0,0.0,0.0,0.0,0.0,0.0,0.0,0.0,0.0,0.0,0.0,0.0,0.0,0.0,0.0,0.0,0.0,0.0,0.0,0.0,0.0,0.0,0.0,0.0,0.0,0.0,0.0,3.7648,3.9395,0.0,4.0551,4.0648,4.0745,3.9735,3.8322,3.6439,0.0,0.0,0.0,0.0,0.0,0.0,0.0,0.0,0.0,0.0,0.0,0.0,0.0,0.0,0.0,0.0,0.0,0.0,0.0,0.0,0.0,0.0,0.0,0.0,0.0,0.0,0.0,0.0,0.0,0.0,0.0,0.0,0.0,0.0,0.0,0.0,0.0,0.0,0.0,0.0,0.0,0.0,0.0,0.0,0.0,0.0,0.0,0.0,0.0,0.0,0.0,0.0,0.0,0.0,0.0,0.0,0.0,0.0,0.0,0.0,0.0,0.0,0.0,0.0,0.0,0.0,0.0,0.0,0.0,0.0,0.0,0.0,0.0,0.0,0.0,0.0,0.0,0.0,0.0,0.0,0.0,0.0,0.0,0.0,0.0,0.0,0.0,0.0,0.0,0.0,0.0,0.0,0.0,0.0,0.0,0.0,0.0,0.0,0.0,0.0,0.0,0.0,3.4996,3.7318,3.9197,0.0,4.0387,4.0485,4.0648,3.9422,3.7877,3.601,0.0,0.0,0.0,0.0,0.0,0.0,0.0,0.0,0.0,0.0,0.0,0.0,0.0,0.0,0.0,0.0,0.0,0.0,0.0,0.0,0.0,0.0,0.0,0.0,0.0,0.0,0.0,0.0,0.0,0.0,0.0,0.0,0.0,0.0,0.0,0.0,0.0,0.0,0.0,0.0,0.0,0.0,0.0,0.0,0.0,0.0,0.0,0.0,0.0,0.0,0.0,0.0,0.0,0.0,0.0,0.0,0.0,0.0,0.0,0.0,0.0,0.0,0.0,0.0,0.0,0.0,0.0,0.0,0.0,0.0,0.0,0.0,0.0,0.0,0.0,0.0,0.0,0.0,0.0,0.0,0.0,0.0,0.0,0.0,0.0,0.0,0.0,0.0,0.0,0.0,0.0,0.0,0.0,0.0,0.0,0.0,0.0,0.0,0.0,0.0,0.0,0.0,3.4489,3.7753,4.0138,4.0288,4.0305,4.0337,4.0485,3.8418,3.6532,0.0,0.0,0.0,0.0,0.0,0.0,0.0,0.0,0.0,0.0,0.0,0.0,0.0,0.0,0.0,0.0,0.0,0.0,0.0,0.0,0.0,0.0,0.0,0.0,0.0,0.0,0.0,0.0,0.0,0.0,0.0,0.0,0.0,0.0,0.0,0.0,0.0,0.0,0.0,0.0,0.0,0.0,0.0,0.0,0.0,0.0,0.0,0.0,0.0,0.0,0.0,0.0,0.0,0.0,0.0,0.0,0.0,0.0,0.0,0.0,0.0,0.0,0.0,0.0,0.0,0.0,0.0,0.0,0.0,0.0,0.0,0.0,0.0,0.0,0.0,0.0,0.0,0.0,0.0,0.0,0.0,0.0,0.0,0.0,0.0,0.0,0.0,0.0,0.0,0.0,0.0,0.0,0.0,0.0,0.0,0.0,0.0,0.0,0.0,0.0,0.0,0.0,0.0,3.4421,3.7753,4.0138,4.0138,4.0188,4.0238,4.0337,3.8676,3.6888,3.5128,0.0,0.0,0.0,0.0,0.0,0.0,0.0,0.0,0.0,0.0,0.0,0.0,0.0,0.0,0.0,0.0,0.0,0.0,0.0,0.0,0.0,0.0,0.0,0.0,0.0,0.0,0.0,0.0,0.0,0.0,0.0,0.0,0.0,0.0,0.0,0.0,0.0,0.0,0.0,0.0,0.0,0.0,0.0,0.0,0.0,0.0,0.0,0.0,0.0,0.0,0.0,0.0,0.0,0.0,0.0,0.0,0.0,0.0,0.0,0.0,0.0,0.0,0.0,0.0,0.0,0.0,0.0,0.0,0.0,0.0,0.0,0.0,0.0,0.0,0.0,0.0,0.0,0.0,0.0,0.0,0.0,0.0,0.0,0.0,0.0,0.0,0.0,0.0,0.0,0.0,0.0,0.0,0.0,0.0,0.0,0.0,0.0,0.0,0.0,0.0,0.0,0.0,3.3998,3.7584,4.007,4.007,4.007,4.0121,4.0188,3.9054,3.7339,3.5053,0.0,0.0,0.0,0.0,0.0,0.0,0.0,0.0,0.0,0.0,0.0,0.0,0.0,0.0,0.0,0.0,0.0,0.0,0.0,0.0,0.0,0.0,0.0,0.0,0.0,0.0,0.0,0.0,0.0,0.0,0.0,0.0,0.0,0.0,0.0,0.0,0.0,0.0,0.0,0.0,0.0,0.0,0.0,0.0,0.0,0.0,0.0,0.0,0.0,0.0,0.0,0.0,0.0,0.0,0.0,0.0,0.0,0.0,0.0,0.0,0.0,0.0,0.0,0.0,0.0,0.0,0.0,0.0,0.0,0.0,0.0,0.0,0.0,0.0,0.0,0.0,0.0,0.0,0.0,0.0,0.0,0.0,0.0,0.0,0.0,0.0,0.0,0.0,0.0,0.0,0.0,0.0,0.0,0.0,0.0,0.0,0.0,0.0,0.0,0.0,0.0,0.0,3.3406,3.7313,4.007,4.007,4.007,4.007,4.007,3.9411,3.7801,3.4975,0.0,0.0,0.0,0.0,0.0,0.0,0.0,0.0,0.0,0.0,0.0,0.0,0.0,0.0,0.0,0.0,0.0,0.0,0.0,0.0,0.0,0.0,0.0,0.0,0.0,0.0,0.0,0.0,0.0,0.0,0.0,0.0,0.0,0.0,0.0,0.0,0.0,0.0,0.0,0.0,0.0,0.0,0.0,0.0,0.0,0.0,0.0,0.0,0.0,0.0,0.0,0.0,0.0,0.0,0.0,0.0,0.0,0.0,0.0,0.0,2.9161,0.0,0.0,0.0,0.0,0.0,0.0,0.0,0.0,0.0,0.0,0.0,0.0,0.0,0.0,0.0,0.0,0.0,0.0,0.0,0.0,0.0,0.0,0.0,0.0,0.0,0.0,0.0,0.0,0.0,0.0,0.0,0.0,0.0,0.0,0.0,0.0,0.0,0.0,0.0,0.0,0.0,3.3406,3.7313,4.007,4.007,4.007,4.007,4.007,3.9411,3.8021,3.5688,3.4279,0.0,0.0,0.0,0.0,0.0,0.0,0.0,0.0,0.0,0.0,0.0,0.0,0.0,0.0,0.0,0.0,0.0,0.0,0.0,0.0,0.0,0.0,0.0,0.0,0.0,0.0,0.0,0.0,0.0,0.0,0.0,0.0,0.0,0.0,0.0,0.0,0.0,0.0,0.0,0.0,0.0,0.0,0.0,0.0,0.0,0.0,0.0,0.0,0.0,0.0,0.0,0.0,0.0,0.0,0.0,0.0,0.0,0.0,0.0,0.0,3.1073,0.0,0.0,0.0,0.0,0.0,0.0,0.0,0.0,0.0,0.0,0.0,0.0,0.0,0.0,0.0,0.0,0.0,0.0,0.0,0.0,0.0,0.0,0.0,0.0,0.0,0.0,0.0,0.0,0.0,0.0,0.0,0.0,0.0,0.0,0.0,0.0,0.0,0.0,0.0,0.0,3.3837,3.7278,3.9799,4.007,4.007,4.007,4.007,3.9732,3.8766,3.6932,3.5194,0.0,0.0,0.0,0.0,0.0,0.0,0.0,0.0,0.0,0.0,0.0,0.0,0.0,0.0,0.0,0.0,0.0,0.0,0.0,0.0,0.0,0.0,0.0,0.0,0.0,0.0,0.0,0.0,0.0,0.0,0.0,0.0,0.0,0.0,0.0,0.0,0.0,0.0,0.0,0.0,0.0,0.0,0.0,0.0,0.0,0.0,0.0,0.0,0.0,0.0,0.0,0.0,0.0,3.3677,3.4083,3.3981,3.4682,3.4717,3.4192,3.4292,3.371,3.2732,0.0,0.0,0.0,0.0,0.0,0.0,0.0,0.0,0.0,0.0,0.0,0.0,0.0,0.0,0.0,0.0,0.0,0.0,0.0,0.0,0.0,0.0,0.0,0.0,0.0,3.2522,3.2363,0.0,0.0,0.0,0.0,0.0,0.0,0.0,0.0,0.0,0.0,0.0,0.0,3.4248,3.722,3.9365,3.9731,3.9969,4.007,3.9969,3.9952,3.9345,3.8014,3.6219,3.4223,0.0,0.0,0.0,0.0,0.0,0.0,0.0,0.0,0.0,0.0,0.0,0.0,0.0,0.0,0.0,0.0,0.0,0.0,0.0,0.0,0.0,0.0,0.0,0.0,0.0,0.0,0.0,0.0,0.0,0.0,0.0,0.0,2.8169,2.8972,0.0,0.0,0.0,0.0,0.0,0.0,0.0,0.0,0.0,0.0,0.0,0.0,0.0,0.0,3.2627,3.3373,3.3483,3.2961,3.4921,3.5542,3.492,3.5619,3.5893,3.5821,3.6462,0.0,3.3583,3.2621,0.0,0.0,0.0,0.0,0.0,0.0,0.0,0.0,0.0,0.0,0.0,0.0,0.0,0.0,0.0,0.0,0.0,0.0,0.0,0.0,0.0,0.0,3.4603,3.3918,3.4029,3.4012,0.0,3.1647,3.0521,3.018,0.0,0.0,0.0,0.0,0.0,0.0,0.0,0.0,3.3925,3.7044,3.9028,3.8557,3.9454,3.9918,3.9365,3.9312,3.8963,3.8116,3.6757,3.5202,3.358,3.2141,0.0,0.0,0.0,0.0,0.0,0.0,0.0,0.0,0.0,0.0,0.0,0.0,0.0,0.0,0.0,0.0,0.0,0.0,0.0,0.0,0.0,0.0,0.0,0.0,0.0,0.0,0.0,0.0,0.0,2.8401,2.9338,2.9717,2.9909,2.986,0.0,0.0,0.0,0.0,0.0,0.0,0.0,0.0,0.0,3.233,3.2751,3.3547,3.471,3.5047,3.525,3.5364,3.6303,3.6788,3.6886,3.7209,3.715,3.6844,3.7148,3.6537,3.5247,3.4583,3.3792,3.2901,0.0,0.0,0.0,0.0,0.0,3.2031,3.2937,0.0,0.0,0.0,0.0,0.0,0.0,0.0,0.0,0.0,0.0,0.0,0.0,0.0,0.0,3.5428,3.5548,3.5522,3.5199,3.4177,3.2971,0.0,3.1512,3.115,2.9724,0.0,0.0,0.0,0.0,0.0,3.4969,3.6922,3.8254,3.8294,3.8778,3.8957,3.8739,3.8684,3.8553,3.8226,3.6996,3.5792,3.4717,3.3248,3.169,0.0,0.0,0.0,0.0,0.0,0.0,0.0,0.0,0.0,0.0,0.0,0.0,0.0,0.0,0.0,0.0,0.0,0.0,0.0,0.0,0.0,0.0,0.0,0.0,0.0,0.0,0.0,0.0,2.9397,3.0311,3.0968,3.1303,3.128,0.0,0.0,0.0,0.0,0.0,0.0,2.9865,3.1005,3.2334,3.3844,3.4355,3.5235,3.6496,3.6325,3.6502,3.7013,3.7013,3.7285,3.7838,3.7838,3.7621,3.7178,3.7178,3.6892,3.6446,3.5884,3.501,3.3932,3.3722,3.3259,3.2774,3.3594,3.3463,3.3169,3.4525,3.5023,3.4883,3.3935,0.0,3.2662,3.0991,0.0,0.0,0.0,0.0,3.4159,3.5074,0.0,3.5689,3.6369,3.6492,3.6492,3.6492,3.6107,3.5195,0.0,3.3435,3.3168,3.1086,0.0,0.0,0.0,0.0,3.4139,3.5744,3.6816,3.7519,3.778,3.8124,3.8238,3.8067,3.8067,3.8067,3.8067,3.7028,3.6189,3.5671,3.4351,3.292,3.1388,0.0,0.0,0.0,0.0,0.0,0.0,0.0,0.0,0.0,0.0,0.0,0.0,0.0,0.0,0.0,0.0,0.0,0.0,0.0,0.0,0.0,0.0,0.0,0.0,0.0,0.0,0.0,0.0,0.0,3.2983,3.2219,0.0,0.0,0.0,0.0,3.0709,3.0823,3.141,3.2611,3.342,3.4471,3.591,3.6103,3.6564,3.735,3.6798,3.6523,3.6554,3.6554,3.6569,3.66,3.66,3.6538,3.6554,3.6554,3.6554,3.6384,3.5089,3.4546,3.4403,3.3482,3.2826,3.2578,3.3685,3.3755,3.347,3.4257,3.4534,3.4627,3.5197,3.4312,3.2971,3.2882,3.1986,0.0,0.0,3.3652,3.4639,3.5305,3.5968,3.6477,3.6476,3.6492,3.6492,3.6492,3.6461,3.6215,0.0,3.4318,3.3506,3.3803,0.0,3.3171,3.3833,3.462,3.518,3.5502,3.662,3.7178,3.6662,3.7621,3.8067,3.7519,3.7476,3.7476,3.7476,3.686,3.6477,3.6461,3.5767,3.4426,3.2391,3.0951,0.0,0.0,0.0,0.0,0.0,0.0,0.0,0.0,0.0,0.0,0.0,0.0,0.0,0.0,0.0,0.0,0.0,0.0,0.0,0.0,0.0,0.0,0.0,0.0,0.0,0.0,0.0,0.0,3.329,3.3615,0.0,3.3078,3.3113,3.295,3.236,3.3204,3.3572,3.3262,3.4359,3.5206,3.5707,3.616,3.6521,3.6831,3.66,3.6492,3.6492,3.6492,3.6492,3.6492,3.6492,3.6492,3.6492,3.6492,3.6492,3.6445,3.5968,3.5768,3.5722,3.5393,3.4929,3.4519,3.5316,3.5285,3.4845,3.5537,3.5768,3.5737,3.5537,3.4793,3.395,3.395,3.3919,3.3981,3.4461,3.5164,3.583,3.6076,3.6307,3.6492,3.6492,3.6492,3.6492,3.6492,3.6492,3.6415,3.6184,3.5737,3.5166,3.4461,3.4534,3.4596,3.4395,3.4821,3.5457,3.6045,3.643,3.6569,3.6492,3.6876,3.7058,3.6831,3.6846,3.6846,3.6846,3.6616,3.6492,3.6492,3.6261,3.5368,3.3752,3.2382,3.0151,0.0,0.0,0.0,0.0,0.0,0.0,0.0,0.0,0.0,0.0,0.0,0.0,0.0,0.0,0.0,0.0,0.0,0.0,0.0,0.0,0.0,0.0,0.0,0.0,0.0,0.0,3.1769,3.3825,3.4431,3.4558,3.4318,3.4659,3.4619,3.3991,3.4836,3.5085,3.446,3.5322,3.583,3.583,3.6261,3.6492,3.6492,3.6492,3.6492,3.6492,3.6492,3.6492,3.6492,3.6492,3.6492,3.6492,3.6492,3.6492,3.6492,3.6289,3.6226,3.6226,3.6429,3.6215,3.5876,3.6322,3.6215,3.5891,3.6338,3.6492,3.6415,3.5968,3.5368,3.486,3.5091,3.5306,3.5537,3.5753,3.6153,3.6492,3.6492,3.6492,3.6492,3.6492,3.6492,3.6492,3.6492,3.6492,3.6492,3.6492,3.6492,3.6199,3.5306,3.5522,3.5676,3.5214,3.5461,3.5845,3.643,3.6336,3.6274,3.6352,3.6414,3.6414,3.6414,3.6492,3.6492,3.6492,3.6276,3.6153,3.6153,3.5938,3.5276,3.4137,3.2752,3.0859,2.8411,0.0,0.0,0.0,0.0,0.0,0.0,0.0,0.0,0.0,0.0,0.0,0.0,0.0,0.0,0.0,0.0,0.0,0.0,0.0,0.0,0.0,0.0,0.0,2.9447,3.0949,3.2563,3.4726,3.4526,3.4502,3.5228,3.4841,3.4814,3.546,3.5507,3.5799,3.6461,3.6492,3.6492,3.6492,3.6492,3.6492,3.6492,3.6492,3.6492,3.6492,3.6492,3.6492,3.6492,3.6492,3.6492,3.6429,3.6429,3.6429,3.6429,3.5894,3.5688,3.5752,3.6226,3.6429,3.6429,3.6429,3.6429,3.6429,3.6429,3.6492,3.6492,3.6492,3.6045,3.563,3.6292,3.6045,3.5645,3.6307,3.6492,3.6492,3.6492,3.6492,3.6492,3.6492,3.6492,3.6492,3.6492,3.6492,3.6492,3.6492,3.6492,3.6492,3.6492,3.6492,3.6492,3.6492,3.6492,0.0,3.6492,3.6274,3.6196,3.6196,3.6196,3.6196,3.6211,3.6414,3.6476,3.6461,3.5845,3.5476,3.5476,3.486,3.4183,3.3475,3.2121,3.1105,3.0489,0.0,0.0,0.0,0.0,0.0,0.0,0.0,0.0,0.0,0.0,0.0,0.0,0.0,0.0,0.0,0.0,0.0,0.0,0.0,0.0,0.0,0.0,2.9231,3.0354,3.1021,3.2119,3.4202,3.4754,3.5147,3.5419,3.5766,3.6014,3.6199,3.6215,3.6292,3.6476,3.6492,3.6492,3.6492,3.6492,3.6492,3.6492,3.6492,3.6492,3.6492,3.6492,3.6289,3.5958,3.5958,3.5688,3.535,3.535,3.535,3.535,3.5219,3.5154,3.5154,3.5285,3.535,3.535,3.535,3.535,3.535,3.535,3.5608,3.5958,3.5958,3.6041,3.6245,3.643,3.6368,3.6245,3.6445,3.6492,3.6492,3.6492,3.6492,3.6492,3.6492,3.6492,3.6492,3.6492,3.6492,3.6492,3.6492,3.6492,3.6492,3.6492,3.6492,3.6429,3.6274,3.6226,0.0,3.6178,3.5958,3.5943,3.6196,3.6196,3.6274,3.6414,3.6492,3.6276,3.5799,3.5584,3.5476,3.5476,3.5306,3.5106,3.4922,3.3075,3.2028,0.0,0.0,0.0,0.0,0.0,0.0,0.0,0.0,0.0,0.0,0.0,0.0,0.0,0.0,0.0,0.0,0.0,0.0,0.0,0.0,0.0,0.0,2.8764,3.0063,3.0956,3.1435,3.2217,3.3685,3.4232,3.4789,3.5444,3.583,3.6184,3.6476,3.6492,3.6492,3.6492,3.6492,3.6492,3.6492,3.6492,3.6492,3.6492,3.6492,3.6367,3.6148,3.6148,3.5879,3.535,3.535,3.5219,0.0,3.4876,3.4876,3.4876,3.4677,3.4543,0.0,0.0,0.0,0.0,0.0,3.4876,3.4876,3.4876,3.5073,3.535,3.535,3.5559,3.5879,3.6085,3.6148,3.6211,3.6429,3.6492,3.6492,3.6492,3.6492,3.6492,3.6492,3.6492,3.6492,3.6492,3.6492,3.6492,3.6492,0.0,0.0,3.6492,3.6414,3.6352,3.6211,3.6085,3.5973,0.0,3.5831,3.5752,3.5943,3.6085,3.6148,3.6289,3.6352,0.0,0.0,0.0,3.5292,3.5076,3.506,0.0,0.0,0.0,0.0,0.0,0.0,0.0,0.0,3.3152,3.309,0.0,0.0,0.0,0.0,0.0,0.0,0.0,0.0,0.0,0.0,0.0,0.0,0.0,0.0,0.0,0.0,2.9816,3.0074,3.132,3.2013,3.2613,3.3213,3.3352,3.3891,3.5122,3.5322,3.5645,3.6322,3.6384,3.6415,3.6492,0.0,0.0,0.0,0.0,3.6492,3.6429,3.6429,3.6148,3.5623,3.5623,3.535,3.481,3.481,3.4743,3.4743,3.4743,3.4743,3.4691,3.4221,3.4016,3.4085,3.4543,3.4743,3.4743,3.4743,3.4743,0.0,0.0,0.0,0.0,3.481,3.4876,3.5008,3.5479,3.5623,3.5688,3.6226,3.6352,3.6429,3.6429,3.6429,3.6492,3.6492,3.6492,3.6492,3.6492,3.6492,3.6492,3.6492,3.6492,3.6492,3.6492,3.6336,3.6196,3.6211,3.6037,0.0,3.5925,3.5767,3.5688,3.5688,0.0,0.0,3.5973,3.6085,3.6243,3.6306,3.5615,3.5003,3.4539,3.466,3.4983,3.5584,3.5584,3.5815,3.6352,3.6352,3.6352,3.6228,3.3925,3.3521,0.0,0.0,0.0,0.0,0.0,0.0,0.0,0.0,0.0,0.0,0.0,0.0,0.0,0.0,0.0,3.0072,3.0711,3.1289,3.209,3.2305,3.2444,3.2567,3.3075,3.3506,3.3783,3.4321,3.4953,3.563,3.5676,3.5922,3.6461,3.6492,0.0,3.6492,3.6492,3.6289,3.5879,3.5816,3.5623,3.5073,0.0,0.0,3.4274,3.4274,3.4031,3.3577,3.3577,3.3577,3.3577,3.3521,3.3437,3.3452,3.3577,3.3577,3.3577,3.3577,3.3577,3.3577,3.3577,3.3894,3.4274,3.4274,3.4543,3.4942,3.5008,3.5073,0.0,3.5219,3.5544,3.5816,3.5816,3.6163,3.6492,3.6492,3.6492,3.6492,3.6492,3.6492,3.6492,3.6492,3.6492,3.6429,3.6274,3.6211,3.6148,3.6022,3.5894,3.5703,3.5619,3.5554,3.5604,3.5688,3.5752,3.5831,3.5973,3.6037,3.5809,3.5338,3.5109,3.4988,3.4927,3.5538,3.5937,3.6075,3.6075,3.5806,3.5385,3.5529,3.5335,3.4765,3.5412,3.5646,0.0,0.0,0.0,0.0,0.0,0.0,0.0,0.0,0.0,0.0,0.0,2.6956,2.7953,0.0,2.9676,3.1189,3.1397,3.1613,3.2305,3.2398,3.2398,3.2398,3.269,3.3029,3.3367,3.406,3.4752,3.543,3.5799,3.6138,3.6476,3.6492,3.6367,3.6085,3.6085,3.5816,3.5285,3.5285,3.5008,3.4476,3.4476,3.4221,3.3701,3.3701,3.3577,3.3326,3.3326,3.3326,3.3326,3.3326,3.3326,3.3326,3.3326,3.3326,3.3326,3.3326,3.3326,3.3326,3.3326,3.3521,3.3701,3.3701,3.3908,3.4167,3.4423,3.4476,3.4543,3.481,3.5073,3.5285,3.5285,3.5494,3.5752,3.6022,3.6085,3.6163,3.6274,3.6153,3.603,3.6228,3.6013,3.5891,3.6087,3.6022,3.5943,3.5831,3.5718,3.5604,3.5504,3.5504,3.5504,3.5589,3.5638,3.5752,3.5831,3.5973,3.5821,3.5362,3.5472,3.5472,3.5472,3.5917,3.5958,3.5544,3.5544,3.519,3.4418,3.4499,3.4365,3.4027,3.478,3.519,0.0,0.0,0.0,0.0,0.0,0.0,0.0,0.0,2.5102,2.578,2.6811,2.7996,2.9366,2.9612,3.0228,3.209,3.1936,3.1767,3.2321,3.2398,3.2398,3.2398,3.2398,3.2613,3.3152,3.3844,3.4552,3.523,3.5922,3.6353,3.6352,3.6352,3.6085,3.5559,3.5544,3.5285,3.4595,3.4677,3.4409,3.3796,3.3879,3.3701,3.3326,3.3326,3.3326,3.3326,3.3326,3.3326,3.3326,3.3326,3.3326,3.3326,3.3326,3.3241,3.3171,3.3241,3.3241,3.3171,3.3171,3.3171,3.3171,3.31,3.31,3.3227,3.3604,3.3728,3.3796,3.4259,3.4394,3.4528,3.4528,3.4595,3.4795,3.5204,3.5335,3.54,3.5657,3.544,3.5228,3.5518,3.5314,3.5243,3.5469,3.5494,3.5544,3.5688,3.5604,3.5504,3.5504,3.5504,3.5504,3.5504,3.5604,3.5638,3.5638,3.5782,3.5846,3.5638,3.5782,3.5925,3.5925,3.5767,3.5429,3.4876,3.4677,3.4245,3.3463,3.3478,3.3408,3.3255,3.3339,3.3822,2.6395,2.601,2.6026,2.5949,2.6441,2.7103,0.0,0.0,2.7242,2.7919,2.8181,2.8704,3.0058,3.0304,3.0766,3.2167,3.2336,3.2305,3.2382,3.2398,3.2398,3.2398,3.2398,3.2428,3.249,3.3121,3.3814,3.4537,3.5214,3.5661,3.5785,3.5816,3.5544,3.5023,3.5008,3.4528,3.3644,3.4002,3.3728,3.2832,3.3227,3.3382,3.3326,3.3326,3.3326,3.3326,3.3326,3.3326,3.3326,3.3326,3.3326,3.3326,3.3326,3.3086,3.2775,3.3171,3.3086,3.2775,3.2775,3.2775,3.2704,3.2345,3.2503,3.2704,3.2403,3.2345,3.2345,3.2403,3.2747,3.3143,3.3143,3.3478,3.3876,3.3876,3.3945,3.3945,3.3945,3.3955,3.3926,3.393,3.4455,3.4721,3.3905,3.4312,3.4942,3.5623,3.5604,3.5504,3.5504,3.5504,3.5504,3.5504,3.5504,3.5504,3.5504,3.5554,3.5569,3.5489,3.5554,3.5569,3.5569,3.5037,3.4728,3.4662,3.3988,3.3283,3.2577,3.2747,3.2475,3.1836,3.2114,3.2605,2.7211,2.6672,0.0,0.0,2.7196,2.795,2.7842,2.7904,2.8057,2.835,2.8719,2.9289,3.0243,3.0735,3.1251,0.0,3.2342,3.2342,3.2191,3.2287,3.2398,3.2287,3.2342,3.2398,3.2398,3.3383,3.4152,3.4445,3.4988,3.5371,3.5672,3.4993,3.4514,3.4409,3.3988,3.3506,3.303,3.296,3.2761,3.2345,3.2503,3.2574,3.2574,3.2574,3.2574,3.2574,3.2574,3.2717,3.2931,3.2931,3.2704,3.2403,3.2403,3.1942,3.1415,3.2547,3.2717,3.2345,3.2345,3.2345,3.2345,3.2128,3.22,3.2345,3.2128,3.2128,3.2128,3.2128,3.2259,3.2461,3.2461,3.2605,3.2875,3.3129,3.3199,3.3269,3.3561,3.3331,3.3175,3.3338,3.3468,3.3489,3.3366,3.3561,3.3905,3.4177,3.4543,3.4624,3.4221,3.4935,3.5504,3.5504,3.5504,3.5504,3.5504,3.5504,3.5504,3.5504,3.5504,3.5279,3.4824,3.4528,3.4027,3.3129,3.2847,3.2304,3.1616,3.1703,3.1556,3.1286,3.1691,3.2062,2.7303,0.0,0.0,2.6611,2.7534,2.8273,2.7796,2.8057,2.8411,2.8411,2.8796,2.9335,3.0027,3.0674,3.1282,3.1864,3.2164,3.2302,3.2038,3.2247,3.2342,3.2191,3.2328,3.2435,3.2322,3.3337,3.401,3.3939,3.4345,3.4735,3.4912,3.4027,3.3492,3.352,3.2946,3.2605,3.2417,3.22,3.2055,3.1982,3.2055,3.2128,3.2128,3.2128,3.2128,3.2055,3.1896,3.2114,3.2489,3.2173,3.1869,3.1636,3.1415,3.0882,3.0279,3.1415,3.1809,3.1676,3.1676,3.1823,3.1909,3.185,3.1836,3.1909,3.185,3.1776,3.1776,3.1776,3.1776,3.1776,3.1776,3.1776,3.1909,3.2318,3.2376,3.2448,3.2733,3.2514,3.2319,3.2579,3.2514,3.2417,3.2579,3.272,3.2804,3.2591,3.3199,3.3547,3.3213,3.4153,3.4868,3.4868,3.4868,3.4935,3.5133,3.5001,3.5067,3.5439,3.5082,3.4706,3.4312,3.3891,3.3199,3.2146,3.1869,3.1529,3.0986,3.1143,3.1222,3.1235,3.181,3.2163,0.0,0.0,2.6549,2.7211,2.7888,2.8396,2.8381,2.8396,2.8411,2.8411,2.8427,2.8642,2.9319,2.9997,3.0622,3.1159,3.1873,3.2302,3.2038,3.2247,3.2342,3.2191,3.244,3.2451,0.0,3.2496,3.2661,3.2494,3.3085,3.3327,3.2975,3.2932,3.2662,3.22,3.2128,3.1982,3.1629,3.1909,3.1909,3.1629,3.1909,3.2128,3.2128,3.2128,3.2128,3.2055,3.1489,3.1576,3.2055,3.0882,3.0732,3.118,3.0568,3.0063,2.9704,2.9768,3.0152,3.0683,3.0683,3.1084,3.1556,3.1123,3.1272,3.1556,3.1123,3.1061,3.1061,3.1061,3.1061,3.1061,3.1061,3.1061,3.1061,3.1048,3.1061,3.1061,3.1048,3.1035,3.1035,3.1048,3.1663,3.1856,3.1185,3.1676,3.1869,3.1198,3.1676,3.2434,3.3073,3.3213,3.3297,3.3297,3.3297,3.3561,3.4312,3.3699,3.3934,3.5439,3.407,3.3561,3.4245,3.2918,3.2146,3.2074,3.1394,3.0986,3.0986,3.1535,3.1823,3.1823,3.2398,3.2986,2.755,0.0,2.7164,2.7537,2.8369,2.8801,2.775,2.8323,2.8786,2.775,2.7974,2.8514,2.8921,2.9173,2.9637,3.0563,3.1091,3.1155,3.0763,3.158,3.1864,3.0733,3.147,0.0,0.0,0.0,0.0,3.2571,3.2295,3.2346,3.2904,3.2101,3.1763,3.2055,3.1629,3.1408,3.1629,3.1408,3.1347,3.1198,3.1347,3.1347,3.1347,3.1347,3.111,3.0709,3.0469,3.0469,3.0456,3.0075,2.9743,2.9551,2.9332,2.8743,2.8075,2.8075,2.8462,2.9081,2.9471,3.0012,3.0495,3.0355,3.0735,3.1198,3.1061,3.0986,3.0986,3.0986,3.0986,3.0986,3.0986,3.0986,3.0986,3.0986,3.0986,3.0986,3.0986,3.0986,3.0986,3.0986,3.1185,3.1259,3.1048,3.1198,3.1259,3.1061,3.1185,3.1823,3.3003,3.2791,3.2648,3.3143,3.3213,3.3283,3.3561,3.3353,3.3437,3.3934,3.3506,3.3073,3.2847,3.2349,3.1882,3.1408,3.1123,3.1169,3.1548,3.1744,3.2045,3.2411,3.3012,3.3391,2.7603,2.7537,2.7346,2.752,2.8092,2.8339,2.7328,2.7874,2.8212,2.7018,2.72,2.7663,2.782,2.7987,2.8517,2.9733,3.0302,3.049,3.0047,3.1087,3.1334,2.9936,3.0816,3.1062,0.0,0.0,0.0,3.1678,3.1363,3.1477,3.2205,3.1468,3.1198,3.1703,3.1272,3.1123,3.1421,3.1123,3.0986,3.0986,3.0986,3.0986,3.0986,3.0748,3.0432,2.996,2.9574,2.9406,2.9471,2.9003,2.8688,2.8505,2.8279,2.7742,2.7231,2.7231,2.7464,2.7938,2.8554,2.9172,2.9639,2.9639,3.0114,3.0672,3.0672,3.0823,3.0986,3.0986,3.0986,3.0986,3.0986,3.0986,3.0986,3.0986,3.0986,3.0986,3.0986,3.0986,3.0986,3.0986,3.0986,3.0986,3.0986,3.0986,3.0986,3.0986,3.0986,3.1334,3.2318,3.2028,3.1882,3.2376,3.2376,3.2519,3.2791,3.2591,3.2662,3.3143,3.2733,3.2304,3.2074,3.1882,3.1562,3.1287,3.13,3.1575,3.215,3.2359,3.2659,3.3025,3.3613,3.3992,2.6928,2.6932,2.7115,2.7071,2.7071,2.7071,2.7071,2.7041,2.6901,2.6297,2.6135,2.6169,0.0,0.0,2.719,2.863,2.9584,3.0116,2.9925,3.0585,3.0763,0.0,0.0,0.0,0.0,0.0,0.0,2.9794,0.0,3.0665,3.0947,3.0986,3.0986,3.0986,3.0986,3.0986,3.0986,3.0986,3.0986,3.0986,3.0986,3.0986,3.0986,3.0279,2.996,2.9883,2.8712,2.8474,2.8924,2.7696,2.7545,2.8099,2.7464,2.7231,2.7231,2.7231,2.7231,2.7313,2.7938,2.8554,2.9081,2.9081,2.9484,2.996,2.996,3.0432,3.0986,3.0986,3.0986,3.0986,3.0986,3.0986,3.0986,3.0986,3.0986,3.0986,3.0986,3.0986,3.0986,3.0986,3.0986,3.0986,3.0986,3.0986,3.0986,3.0986,3.0986,3.0986,3.0986,3.0986,3.0986,3.0986,3.0986,3.1259,3.2015,3.1394,3.1616,3.3017,3.175,3.1347,3.2055,3.1447,3.13,3.1875,3.1888,3.2163,3.2738,3.3313,3.36,3.3639,3.4188,3.475,2.7493,2.7555,2.7473,2.6826,2.6864,2.6967,2.6351,2.6344,2.6205,2.5449,2.545,2.5589,0.0,0.0,0.0,2.7855,2.8182,0.0,2.8538,2.9518,0.0,2.8274,0.0,2.9416,2.8398,2.9487,0.0,0.0,2.9941,3.0446,3.0947,3.0986,3.0986,3.0986,3.0986,3.0986,3.0986,3.0986,3.0986,3.0986,3.0986,3.0986,3.0986,3.0279,2.9716,2.9328,2.8566,2.8018,2.7696,2.7301,2.7313,2.7464,2.7231,2.7231,2.7231,2.7231,2.7231,2.7231,2.7383,2.7857,2.8407,2.8407,2.8858,2.9316,2.9316,2.9793,3.0279,3.0279,3.0583,3.0986,3.0986,3.0986,3.0986,3.0986,3.0986,3.0986,3.0986,3.0986,3.0986,3.0986,3.0986,3.0986,3.0986,3.0986,3.0986,3.0986,3.0986,3.0986,3.0986,3.0986,3.0986,3.0986,3.0986,3.1061,3.1259,3.1123,3.1123,3.1542,3.1198,3.1245,3.1879,3.169,3.1888,3.2463,3.2476,3.2764,3.3365,3.3522,3.3796,3.4201,3.4789,3.5155,2.8248,2.7957,2.7439,2.6688,2.6563,2.6385,2.5664,2.5574,2.5416,2.4366,2.4156,0.0,2.4469,0.0,0.0,0.0,0.0,0.0,2.8036,2.8803,2.8903,0.0,2.8358,0.0,2.7928,2.9026,2.9627,0.0,3.0045,3.0647,3.096,3.0986,3.0986,3.0986,3.0986,3.0986,3.0986,3.0748,3.0583,3.0583,3.0583,3.0583,3.0508,2.9883,2.9406,2.9069,0.0,2.7208,2.6898,2.6898,2.6898,2.6921,2.7139,2.7231,2.7231,2.7231,2.7231,2.7231,2.7231,2.7464,2.7777,2.7777,2.8167,2.8712,2.8712,2.9328,3.0037,3.0037,3.0508,3.0986,3.0986,3.0986,3.0986,3.0986,3.0986,3.0986,3.0986,3.0986,3.0986,3.0986,3.0986,3.0986,3.0986,3.0986,3.0986,3.0986,3.0986,3.0986,3.0986,3.0986,3.0986,3.0986,3.0986,3.0986,3.0986,3.0986,3.0986,3.0986,3.1222,3.1509,3.1823,3.2071,3.2489,3.3077,3.3091,3.3365,3.394,3.394,3.4241,3.4803,3.5142,3.5574,2.8748,2.7977,2.7187,2.6587,2.615,2.5725,2.5121,2.4924,2.4517,2.3287,0.0,2.2657,2.2937,2.2858,2.3554,2.5832,0.0,2.7101,2.7906,2.8379,2.8352,2.759,2.7968,2.8268,2.8268,2.8817,2.9157,2.9157,3.015,3.0764,3.0764,3.0764,3.079,3.0869,3.0947,3.0911,3.0911,3.0355,3.0037,3.0037,3.0114,3.0114,3.0037,2.9319,2.8971,2.8868,0.0,0.0,2.637,2.6439,2.6462,2.6519,2.7024,2.7231,2.7231,2.7231,2.7231,2.7231,2.7231,2.7149,2.7149,2.7149,2.7626,2.8099,2.8099,2.8949,2.9883,2.9883,3.0432,3.0986,3.0986,3.0986,3.0986,3.0986,3.0986,3.0986,3.0986,3.0986,3.0986,3.0986,3.0986,3.0986,3.0986,3.0986,3.0986,3.0986,3.0986,3.0986,3.0986,3.0986,3.0986,3.0986,3.0986,3.0986,3.0986,3.0986,3.1013,3.1091,3.1561,3.1837,3.2071,3.2542,3.3091,3.3692,3.3705,3.3927,3.4397,3.4476,3.4789,3.5299,3.5456,3.6057,2.7601,2.7299,2.6957,2.6179,2.5948,2.5725,2.5121,2.4638,0.0,0.0,2.2353,2.2063,2.2451,2.2679,2.339,2.5266,0.0,0.0,0.0,0.0,2.7656,0.0,0.0,0.0,0.0,0.0,0.0,0.0,0.0,2.9575,2.9575,2.9575,2.9712,3.0021,3.0514,3.0685,3.052,3.0368,3.0355,3.0355,3.0533,3.0622,3.052,2.9099,2.8418,2.8304,0.0,0.0,2.5876,2.629,2.6462,2.6519,2.7024,2.7231,2.7231,2.7231,2.7231,2.7231,2.7231,2.6974,2.6704,2.7056,2.7313,2.7383,2.7383,2.8235,2.925,2.925,3.0114,3.0986,3.0986,3.0986,3.0986,3.0986,3.0986,3.0986,3.0986,3.0986,3.0986,3.0986,3.0986,3.0986,3.0986,3.0986,3.0986,3.0986,3.0986,3.0986,3.0986,3.0986,3.0986,3.0986,3.0986,3.0986,3.0986,3.0986,3.1196,3.1666,3.1707,3.228,3.3247,3.3378,3.3692,3.4241,3.4254,3.4306,3.4397,3.4894,3.5195,3.5325,3.6266,3.6815,2.8324,2.7814,2.724,2.6893,2.6312,2.564,2.4751,0.0,0.0,0.0,2.1662,2.1518,2.1817,2.2003,0.0,0.0,0.0,0.0,0.0,0.0,0.0,0.0,0.0,0.0,0.0,0.0,0.0,0.0,0.0,2.8634,2.9248,2.9203,2.9178,2.922,2.9516,2.9725,2.9933,2.9618,2.9606,2.9883,2.9682,2.9771,2.996,2.8464,2.7823,2.771,2.581,0.0,2.4812,2.5464,2.5667,2.5497,2.6759,2.6891,2.6561,2.6798,2.6715,2.6479,2.6479,2.6396,2.6218,2.6479,2.6479,2.6479,2.6479,2.7499,2.8585,2.8585,2.9626,3.0672,3.0672,3.0672,3.0672,3.0672,3.0672,3.0672,3.0672,3.0672,3.0761,3.0836,3.0849,3.0911,3.0986,3.0986,3.0986,3.0986,3.0986,3.0986,3.0986,3.0986,3.0986,3.0986,3.0986,3.0986,3.0986,3.1261,3.1548,3.1746,3.2411,3.2999,3.3574,3.3862,3.4136,3.4384,3.4397,3.4554,3.4868,3.5155,3.56,3.6201,3.675,3.7168,2.888,2.8182,2.7524,2.7408,2.6567,2.5441,2.438,2.3557,0.0,0.0,2.1131,2.1033,2.1229,0.0,2.2088,0.0,0.0,0.0,0.0,0.0,0.0,0.0,0.0,0.0,0.0,0.0,0.0,0.0,0.0,0.0,2.8786,2.8802,2.864,2.8439,2.8554,2.8835,2.9196,2.885,2.876,2.8892,2.8748,2.8836,2.8892,2.7726,2.7179,2.699,2.5158,0.0,0.0,2.4626,2.4802,2.4741,2.6285,2.6479,2.5895,2.629,2.6135,2.5895,2.5895,2.5812,2.5728,2.5728,2.5812,2.5895,2.5895,2.6917,2.8096,2.8096,2.9225,3.0368,3.0368,3.0368,3.0368,3.0368,3.0368,3.0368,3.0368,3.0368,3.0444,3.0609,3.0622,3.0685,3.0911,3.0911,3.0911,3.0986,3.0986,3.0911,3.0986,3.0986,3.0986,3.0986,3.0986,3.1039,3.1156,3.1588,3.1876,3.2202,3.3091,3.3639,3.3757,3.4175,3.4397,3.4397,3.4397,3.4698,3.5299,3.5417,3.6005,3.6998,3.7142,3.7456,2.7694,2.7497,2.7335,2.6893,2.5921,2.4892,2.4267,0.0,0.0,2.1229,2.1033,2.0947,2.0799,2.1629,0.0,0.0,0.0,0.0,0.0,0.0,0.0,0.0,0.0,0.0,0.0,0.0,0.0,0.0,0.0,0.0,2.7491,2.779,2.7934,2.7736,2.8206,2.8328,2.8258,2.8674,2.83,2.7146,2.8512,2.8587,2.747,2.7151,2.6675,2.597,0.0,0.0,0.0,2.4224,2.4672,2.5131,2.576,2.5979,2.5895,2.5895,2.5895,2.5895,2.5895,2.5633,2.5285,2.5285,2.5549,2.5895,2.5895,2.6917,2.8096,2.8096,2.9225,3.0368,3.0368,3.0368,3.0368,3.0368,3.0368,3.0368,3.0368,3.0368,3.0444,3.0444,3.0444,3.052,3.0698,3.0609,3.0596,3.0911,3.0849,3.0773,3.0986,3.0986,3.0986,3.0986,3.0986,3.1196,3.1718,3.181,3.2293,3.3365,3.3535,3.3809,3.4306,3.4371,3.4397,3.4397,3.4397,3.4698,3.5299,3.5796,3.6358,3.7011,3.756,3.7848,2.7705,2.764,2.759,2.7423,2.6382,2.5271,2.4718,0.0,2.2156,2.1399,2.1033,2.0799,2.0699,2.1281,0.0,0.0,0.0,0.0,0.0,0.0,0.0,0.0,0.0,0.0,0.0,0.0,0.0,0.0,0.0,0.0,2.693,2.7067,2.7125,2.693,2.7145,2.7339,2.7607,2.7821,2.7838,2.7631,2.7898,2.7984,2.7779,2.6785,2.6251,2.6008,0.0,0.0,0.0,2.4338,2.4462,2.4158,2.598,2.6041,2.5137,2.5957,2.5717,2.5052,2.5052,2.4956,2.4786,2.4786,2.5285,2.5852,2.5852,2.6659,2.7626,2.8199,2.9184,3.0011,3.0011,3.0011,3.0011,3.0011,3.0011,3.0011,3.0011,3.0011,3.0075,3.0228,3.0228,3.0305,3.0444,3.0444,3.0432,3.0596,3.0685,3.0698,3.0849,3.0911,3.1117,3.147,3.1496,3.1588,3.1746,3.215,3.2555,3.3025,3.3051,3.3143,3.3365,3.3378,3.3548,3.3901,3.4228,3.4855,3.5783,3.6358,3.6959,3.7547,3.7795,3.7808,2.75,2.744,2.744,2.744,2.647,2.5357,0.0,2.3681,2.2364,2.1725,2.1361,2.1068,2.0934,2.161,2.2224,0.0,0.0,0.0,0.0,0.0,0.0,0.0,0.0,0.0,0.0,0.0,0.0,0.0,0.0,0.0,0.0,2.6557,2.6589,2.6533,2.6533,2.6653,2.703,2.7205,2.7322,2.7247,2.731,2.7251,2.7234,2.6479,2.6009,2.5865,0.0,0.0,0.0,2.4315,2.429,2.402,2.573,2.5672,2.4962,2.6002,2.5644,2.4651,2.4903,2.484,2.4519,2.4956,2.5398,2.5902,2.64,2.7058,2.7637,2.8291,2.9131,2.9792,2.9792,2.9792,2.9792,2.9792,2.9792,2.9792,2.9792,2.9792,2.9869,3.0011,3.0011,3.0075,3.0292,3.0292,3.0292,3.0368,3.0457,3.0546,3.0698,3.0979,3.1237,3.1561,3.1888,3.2097,3.2097,3.2463,3.2685,3.2685,3.2685,3.2685,3.2685,3.2868,3.3234,3.3822,3.4384,3.5221,3.6371,3.6789,3.7312,3.7808,3.79,3.7808,2.6782,2.6602,2.6602,2.6602,2.5756,2.4898,2.4883,2.396,2.2921,2.2208,2.2081,2.1955,2.1458,2.2823,2.364,0.0,0.0,0.0,0.0,0.0,0.0,0.0,0.0,0.0,0.0,0.0,0.0,0.0,0.0,0.0,0.0,2.6151,2.6533,2.6533,2.6533,2.6533,2.6533,2.7005,2.6639,2.5336,2.6652,2.6627,2.5324,2.6107,2.6037,0.0,0.0,0.0,0.0,2.3984,2.4425,2.5415,2.4624,2.4792,2.5572,2.6142,2.5766,2.512,2.6006,2.553,2.4713,2.5934,2.6091,2.6152,2.7959,2.8462,2.8462,2.8462,2.9131,2.9792,2.9792,2.9792,2.9792,2.9792,2.9792,2.9792,2.9792,2.9792,2.9792,2.9792,2.9792,2.9869,3.0075,2.9934,2.9934,3.0368,3.0228,3.0228,3.0622,3.1164,3.137,3.1052,3.2006,3.2685,3.2685,3.2685,3.2685,3.2685,3.2685,3.2685,3.2685,3.326,3.3835,3.4384,3.4986,3.5848,3.6998,3.6998,3.7208,3.7505,3.7808,3.7808,2.6647,2.6587,2.6482,2.6033,2.567,2.5364,2.5364,2.4805,2.4264,2.4062,2.37,2.3301,2.2651,2.3709,2.4376,2.3616,0.0,0.0,0.0,0.0,0.0,0.0,0.0,0.0,0.0,0.0,0.0,0.0,0.0,0.0,0.0,2.5573,2.605,2.6521,2.6533,2.6533,2.6533,2.6697,2.6559,2.6107,2.6559,2.6559,2.6107,2.6383,0.0,0.0,0.0,0.0,0.0,2.5207,2.5142,2.5077,2.5715,2.5997,2.614,2.6476,2.6537,2.6447,2.636,2.6323,2.6307,2.6712,2.7186,2.7718,2.8291,2.8462,2.8621,2.9209,2.9624,2.9792,2.9792,2.9792,2.9792,2.9792,2.9792,2.9792,2.9792,2.9792,2.9792,2.9792,2.9792,2.9792,2.9869,2.9869,2.9869,2.9934,3.0088,3.0292,3.0751,3.0933,3.1177,3.1863,3.2046,3.211,3.211,3.211,3.211,3.211,3.1744,3.1522,3.1522,3.2084,3.2855,3.3822,3.4803,3.5861,3.6998,3.7416,3.7625,3.7505,3.7214,3.7015,0.0,2.6033,2.6063,2.5405,2.542,2.5615,2.5615,2.5556,2.5408,2.4861,2.4538,2.4033,2.3198,2.3974,2.4592,2.4083,0.0,0.0,0.0,0.0,0.0,0.0,0.0,0.0,0.0,0.0,0.0,0.0,0.0,0.0,0.0,2.5197,2.5762,2.6126,2.6352,2.6533,2.6533,2.6533,2.6533,2.6533,2.6533,2.6533,2.6533,2.6533,0.0,0.0,0.0,0.0,0.0,2.5744,2.5648,2.5516,2.6068,2.6318,2.6467,2.7063,2.7119,2.703,2.7226,2.7205,2.7197,2.7643,2.8294,2.8961,2.8961,2.8961,2.9118,2.9624,2.9792,2.9792,2.9792,2.9792,2.9792,2.9792,2.9792,2.9792,2.9792,2.9792,2.9792,2.9792,2.9792,2.9792,2.9792,2.9792,2.9792,2.9792,3.0123,3.0441,3.0874,3.1033,3.1357,3.1926,3.1811,3.159,3.1395,3.1641,3.1744,3.1535,3.1378,3.1313,3.1313,3.2267,3.326,3.4214,3.5365,3.6397,3.7351,3.7521,3.7598,3.7505,3.6828,3.6628,0.0,2.5031,2.5375,2.4717,2.5046,2.554,2.554,2.6048,0.0,2.4956,2.4657,2.4372,2.3287,2.3954,2.4574,2.4234,0.0,0.0,0.0,0.0,0.0,0.0,0.0,0.0,0.0,0.0,0.0,0.0,0.0,0.0,0.0,2.4921,2.5498,2.5536,2.6101,2.6483,2.6533,2.6533,2.6533,2.6533,2.6533,2.6533,2.6533,2.6533,0.0,0.0,0.0,0.0,0.0,2.5664,2.5816,2.6465,2.5676,2.584,2.664,2.762,2.7521,2.7134,2.8387,2.8137,2.7475,2.8605,2.9352,2.9792,2.9792,2.9792,2.9792,2.9792,2.9792,2.9792,2.9792,2.9792,2.9792,2.9792,2.9792,2.9792,2.9792,2.9792,2.9792,2.9792,2.9792,2.9792,2.9792,2.9829,2.9854,2.9854,3.0319,3.075,3.0884,3.1381,3.1551,3.1187,3.1319,3.1254,3.0801,3.1382,3.1614,3.1078,3.1588,3.185,3.1967,3.3535,3.4698,3.5351,3.64,3.7247,3.7808,3.7307,3.7214,3.7413,3.6747,3.6546,2.4071,0.0,2.4642,2.4014,2.4358,2.4821,0.0,2.536,2.5749,2.5435,0.0,0.0,2.5027,2.5178,2.5491,0.0,0.0,0.0,0.0,0.0,0.0,0.0,0.0,0.0,0.0,0.0,0.0,0.0,0.0,0.0,0.0,2.4004,2.4569,2.4996,2.5523,2.6013,2.6521,2.6533,2.6533,2.6533,2.6533,2.6533,2.6533,2.6533,0.0,0.0,0.0,0.0,2.6465,2.6314,2.6314,2.6452,2.6314,2.6577,2.7067,2.6904,2.7501,2.8375,2.8324,2.8636,2.9184,2.9474,2.9679,2.9792,2.9792,2.9792,2.9792,2.9792,2.9792,2.9792,2.9792,2.9792,2.9792,2.9792,2.9792,2.9792,2.9792,2.9792,2.9792,2.9792,2.9792,2.9792,2.9792,3.0143,3.0419,3.0419,3.0871,3.121,3.1279,3.12,3.1052,3.1004,3.0739,3.0753,3.1074,3.1526,3.1784,3.164,3.2176,3.2698,3.3156,3.3966,3.4809,3.5691,3.6625,3.7165,3.7307,3.6922,3.6815,3.6909,3.6546,3.6452,2.4101,2.4461,2.4911,2.4238,2.4582,2.5076,2.5076,0.0,0.0,0.0,0.0,0.0,0.0,0.0,0.0,0.0,0.0,0.0,0.0,0.0,0.0,0.0,0.0,0.0,0.0,0.0,0.0,0.0,0.0,0.0,0.0,2.369,2.4142,2.4431,2.5184,2.5875,2.6521,2.6533,2.6533,2.6533,2.6533,2.6533,2.6533,2.6533,0.0,0.0,0.0,0.0,2.6533,2.6533,2.6533,2.6533,2.6533,2.671,2.6929,2.713,2.7783,2.8586,2.88,2.9277,2.9792,2.9792,2.9792,2.9792,2.9792,2.9792,2.9792,2.9792,2.9792,2.9792,2.9792,2.9792,2.9792,2.9792,2.9792,2.9792,2.9792,2.9792,2.9792,2.9792,2.9792,2.9792,2.9792,3.0256,3.062,3.062,3.106,3.1386,3.1386,3.1014,3.0767,3.0767,3.0711,3.0726,3.1032,3.186,3.2212,3.2098,3.271,3.3365,3.394,3.475,3.5657,3.6573,3.6906,3.7108,3.7108,3.6815,3.6709,3.6709,3.6452,3.6358,2.455,2.5146,2.562,2.4792,2.5121,2.5585,2.548,0.0,0.0,0.0,0.0,0.0,0.0,0.0,0.0,0.0,0.0,0.0,0.0,0.0,0.0,0.0,0.0,0.0,0.0,0.0,0.0,0.0,0.0,0.0,0.0,2.3602,2.3904,2.4004,2.4883,2.5661,2.6395,2.6483,2.6533,2.6533,2.6533,2.6533,2.6533,2.6533,2.6533,0.0,0.0,0.0,2.6533,2.6533,2.6533,2.6533,2.6533,2.6533,2.6647,2.7607,2.8034,2.826,2.9402,2.9792,2.9792,2.9792,2.9792,2.9792,2.9792,2.9792,2.9792,2.9792,2.9792,2.9792,2.9792,2.9792,2.9792,2.9792,2.9792,2.9792,2.9792,2.9792,2.9792,2.9792,2.9792,2.9792,2.9792,3.0256,3.062,3.062,3.106,3.1361,3.1286,3.0884,3.062,3.062,3.0767,3.0896,3.1061,3.2204,3.2752,3.2597,3.3281,3.3923,3.4562,3.567,3.6573,3.7387,3.7108,3.7015,3.7015,3.6722,3.6628,3.6628,3.6452,3.6358,2.567,2.6262,2.6442,2.4957,2.5121,2.5465,2.4866,0.0,0.0,0.0,0.0,0.0,0.0,0.0,0.0,0.0,0.0,0.0,0.0,0.0,0.0,0.0,0.0,0.0,0.0,0.0,0.0,0.0,0.0,0.0,0.0,0.0,2.3489,2.3979,2.4016,2.4578,2.5724,2.6214,2.6533,2.6533,2.6533,2.6533,2.6533,2.6533,2.6533,0.0,0.0,2.6533,2.6533,2.6533,2.6533,2.6533,2.6533,2.6533,2.6596,2.7168,2.7708,2.826,2.9402,2.9792,2.9792,2.9792,2.9792,2.9792,2.9792,2.9792,2.9792,2.9792,2.9792,2.9792,2.9792,2.9792,2.9792,2.9792,2.9792,2.9792,2.9792,2.9792,2.9792,2.9792,2.9792,2.9792,2.9792,3.0256,3.062,3.062,3.106,3.1235,3.0783,3.067,3.062,3.062,3.0608,3.0972,3.1888,3.2389,3.2822,3.3204,3.3727,3.4523,3.5499,3.625,3.6637,3.6815,3.664,3.6546,3.6546,3.6452,3.6452,3.6452,3.6452,3.6358,2.5676,2.6372,2.6824,2.6078,2.6439,2.6856,0.0,0.0,0.0,0.0,0.0,0.0,0.0,0.0,0.0,0.0,0.0,0.0,0.0,0.0,0.0,0.0,0.0,0.0,0.0,0.0,0.0,0.0,0.0,0.0,0.0,0.0,2.3263,2.3527,2.3766,2.4305,2.5172,2.5724,2.6083,2.6339,2.6465,2.6465,2.6339,2.6465,2.6533,2.6533,0.0,2.6533,2.6533,2.6533,2.6533,2.6533,2.6533,2.671,2.7005,2.7858,2.8536,2.9089,2.9616,2.9792,2.9792,2.9792,2.9792,2.9792,2.9792,2.9792,2.9792,2.9792,2.9792,2.9792,2.9792,2.9792,2.9792,2.9792,2.9792,2.9792,2.9792,2.9792,2.9792,2.9792,2.9792,2.9792,2.9792,3.0256,3.062,3.062,3.0821,3.0984,3.1035,3.0783,3.0721,3.0997,3.1298,3.1675,3.2177,3.2588,3.3186,3.3989,3.4481,3.5208,3.6045,3.6475,3.6709,3.6709,3.6546,3.6358,3.6358,3.6358,3.6358,3.6358,3.6358,3.6358,2.6048,2.6582,2.7077,2.7253,0.0,0.0,0.0,0.0,0.0,0.0,0.0,0.0,0.0,0.0,0.0,0.0,0.0,0.0,0.0,0.0,0.0,0.0,0.0,0.0,0.0,0.0,0.0,0.0,0.0,0.0,0.0,0.0,2.3245,2.3078,2.3503,2.4004,2.4555,2.5015,2.5573,2.6213,2.6396,2.6396,2.6213,2.6396,2.6533,2.6533,2.6533,2.6533,2.6533,2.6533,2.6533,2.6546,2.6672,2.7067,2.777,2.8612,2.9289,2.9792,2.9792,2.9792,2.9792,2.9792,2.9792,2.9792,2.9792,2.9792,2.9792,2.9792,2.9792,2.9792,2.9792,2.9792,2.9792,2.9792,2.9792,2.9792,2.9792,2.9792,2.9792,2.9792,2.9792,2.9792,2.9792,3.0143,3.0419,3.0419,3.0532,3.0758,3.116,3.0972,3.0997,3.1524,3.2117,3.267,3.2951,3.3416,3.4075,3.5159,3.5525,3.5852,3.6159,3.688,3.7163,3.6989,3.6977,3.6989,3.6722,3.6722,3.6628,3.6358,3.6358,3.6358,2.7705,2.7569,2.742,2.7964,0.0,0.0,0.0,0.0,0.0,0.0,0.0,0.0,0.0,0.0,0.0,0.0,0.0,0.0,0.0,0.0,0.0,0.0,0.0,0.0,0.0,0.0,0.0,0.0,0.0,0.0,0.0,0.0,0.0,2.3138,2.3007,2.3232,2.3778,2.4208,2.5012,2.6213,2.6396,2.6396,2.6213,2.6396,2.6533,2.6533,2.6533,2.6533,2.6533,2.6533,2.6533,2.6584,2.703,2.7871,2.8825,2.89,2.9289,2.9792,2.9792,2.9792,2.9792,2.9792,2.9792,2.9792,2.9792,2.9792,2.9792,2.9792,2.9792,2.9792,2.9792,2.9792,2.9792,2.9792,2.9792,2.9792,2.9792,2.9792,2.9792,2.9792,2.9792,2.9792,2.9792,2.9829,2.9854,2.9854,3.0281,3.0633,3.067,3.106,3.1549,3.2102,3.2911,3.3949,3.5265,3.5209,3.5719,3.7084,3.6751,3.627,3.591,3.7934,3.8585,3.7717,3.8585,3.8585,3.7717,3.7717,3.7268,3.6358,3.6358,3.6358,2.7405,2.7696,2.7987,2.8063,0.0,0.0,0.0,0.0,0.0,0.0,0.0,0.0,0.0,0.0,0.0,0.0,0.0,0.0,0.0,0.0,0.0,0.0,0.0,0.0,0.0,0.0,0.0,0.0,0.0,0.0,0.0,0.0,0.0,2.3721,2.3662,2.3644,2.3716,2.4275,2.4868,2.5338,2.6027,2.6201,2.605,2.6327,2.6533,2.6533,2.6533,2.6533,2.6533,2.6533,2.6666,2.7055,2.7959,2.8561,2.8976,2.934,2.9603,2.9792,2.9792,2.9792,2.9792,2.9792,2.9792,2.9792,2.9792,2.9792,2.9792,2.9792,2.9792,2.9792,2.9792,2.9792,2.9792,2.9792,2.9792,2.9792,2.9792,2.9792,2.9792,2.9792,2.9792,2.9792,2.9792,3.008,3.0306,3.0306,3.0758,3.1372,3.2269,3.2092,3.2504,3.4104,3.4646,3.4967,3.5402,3.5822,3.6623,3.7921,3.7817,3.7739,3.7984,3.8733,3.9033,3.8675,3.9033,3.9033,3.8675,3.8675,3.8496,3.8134,3.7533,3.7268,2.7449,2.7712,2.8037,0.0,0.0,0.0,0.0,0.0,0.0,0.0,0.0,0.0,0.0,0.0,0.0,0.0,0.0,0.0,0.0,0.0,0.0,0.0,0.0,0.0,0.0,0.0,0.0,0.0,0.0,0.0,0.0,0.0,0.0,0.0,2.4408,2.4243,2.3936,2.4797,2.5229,2.519,2.6223,2.6521,2.6233,2.6383,2.6589,2.6782,2.6589,2.6533,2.6533,2.6533,2.6892,2.7632,2.8561,2.9038,2.9252,2.9641,2.9792,2.9792,2.9792,2.9792,2.9792,2.9792,2.9792,2.9792,2.9792,2.9792,2.9792,2.9792,2.9792,2.9792,2.9792,2.9792,2.9792,2.9792,2.9792,2.9792,2.9792,2.9792,2.9792,2.9792,2.9792,2.9792,2.9792,3.0256,3.062,3.062,3.144,3.2418,3.3362,3.3407,3.3983,3.5814,3.5952,3.6076,3.6497,3.7222,3.8048,3.9214,3.9464,3.9498,3.9183,3.9839,4.0014,3.9637,3.9927,3.9927,3.9637,3.9637,3.9461,3.921,3.8251,3.7808,2.8159,2.7597,2.7408,0.0,0.0,0.0,0.0,0.0,0.0,0.0,0.0,0.0,0.0,0.0,0.0,0.0,0.0,0.0,0.0,0.0,0.0,0.0,0.0,0.0,0.0,0.0,0.0,0.0,0.0,0.0,0.0,0.0,0.0,0.0,2.5007,2.4851,2.4509,2.5608,2.6105,2.6043,2.7195,2.7484,2.6921,2.6645,2.6905,2.7484,2.6782,2.6521,2.6521,2.6533,2.7188,2.816,2.8712,2.9289,2.9792,2.9792,2.9792,2.9792,2.9792,2.9792,2.9792,2.9792,2.9792,2.9792,2.9792,2.9792,2.9792,2.9792,2.9792,2.9792,2.9792,2.9792,2.9792,2.9792,2.9792,2.9792,2.9792,2.9792,2.9792,2.9792,2.9792,2.9792,2.9804,3.0256,3.0633,3.0633,3.2243,3.3509,3.3509,3.4781,3.5949,3.6766,3.6766,3.7301,3.9049,3.9615,4.0163,4.1024,4.1729,4.1283,3.9299,4.11,4.1633,4.0603,4.1619,4.1619,4.0603,4.0603,4.0159,3.921,3.8251,3.7808,2.7392,2.7164,0.0,0.0,0.0,0.0,0.0,0.0,0.0,0.0,0.0,0.0,0.0,0.0,0.0,0.0,0.0,0.0,0.0,0.0,0.0,0.0,0.0,0.0,0.0,0.0,0.0,0.0,0.0,0.0,0.0,0.0,0.0,0.0,2.566,2.53,2.4641,2.5477,2.5995,2.6153,2.7013,2.76,2.7776,2.7749,2.7947,2.8182,2.7986,2.792,2.7987,2.8824,2.9382,2.9724,3.0791,3.1282,3.1368,3.0771,3.0545,3.0482,2.9998,2.9792,2.9792,2.9792,2.9792,2.9792,2.9792,2.9792,2.9792,2.9792,3.0203,3.0482,2.9934,3.0583,3.1158,3.0088,3.0216,3.0406,2.9934,3.0216,3.0545,3.0545,3.0957,3.1459,3.1978,3.2346,3.2839,3.3449,3.387,3.4357,3.4888,3.6392,3.7078,3.6108,3.7484,3.8552,3.8927,4.0034,4.105,4.1773,4.199,4.1829,4.1283,4.1829,4.1995,4.1633,4.1912,4.1912,4.1633,4.1633,4.1535,4.1198,4.0273,3.9812,2.7767,2.7545,0.0,0.0,0.0,0.0,0.0,0.0,0.0,0.0,0.0,0.0,0.0,0.0,0.0,0.0,0.0,0.0,0.0,0.0,0.0,0.0,0.0,0.0,0.0,0.0,0.0,0.0,0.0,0.0,0.0,0.0,0.0,0.0,2.6286,2.5974,2.5425,2.6062,2.6613,2.7134,2.7598,2.8326,2.9142,2.8532,2.8532,2.8889,2.862,2.8492,2.8587,2.9808,3.031,3.0432,3.1612,3.2074,3.2074,3.1563,3.1415,3.1341,3.0859,3.0722,3.0722,3.0722,3.0722,3.0722,3.0722,3.0722,3.0722,3.0722,3.0996,3.1267,3.0859,3.1368,3.1796,3.057,3.0846,3.1267,3.0784,3.1071,3.1482,3.1708,3.2053,3.2524,3.3268,3.3721,3.4193,3.4733,3.5116,3.5655,3.6517,3.7553,3.7897,3.7102,3.851,3.9657,3.9796,4.0862,4.1671,4.2063,4.2092,4.2092,4.2092,4.2092,4.2092,4.2092,4.2092,4.2092,4.2092,4.2092,4.2092,4.2092,4.1057,4.0603,2.8608,0.0,0.0,2.9589,2.9491,0.0,0.0,0.0,0.0,0.0,0.0,0.0,0.0,0.0,0.0,0.0,0.0,0.0,0.0,0.0,0.0,0.0,0.0,0.0,0.0,0.0,0.0,0.0,0.0,0.0,0.0,0.0,0.0,0.0,2.6779,2.6712,2.651,2.6992,2.7609,0.0,2.8592,2.9277,3.048,2.9093,2.8917,2.9685,2.8953,2.8712,2.8862,3.0037,3.0556,3.0719,3.1853,3.2304,3.2304,3.2232,3.2218,3.2218,3.2146,3.2074,3.2074,3.2074,3.2074,3.2074,3.2074,3.2074,3.2074,3.2074,3.2146,3.2146,3.2146,3.2218,3.2074,3.1328,3.1709,3.2146,3.2074,3.22,3.2464,3.3009,3.3199,3.352,3.4142,3.4653,3.4971,3.4971,3.617,3.7323,3.8127,3.8202,3.8463,3.9131,3.9741,4.0365,4.1033,4.17,4.2092,4.2092,4.2092,4.2092,4.2092,4.2092,4.2092,4.2092,4.2092,4.2092,4.2092,4.2092,4.2092,4.2092,4.1156,4.0774,0.0,2.759,0.0,0.0,3.0166,0.0,0.0,0.0,0.0,0.0,0.0,0.0,0.0,0.0,0.0,0.0,0.0,0.0,0.0,0.0,0.0,0.0,0.0,0.0,0.0,0.0,0.0,0.0,0.0,0.0,0.0,0.0,0.0,2.6779,2.6779,2.6779,2.6712,2.6722,2.7057,0.0,2.8168,2.8857,2.9783,2.9746,2.996,3.0387,3.0251,3.0401,3.0917,3.1704,3.2334,3.2901,3.3607,3.3908,3.3825,3.3227,3.2932,3.2861,3.229,3.2074,3.2074,3.2074,3.2074,3.2074,3.2074,3.2074,3.2074,3.2074,3.2506,3.2861,3.2218,3.303,3.3673,3.2932,3.2861,3.2791,3.2218,3.2977,3.3798,3.3938,3.4734,3.5658,3.6439,3.6499,3.6493,3.6493,3.7315,3.7962,3.8202,3.8202,3.8463,3.9131,3.9741,4.0365,4.1033,4.17,4.2092,4.2092,4.2092,4.2092,4.2092,4.2092,4.2092,4.2092,4.2092,4.2092,4.2092,4.2092,4.2092,4.2092,4.1897,4.1814,0.0,0.0,0.0,2.9967,0.0,0.0,0.0,0.0,0.0,0.0,0.0,0.0,0.0,0.0,0.0,0.0,0.0,0.0,0.0,0.0,0.0,0.0,0.0,0.0,0.0,0.0,0.0,0.0,0.0,0.0,0.0,2.6779,2.6779,2.6779,2.6779,2.6779,2.6779,2.6578,2.6895,2.7683,2.8025,2.8813,2.9956,3.0242,3.0462,3.0568,3.0568,3.093,3.1569,3.2237,3.2904,3.3529,3.4167,3.4414,3.4346,3.3962,3.3742,3.3742,3.3311,3.3171,3.3171,3.3171,3.3171,3.3171,3.3171,3.3171,3.3171,3.3171,3.3465,3.3673,3.3311,3.3825,3.4264,3.3894,3.3742,3.3673,3.3311,3.403,3.4868,3.5168,3.5996,3.6917,3.7606,3.7595,3.7491,3.7491,3.7886,3.8202,3.8202,3.8202,3.8565,3.9523,3.99,4.0495,4.1497,4.1903,4.2092,4.2092,4.2092,4.2092,4.2092,4.2092,4.2092,4.2092,4.2092,4.2092,4.2092,4.2092,4.2092,4.2092,4.2092,4.2092,0.0,0.0,2.8852,3.0807,3.1151,0.0,0.0,0.0,0.0,0.0,0.0,0.0,0.0,0.0,0.0,0.0,0.0,0.0,0.0,0.0,0.0,0.0,0.0,0.0,0.0,0.0,0.0,0.0,0.0,0.0,2.6779,2.6779,2.6779,2.6779,2.6779,2.6779,2.6779,2.6578,2.6837,2.7578,2.8038,2.903,3.0387,3.0507,3.0568,3.0568,3.0568,3.1003,3.1729,3.228,3.2962,3.3674,3.4211,3.4414,3.4414,3.4414,3.4414,3.4414,3.4414,3.4414,3.4414,3.4414,3.4414,3.4414,3.4414,3.4414,3.4414,3.4414,3.4414,3.4414,3.4414,3.4414,3.4414,3.4414,3.4414,3.4443,3.4559,3.5082,3.572,3.6359,3.7012,3.7622,3.8115,3.8202,3.8202,3.8202,3.8202,3.8202,3.8202,3.8304,3.8812,3.9973,4.0191,4.0771,4.199,4.2092,4.2092,4.2092,4.2092,4.2092,4.2092,4.2092,4.2092,4.2092,4.2092,4.2092,4.2092,4.2092,4.2092,4.2092,4.2092,4.215,0.0,0.0,3.0099,0.0,3.205,3.149,0.0,0.0,0.0,0.0,0.0,0.0,0.0,0.0,0.0,0.0,0.0,0.0,0.0,0.0,0.0,0.0,0.0,0.0,0.0,0.0,0.0,0.0,0.0,0.0,2.6832,2.6779,2.6779,2.6779,2.6779,2.6779,2.6779,2.6578,2.6621,2.6924,2.8059,2.9276,3.0568,3.0568,3.0568,3.0568,3.0568,3.1264,3.2396,3.2483,3.3209,3.4298,3.4385,3.4414,3.4414,3.4414,3.4414,3.4414,3.4414,3.4414,3.4414,3.4414,3.4414,3.4414,3.4414,3.4414,3.4414,3.4414,3.4414,3.4414,3.4414,3.4414,3.4414,3.4414,3.4414,3.4559,3.5111,3.5735,3.6388,3.7041,3.7665,3.8115,3.8188,3.8202,3.8202,3.8202,3.8202,3.8202,3.8202,3.871,3.9334,4.0017,4.0612,4.1265,4.2034,4.2092,4.2092,4.2092,4.2092,4.2092,4.2092,4.2092,4.2092,4.2092,4.2092,4.2092,4.2092,4.2092,4.2092,4.2092,4.2092,4.2382,2.6356,2.8366,3.0222,0.0,3.2663,3.2497,3.3262,0.0,0.0,0.0,0.0,0.0,0.0,0.0,0.0,0.0,0.0,0.0,0.0,0.0,0.0,0.0,0.0,0.0,0.0,0.0,0.0,0.0,0.0,2.7715,2.724,2.7188,2.7049,2.6779,2.6779,2.6779,2.6779,2.6712,2.7074,2.7853,2.8405,2.9348,3.0568,3.0568,3.0568,3.0568,3.0568,3.1308,3.2513,3.2513,3.3267,3.4414,3.4414,3.4414,3.4414,3.4414,3.4414,3.4414,3.4414,3.4414,3.4414,3.4414,3.4414,3.4414,3.4414,3.4414,3.4414,3.4414,3.4414,3.4414,3.4414,3.4414,3.4414,3.4414,3.469,3.5053,3.5459,3.5938,3.6606,3.7607,3.8028,3.8202,3.8202,3.8202,3.8202,3.8202,3.8202,3.8202,3.8202,3.8797,3.9436,4.0031,4.0699,4.1366,4.2034,4.2092,4.2092,4.2092,4.2092,4.2092,4.2092,4.2092,4.2092,4.2092,4.2092,4.2092,4.2092,4.2092,4.2092,4.2092,4.2092,4.2411,0.0,0.0,2.9151,3.1783,3.2228,3.2378,0.0,0.0,0.0,0.0,0.0,0.0,0.0,0.0,0.0,0.0,0.0,0.0,0.0,0.0,0.0,0.0,0.0,0.0,0.0,0.0,0.0,0.0,0.0,2.824,2.77,2.7565,2.7378,2.7218,2.6922,2.6884,2.6974,2.6884,2.7418,2.8681,2.8681,2.9348,3.0568,3.0568,3.0568,3.0568,3.0568,3.1308,3.2513,3.2513,3.3267,3.4414,3.4414,3.4414,3.4414,3.4414,3.4414,3.4414,3.4414,3.4414,3.4414,3.4414,3.4414,3.4414,3.4414,3.4414,3.4414,3.4414,3.453,3.4646,3.4646,3.4777,3.4893,3.4893,3.5256,3.5691,3.6025,3.646,3.707,3.8014,3.8202,3.8202,3.8202,3.8202,3.8202,3.8202,3.8202,3.8202,3.8202,3.8928,3.9596,4.0046,4.0844,4.1555,4.2049,4.2092,4.2092,4.2092,4.2092,4.2092,4.2092,4.2092,4.2092,4.2092,4.2092,4.2092,4.2092,4.2092,4.2092,4.2092,4.2092,4.2513,0.0,2.5241,0.0,3.0022,0.0,0.0,0.0,0.0,0.0,0.0,0.0,0.0,0.0,0.0,0.0,0.0,0.0,0.0,0.0,0.0,0.0,0.0,0.0,0.0,0.0,0.0,0.0,0.0,0.0,2.8826,2.8304,2.775,2.77,2.8207,2.7306,2.7011,2.7464,2.7011,2.7418,2.8681,2.8681,2.9348,3.0568,3.0568,3.0568,3.0568,3.0568,3.1308,3.2513,3.2513,3.3267,3.4414,3.4414,3.4414,3.4414,3.4414,3.4414,3.4414,3.4414,3.4414,3.4414,3.4414,3.4414,3.4414,3.4414,3.4414,3.4414,3.4414,3.4849,3.5314,3.5314,3.5749,3.6214,3.6214,3.6228,3.6431,3.7085,3.768,3.813,3.8188,3.8202,3.8202,3.8202,3.8202,3.8202,3.8202,3.8202,3.8202,3.8202,3.9276,4.006,4.0104,4.1265,4.2063,4.2092,4.2092,4.2092,4.2092,4.2092,4.2092,4.2092,4.2092,4.2092,4.2092,4.2092,4.2092,4.2092,4.2092,4.2092,4.2092,4.2092,4.276,0.0,0.0,0.0,2.8956,3.0123,3.1158,0.0,0.0,0.0,0.0,0.0,0.0,0.0,0.0,0.0,0.0,0.0,0.0,0.0,0.0,0.0,0.0,0.0,0.0,0.0,0.0,0.0,0.0,0.0,0.0,2.8826,2.8638,2.8448,2.8288,2.763,2.7327,2.7515,2.7422,2.7958,2.9178,2.9243,2.974,3.0568,3.0568,3.0568,3.0568,3.0568,3.1308,3.2513,3.2513,3.3267,3.4414,3.4414,3.4414,3.4414,3.4414,3.4414,3.4414,3.4414,3.4414,3.4414,3.4414,3.4414,3.4414,3.4414,3.4414,3.4501,3.4907,3.5183,3.5459,3.5865,3.6141,3.6417,3.6852,3.7244,3.7593,3.7839,3.8043,3.8202,3.8202,3.8202,3.8202,3.8202,3.8202,3.8202,3.8202,3.8202,3.8362,3.8797,3.9581,4.0263,4.0699,4.1555,4.2092,4.2092,4.2092,4.2092,4.2092,4.2092,4.2092,4.2092,4.2092,4.2092,4.2092,4.2092,4.2092,4.2092,4.2092,4.2092,4.2107,4.2498,4.3137,2.3802,0.0,0.0,0.0,0.0,3.0575,0.0,0.0,0.0,0.0,0.0,0.0,0.0,0.0,0.0,0.0,0.0,0.0,0.0,0.0,0.0,0.0,0.0,0.0,0.0,0.0,0.0,0.0,0.0,0.0,2.938,2.9182,2.8826,2.8304,2.8143,2.7947,2.775,2.7669,2.832,2.9689,2.9413,2.9973,3.1204,3.0792,3.0807,3.1204,3.0807,3.1308,3.2513,3.2513,3.3267,3.4414,3.4414,3.4414,3.4414,3.4414,3.4414,3.4414,3.4414,3.4414,3.4414,3.4414,3.4414,3.4414,3.4414,3.4414,3.4545,3.5183,3.5517,3.5836,3.6475,3.6794,3.7056,3.7506,3.7912,3.8202,3.8202,3.8202,3.8202,3.8202,3.8202,3.8202,3.8202,3.8202,3.8202,3.8202,3.8391,3.8696,3.9146,3.9929,4.0612,4.1047,4.17,4.2092,4.2092,4.2092,4.2092,4.2092,4.2092,4.2092,4.2092,4.2092,4.2092,4.2092,4.2092,4.2092,4.2092,4.2092,4.2092,4.2107,4.2716,4.3456,0.0,0.0,0.0,0.0,0.0,0.0,0.0,0.0,0.0,0.0,0.0,0.0,0.0,0.0,0.0,0.0,0.0,0.0,0.0,0.0,0.0,0.0,0.0,0.0,0.0,0.0,0.0,0.0,0.0,2.9918,2.9918,2.9425,2.8889,2.8336,2.8842,2.8826,2.8336,2.783,2.848,3.0289,2.9248,3.0056,3.2312,3.119,3.1306,3.2327,3.1146,3.1369,3.2576,3.2513,3.3267,3.4414,3.4414,3.4414,3.4414,3.4414,3.4414,3.4414,3.4414,3.4414,3.4414,3.4414,3.4414,3.4414,3.4414,3.4428,3.4574,3.5212,3.5851,3.6489,3.7157,3.7767,3.8202,3.8202,3.8202,3.8202,3.8202,3.8202,3.8202,3.8202,3.8202,3.8202,3.8202,3.8202,3.8217,3.8231,3.8783,3.9218,3.9247,4.0336,4.1105,4.112,4.17,4.2092,4.2092,4.2092,4.2092,4.2092,4.2092,4.2092,4.2092,4.2092,4.2092,4.2092,4.2092,4.2092,4.2092,4.2092,4.2107,4.2136,4.276,4.3718,2.4329,0.0,0.0,0.0,0.0,0.0,0.0,0.0,0.0,0.0,0.0,0.0,0.0,0.0,0.0,0.0,0.0,0.0,0.0,0.0,0.0,0.0,0.0,0.0,0.0,0.0,0.0,0.0,2.9918,2.9918,2.9918,2.977,2.9425,2.8889,2.9028,2.9028,2.8873,2.8845,2.9227,3.0094,3.044,3.0967,3.162,3.1835,3.2048,3.2398,3.2048,3.2637,3.3819,3.2878,3.3267,3.4414,3.4414,3.4414,3.4414,3.4414,3.4414,3.4414,3.4414,3.4414,3.4414,3.4414,3.4414,3.4414,3.4414,3.4733,3.5227,3.5865,3.6519,3.7172,3.7796,3.8072,3.8202,3.8202,3.8202,3.8202,3.8202,3.8202,3.8202,3.8202,3.8202,3.8202,3.8202,3.8202,3.8362,3.8855,3.9088,3.9538,4.0452,4.0873,4.1279,4.1758,4.199,4.2092,4.2092,4.2092,4.2092,4.2092,4.2092,4.2092,4.2092,4.2092,4.2092,4.2092,4.2092,4.2092,4.2092,4.2092,4.2324,4.2774,4.3863,4.4806,0.0,0.0,0.0,0.0,0.0,0.0,0.0,2.8532,0.0,0.0,0.0,0.0,0.0,0.0,0.0,0.0,0.0,0.0,0.0,0.0,0.0,0.0,0.0,0.0,0.0,0.0,0.0,2.9918,2.9918,2.9918,2.9918,2.9918,2.977,2.9425,2.9425,2.9425,2.9425,2.9297,2.9594,3.037,3.0721,3.13,3.2044,3.2292,3.2656,3.3087,3.2602,3.3321,3.469,3.3698,3.3868,3.4854,3.4854,3.4668,3.4414,3.4414,3.4414,3.4414,3.4414,3.4414,3.4414,3.4414,3.4414,3.4414,3.4414,3.4675,3.5154,3.6054,3.6968,3.7767,3.8115,3.8202,3.8202,3.8202,3.8202,3.8202,3.8202,3.8202,3.8202,3.8202,3.8202,3.8202,3.8202,3.8202,3.8434,3.9102,3.9407,3.9944,4.096,4.1337,4.1671,4.2049,4.2092,4.2092,4.2092,4.2092,4.2092,4.2092,4.2092,4.2092,4.2092,4.2092,4.2092,4.2092,4.2339,4.26,4.289,4.2353,4.2542,4.3427,4.4429,4.5242,0.0,0.0,0.0,0.0,0.0,0.0,2.9503,2.8884,0.0,0.0,0.0,0.0,0.0,0.0,0.0,0.0,0.0,0.0,0.0,0.0,0.0,0.0,0.0,0.0,0.0,3.0174,3.0032,3.0032,2.9951,2.9918,2.9918,2.9918,2.9918,2.9918,2.9918,2.9918,2.9918,2.9425,2.9745,3.0768,3.0568,3.1376,3.3,3.2704,3.314,3.405,3.3033,3.3623,3.5276,3.4789,3.4957,3.5529,3.5529,3.5154,3.4587,3.4587,3.4587,3.4601,3.4534,3.4534,3.4601,3.4481,3.4467,3.4467,3.4414,3.4516,3.4893,3.6156,3.7331,3.8202,3.8202,3.8202,3.8202,3.8202,3.8202,3.8202,3.8202,3.8202,3.8202,3.8202,3.8202,3.8202,3.8202,3.826,3.8536,3.9204,3.9813,4.0452,4.112,4.1729,4.2092,4.2092,4.2092,4.2092,4.2092,4.2092,4.2092,4.2092,4.2092,4.2092,4.2092,4.2092,4.2092,4.2092,4.2687,4.3326,4.3993,4.2919,4.2992,4.4095,4.4719,4.5314,0.0,0.0,0.0,0.0,0.0,0.0,2.7355,2.6874,2.6885,0.0,0.0,0.0,0.0,0.0,0.0,0.0,0.0,0.0,0.0,0.0,0.0,0.0,0.0,0.0,0.0,3.0863,3.0716,3.0716,3.0182,2.9918,2.9918,2.9918,2.9918,2.9918,2.9918,2.9918,2.9918,2.9814,2.9879,3.0085,3.1178,3.187,3.2255,3.3319,3.3882,3.4101,3.3882,3.4314,3.5271,3.5706,3.6038,3.6197,3.6197,3.6134,3.6009,3.6009,3.6009,3.5946,3.54,3.5578,3.5834,3.4787,3.4787,3.5088,3.4534,3.5125,3.6199,3.7476,3.8014,3.8202,3.8202,3.8202,3.8202,3.8202,3.8202,3.8202,3.8202,3.8202,3.8202,3.8202,3.8202,3.8202,3.8202,3.8652,3.9218,3.9828,4.0481,4.1149,4.1816,4.202,4.2092,4.2092,4.2092,4.2092,4.2092,4.2092,4.2092,4.2092,4.2092,4.2092,4.2092,4.2092,4.2092,4.2092,4.2687,4.3326,4.3993,4.4226,4.4472,4.4734,4.5387,4.5764,0.0,0.0,0.0,2.7513,0.0,0.0,0.0,0.0,2.6559,2.7451,0.0,0.0,0.0,0.0,0.0,0.0,0.0,0.0,0.0,0.0,0.0,0.0,0.0,0.0,0.0,3.0938,3.0684,3.0895,3.0263,3.0064,3.0376,3.0069,2.9918,2.9918,2.9918,2.9918,2.9918,2.9918,2.9918,2.9918,3.0959,3.1656,3.2044,3.3113,3.3777,3.4101,3.4101,3.4505,3.5234,3.5995,3.6501,3.6837,3.6886,3.6707,3.6384,3.6384,3.6384,3.6384,3.6009,3.6134,3.6259,3.5219,3.5154,3.527,3.4601,3.5299,3.6504,3.7491,3.797,3.8202,3.8202,3.8202,3.8202,3.8202,3.8202,3.8202,3.8202,3.8202,3.8202,3.8202,3.8202,3.8318,3.8638,3.8986,3.9523,4.0452,4.0887,4.1337,4.2005,4.2092,4.2092,4.2092,4.2092,4.2092,4.2092,4.2092,4.2092,4.2092,4.2092,4.2092,4.2092,4.2092,4.2397,4.3036,4.3631,4.4269,4.4937,4.5242,4.5213,4.4908,4.5576,4.588,0.0,0.0,0.0,0.0,0.0,2.7367,0.0,0.0,0.0,2.7725,0.0,0.0,0.0,0.0,0.0,0.0,0.0,0.0,0.0,0.0,0.0,0.0,0.0,0.0,0.0,3.0891,3.0556,3.0803,3.0185,3.0108,3.0878,3.0291,2.9983,3.0069,2.9983,2.9918,2.9918,2.9918,2.9918,2.9918,3.0587,3.1316,3.2044,3.2757,3.3469,3.4101,3.4101,3.4441,3.504,3.5785,3.6497,3.7155,3.7467,3.7266,3.6768,3.6768,3.6768,3.6753,3.6631,3.6707,3.6631,3.5834,3.5668,3.5739,3.5311,3.5962,3.7019,3.7695,3.8238,3.862,3.862,3.8546,3.8486,3.862,3.856,3.8412,3.8412,3.8412,3.8337,3.8202,3.8304,3.8565,3.9117,3.9305,3.977,4.0916,4.1207,4.1482,4.2034,4.2092,4.2092,4.2092,4.2092,4.2092,4.2092,4.2092,4.2092,4.2092,4.2092,4.2092,4.2092,4.2092,4.2702,4.3964,4.4545,4.5185,4.588,4.597,4.5694,4.5097,4.5634,4.588,0.0,0.0,0.0,0.0,2.9779,0.0,0.0,0.0,2.7135,2.5338,0.0,0.0,0.0,0.0,0.0,0.0,0.0,0.0,0.0,0.0,0.0,0.0,0.0,0.0,0.0,0.0,3.0821,3.0542,2.9757,2.9812,3.1026,3.0336,3.015,3.0781,3.0198,2.9918,2.9918,2.9918,2.9918,2.9918,3.0587,3.1316,3.2044,3.2757,3.3469,3.4101,3.4101,3.4149,3.4279,3.5007,3.5752,3.6562,3.7818,3.8205,3.8148,3.8148,3.8148,3.8091,3.7476,3.7653,3.796,3.6692,3.6752,3.7367,3.7805,3.8494,3.9244,3.9849,4.0093,4.0139,4.0139,3.9662,3.9305,3.9999,3.9662,3.9175,3.9175,3.9175,3.8972,3.8337,3.8681,3.9117,3.9189,3.9639,4.0249,4.0989,4.1613,4.2005,4.2092,4.2092,4.2092,4.2092,4.2092,4.2092,4.2092,4.2092,4.2092,4.2092,4.2092,4.2092,4.2092,4.2092,4.2702,4.3964,4.421,4.4836,4.588,4.6046,4.6002,4.5779,4.5851,4.588,0.0,0.0,0.0,0.0,0.0,0.0,2.7344,0.0,2.6182,0.0,0.0,0.0,0.0,0.0,0.0,0.0,0.0,0.0,0.0,0.0,0.0,0.0,0.0,0.0,0.0,0.0,0.0,0.0,0.0,3.007,3.1477,3.0625,3.0207,3.0456,3.0152,2.9989,3.0076,2.9946,2.9902,2.9946,3.021,3.0911,3.2012,3.2319,3.3064,3.4101,3.4101,3.4101,3.4165,3.4878,3.5623,3.6416,3.7388,3.8019,3.8391,3.8391,3.8391,3.8335,3.8091,3.8148,3.8343,3.7815,3.7577,3.771,3.8743,3.9252,3.9637,4.0232,4.0416,4.0416,4.0416,4.0139,3.9999,4.0347,4.0139,3.9999,4.0069,3.9964,3.9976,4.0236,4.0427,4.086,4.1535,4.1159,4.1192,4.2839,4.2897,4.2996,4.3457,4.3076,4.2835,4.2996,4.2474,4.2175,4.2242,4.2242,4.2242,4.2242,4.2392,4.2392,4.2242,4.3109,4.3837,4.4379,4.5213,4.5771,4.6046,4.6314,4.6314,4.6046,4.597,4.597,3.0493,0.0,0.0,0.0,0.0,0.0,0.0,0.0,0.0,0.0,0.0,0.0,0.0,0.0,0.0,0.0,0.0,0.0,0.0,0.0,0.0,0.0,0.0,0.0,0.0,0.0,0.0,0.0,0.0,0.0,3.1867,3.0933,3.0399,3.0484,3.0217,3.0103,3.0189,3.0076,3.0033,3.0076,3.0185,3.1001,3.2382,3.2351,3.3113,3.4493,3.4232,3.4151,3.4249,3.4718,3.5497,3.6442,3.6837,3.7637,3.8504,3.8448,3.8391,3.8391,3.8391,3.8391,3.8448,3.8674,3.8586,3.8466,3.945,4.0063,4.0372,4.0669,4.0888,4.0961,4.0961,4.0894,4.0826,4.0977,4.0894,4.0925,4.1211,4.1163,4.1281,4.2015,4.2248,4.2643,4.3811,4.2789,4.2428,4.4327,4.4051,4.3897,4.4495,4.4036,4.3804,4.3866,4.3284,4.29,4.3126,4.3061,4.3061,4.3126,4.3269,4.3269,4.3126,4.4132,4.4733,4.4926,4.5898,4.6403,4.6314,4.658,4.658,4.6314,4.615,4.615,0.0,0.0,0.0,3.085,0.0,0.0,0.0,0.0,2.7643,0.0,0.0,0.0,0.0,0.0,0.0,0.0,0.0,0.0,0.0,0.0,0.0,0.0,0.0,0.0,0.0,0.0,0.0,0.0,0.0,0.0,3.19,3.1247,3.0933,3.1265,3.0566,3.0205,3.0189,3.0189,3.0189,3.0205,3.0777,3.1854,3.3319,3.3129,3.3958,3.5512,3.4509,3.425,3.4448,3.4217,3.5129,3.664,3.6425,3.7324,3.875,3.8504,3.8391,3.8391,3.8391,3.8391,3.8521,3.925,3.9855,4.0404,4.0437,4.1423,4.2393,4.173,4.2037,4.2492,4.2492,4.2142,4.1868,4.2429,4.2237,4.2125,4.2728,4.2937,4.3046,4.3012,4.3591,4.4291,4.5112,4.4393,4.3975,4.4657,4.4571,4.4571,4.4765,4.4765,4.4765,4.4765,4.4765,4.475,4.4927,4.4809,4.475,4.4927,4.4927,4.4927,4.4927,4.4848,4.5076,4.5758,4.5933,4.6221,4.6594,4.6756,4.6756,4.6594,4.6594,4.6594,0.0,0.0,3.2616,3.1564,0.0,0.0,0.0,0.0,0.0,0.0,0.0,0.0,0.0,0.0,0.0,0.0,0.0,0.0,0.0,0.0,0.0,0.0,0.0,0.0,0.0,0.0,0.0,0.0,0.0,0.0,0.0,3.2183,3.2247,3.2343,3.1724,3.1441,3.1582,3.1153,3.0724,3.0333,3.0942,3.1749,3.2744,3.3125,3.386,3.4857,3.4497,3.4399,3.4497,3.4399,3.5315,3.6692,3.6587,3.7507,3.8805,3.8616,3.8504,3.8504,3.8504,3.8504,3.8634,3.9422,3.9812,4.0031,4.041,4.1281,4.2162,4.1813,4.2284,4.2821,4.2929,4.2743,4.2618,4.2867,4.3209,4.3553,4.3877,4.4252,4.4693,4.5271,4.5596,4.5885,4.664,4.6556,4.6415,4.6604,4.604,4.5881,4.6496,4.6095,4.5794,4.5969,4.5342,4.5017,4.5164,4.518,4.5122,4.518,4.5342,4.562,4.588,4.6434,4.6764,4.7027,4.8013,4.798,4.6844,4.7664,4.7578,4.6844,4.6946,4.6946,3.2916,3.2916,0.0,3.1885,3.0773,0.0,2.8113,0.0,0.0,0.0,0.0,0.0,0.0,0.0,0.0,0.0,0.0,0.0,0.0,0.0,0.0,0.0,0.0,0.0,0.0,0.0,2.9744,3.1564,0.0,0.0,0.0,0.0,3.3457,3.3343,3.2975,3.2815,3.2952,3.2504,3.2009,3.1458,3.2077,3.2689,3.3294,3.3643,3.425,3.5021,3.466,3.4546,3.4643,3.4546,3.5415,3.6847,3.6744,3.7613,3.8969,3.8766,3.8655,3.8655,3.8655,3.8655,3.8786,3.952,3.9748,3.983,4.0154,4.1069,4.1907,4.1618,4.2195,4.3007,4.3113,4.3068,4.3068,4.3113,4.3715,4.4463,4.4805,4.5375,4.6057,4.6946,4.7077,4.7186,4.7588,4.7721,4.7721,4.7588,4.7066,4.6844,4.7521,4.705,4.6828,4.6997,4.6378,4.5977,4.615,4.6461,4.6676,4.6676,4.7091,4.7428,4.7774,4.8259,4.8472,4.8483,4.93,4.9166,4.7958,4.8708,4.8625,4.7973,4.8072,4.7919]},{"header":{"parameterUnit":"m.s-1","parameterCategory":1,"la1":30.6,"la2":29.2853,"lo1":-89.7004,"lo2":-87.6739,"dy":0.0162,"dx":0.0183,"nx":112,"ny":82,"refTime":"2025-04-09T12:00:00:Z","depth":0,"parameterNumber":3,"parameterNumberName":"V-component_of_WINDS"},"data":[0.0,0.0,0.0,0.0,0.0,0.0,0.0,0.0,0.0,0.0,0.0,0.0,0.0,0.0,0.0,0.0,0.0,0.0,0.0,0.0,0.0,0.0,0.0,0.0,0.0,0.0,0.0,0.0,0.0,0.0,0.0,0.0,0.0,0.0,0.0,0.0,0.0,0.0,0.0,0.0,0.0,0.0,0.0,0.0,0.0,0.0,0.0,0.0,0.0,0.0,0.0,0.0,0.0,0.0,0.0,0.0,0.0,0.0,0.0,0.0,0.0,0.0,0.0,0.0,0.0,0.0,0.0,0.0,0.0,0.0,0.0,0.0,0.0,0.0,0.0,0.0,0.0,0.0,0.0,0.0,0.0,0.0,0.0,0.0,0.0,0.0,0.0,0.0,0.0,0.0,0.0,-2.0182,-2.1126,-2.1741,-2.1741,-2.1676,-2.097,-1.9402,0.0,0.0,0.0,0.0,0.0,0.0,0.0,0.0,0.0,0.0,0.0,0.0,0.0,0.0,0.0,0.0,0.0,0.0,0.0,0.0,0.0,0.0,0.0,0.0,0.0,0.0,0.0,0.0,0.0,0.0,0.0,0.0,0.0,0.0,0.0,0.0,0.0,0.0,0.0,0.0,0.0,0.0,0.0,0.0,0.0,0.0,0.0,0.0,0.0,0.0,0.0,0.0,0.0,0.0,0.0,0.0,0.0,0.0,0.0,0.0,0.0,0.0,0.0,0.0,0.0,0.0,0.0,0.0,0.0,0.0,0.0,0.0,0.0,0.0,0.0,0.0,0.0,0.0,0.0,0.0,0.0,0.0,0.0,0.0,0.0,0.0,0.0,0.0,0.0,0.0,0.0,0.0,0.0,0.0,0.0,0.0,0.0,0.0,0.0,0.0,0.0,0.0,0.0,0.0,-1.9925,-2.1319,-2.1621,-2.1741,-2.1741,-2.141,-2.0659,-1.9384,0.0,0.0,0.0,0.0,0.0,0.0,0.0,0.0,0.0,0.0,0.0,0.0,0.0,0.0,0.0,0.0,0.0,0.0,0.0,0.0,0.0,0.0,0.0,0.0,0.0,0.0,0.0,0.0,0.0,0.0,0.0,0.0,0.0,0.0,0.0,0.0,0.0,0.0,0.0,0.0,0.0,0.0,0.0,0.0,0.0,0.0,0.0,0.0,0.0,0.0,0.0,0.0,0.0,0.0,0.0,0.0,0.0,0.0,0.0,0.0,0.0,0.0,0.0,0.0,0.0,0.0,0.0,0.0,0.0,0.0,0.0,0.0,0.0,0.0,0.0,0.0,0.0,0.0,0.0,0.0,0.0,0.0,0.0,0.0,0.0,0.0,0.0,0.0,0.0,0.0,0.0,0.0,0.0,0.0,0.0,0.0,0.0,0.0,0.0,0.0,0.0,0.0,0.0,-1.9799,-2.0182,-2.1771,-2.183,-2.1741,-2.1741,-2.1557,-2.0833,-1.9393,-1.9301,0.0,0.0,0.0,0.0,0.0,0.0,0.0,0.0,0.0,0.0,0.0,0.0,0.0,0.0,0.0,0.0,0.0,0.0,0.0,0.0,0.0,0.0,0.0,0.0,0.0,0.0,0.0,0.0,0.0,0.0,0.0,0.0,0.0,0.0,0.0,0.0,0.0,0.0,0.0,0.0,0.0,0.0,0.0,0.0,0.0,0.0,0.0,0.0,0.0,0.0,0.0,0.0,0.0,0.0,0.0,0.0,0.0,0.0,0.0,0.0,0.0,0.0,0.0,0.0,0.0,0.0,0.0,0.0,0.0,0.0,0.0,0.0,0.0,0.0,0.0,0.0,0.0,0.0,0.0,0.0,0.0,0.0,0.0,0.0,0.0,0.0,0.0,0.0,0.0,0.0,0.0,0.0,0.0,0.0,0.0,0.0,0.0,0.0,0.0,0.0,0.0,0.0,-2.0808,-2.0968,-2.1994,-2.1919,-2.1741,-2.1741,-2.1566,-2.0833,-1.9393,-1.9127,0.0,0.0,0.0,0.0,0.0,0.0,0.0,0.0,0.0,0.0,0.0,0.0,0.0,0.0,0.0,0.0,0.0,0.0,0.0,0.0,0.0,0.0,0.0,0.0,0.0,0.0,0.0,0.0,0.0,0.0,0.0,0.0,0.0,0.0,0.0,0.0,0.0,0.0,0.0,0.0,0.0,0.0,0.0,0.0,0.0,0.0,0.0,0.0,0.0,0.0,0.0,0.0,0.0,0.0,0.0,0.0,0.0,0.0,0.0,0.0,0.0,0.0,0.0,0.0,0.0,0.0,0.0,0.0,0.0,0.0,0.0,0.0,0.0,0.0,0.0,0.0,0.0,0.0,0.0,0.0,0.0,0.0,0.0,0.0,0.0,0.0,0.0,0.0,0.0,0.0,0.0,0.0,0.0,0.0,0.0,0.0,0.0,0.0,0.0,0.0,0.0,0.0,-2.153,-2.2444,-2.2176,-2.2097,-2.2008,-2.1741,-2.1044,-2.0237,-1.9356,-1.8614,0.0,0.0,0.0,0.0,0.0,0.0,0.0,0.0,0.0,0.0,0.0,0.0,0.0,0.0,0.0,0.0,0.0,0.0,0.0,0.0,0.0,0.0,0.0,0.0,0.0,0.0,0.0,0.0,0.0,0.0,0.0,0.0,0.0,0.0,0.0,0.0,0.0,0.0,0.0,0.0,0.0,0.0,0.0,0.0,0.0,0.0,0.0,0.0,0.0,0.0,0.0,0.0,0.0,0.0,0.0,0.0,0.0,0.0,0.0,0.0,0.0,0.0,0.0,0.0,0.0,0.0,0.0,0.0,0.0,0.0,0.0,0.0,0.0,0.0,0.0,0.0,0.0,0.0,0.0,0.0,0.0,0.0,0.0,0.0,0.0,0.0,0.0,0.0,0.0,0.0,0.0,0.0,0.0,0.0,0.0,0.0,0.0,0.0,0.0,0.0,0.0,0.0,-2.1192,-2.195,0.0,-2.2362,-2.2185,-2.2008,-2.1575,-2.0699,-1.9375,0.0,0.0,0.0,0.0,0.0,0.0,0.0,0.0,0.0,0.0,0.0,0.0,0.0,0.0,0.0,0.0,0.0,0.0,0.0,0.0,0.0,0.0,0.0,0.0,0.0,0.0,0.0,0.0,0.0,0.0,0.0,0.0,0.0,0.0,0.0,0.0,0.0,0.0,0.0,0.0,0.0,0.0,0.0,0.0,0.0,0.0,0.0,0.0,0.0,0.0,0.0,0.0,0.0,0.0,0.0,0.0,0.0,0.0,0.0,0.0,0.0,0.0,0.0,0.0,0.0,0.0,0.0,0.0,0.0,0.0,0.0,0.0,0.0,0.0,0.0,0.0,0.0,0.0,0.0,0.0,0.0,0.0,0.0,0.0,0.0,0.0,0.0,0.0,0.0,0.0,0.0,0.0,0.0,0.0,0.0,0.0,0.0,0.0,0.0,0.0,0.0,0.0,-2.0205,-2.1221,-2.2064,0.0,-2.2618,-2.2441,-2.2185,-2.174,-2.078,-1.9349,0.0,0.0,0.0,0.0,0.0,0.0,0.0,0.0,0.0,0.0,0.0,0.0,0.0,0.0,0.0,0.0,0.0,0.0,0.0,0.0,0.0,0.0,0.0,0.0,0.0,0.0,0.0,0.0,0.0,0.0,0.0,0.0,0.0,0.0,0.0,0.0,0.0,0.0,0.0,0.0,0.0,0.0,0.0,0.0,0.0,0.0,0.0,0.0,0.0,0.0,0.0,0.0,0.0,0.0,0.0,0.0,0.0,0.0,0.0,0.0,0.0,0.0,0.0,0.0,0.0,0.0,0.0,0.0,0.0,0.0,0.0,0.0,0.0,0.0,0.0,0.0,0.0,0.0,0.0,0.0,0.0,0.0,0.0,0.0,0.0,0.0,0.0,0.0,0.0,0.0,0.0,0.0,0.0,0.0,0.0,0.0,0.0,0.0,0.0,0.0,0.0,0.0,-1.9912,-2.1797,-2.3057,-2.2794,-2.2803,-2.2706,-2.2441,-2.1296,-2.0146,0.0,0.0,0.0,0.0,0.0,0.0,0.0,0.0,0.0,0.0,0.0,0.0,0.0,0.0,0.0,0.0,0.0,0.0,0.0,0.0,0.0,0.0,0.0,0.0,0.0,0.0,0.0,0.0,0.0,0.0,0.0,0.0,0.0,0.0,0.0,0.0,0.0,0.0,0.0,0.0,0.0,0.0,0.0,0.0,0.0,0.0,0.0,0.0,0.0,0.0,0.0,0.0,0.0,0.0,0.0,0.0,0.0,0.0,0.0,0.0,0.0,0.0,0.0,0.0,0.0,0.0,0.0,0.0,0.0,0.0,0.0,0.0,0.0,0.0,0.0,0.0,0.0,0.0,0.0,0.0,0.0,0.0,0.0,0.0,0.0,0.0,0.0,0.0,0.0,0.0,0.0,0.0,0.0,0.0,0.0,0.0,0.0,0.0,0.0,0.0,0.0,0.0,0.0,-1.9873,-2.1797,-2.3057,-2.3057,-2.2969,-2.2882,-2.2706,-2.1993,-2.087,-1.9172,0.0,0.0,0.0,0.0,0.0,0.0,0.0,0.0,0.0,0.0,0.0,0.0,0.0,0.0,0.0,0.0,0.0,0.0,0.0,0.0,0.0,0.0,0.0,0.0,0.0,0.0,0.0,0.0,0.0,0.0,0.0,0.0,0.0,0.0,0.0,0.0,0.0,0.0,0.0,0.0,0.0,0.0,0.0,0.0,0.0,0.0,0.0,0.0,0.0,0.0,0.0,0.0,0.0,0.0,0.0,0.0,0.0,0.0,0.0,0.0,0.0,0.0,0.0,0.0,0.0,0.0,0.0,0.0,0.0,0.0,0.0,0.0,0.0,0.0,0.0,0.0,0.0,0.0,0.0,0.0,0.0,0.0,0.0,0.0,0.0,0.0,0.0,0.0,0.0,0.0,0.0,0.0,0.0,0.0,0.0,0.0,0.0,0.0,0.0,0.0,0.0,0.0,-1.9629,-2.1699,-2.3135,-2.3135,-2.3135,-2.3047,-2.2969,-2.2434,-2.1341,-1.943,0.0,0.0,0.0,0.0,0.0,0.0,0.0,0.0,0.0,0.0,0.0,0.0,0.0,0.0,0.0,0.0,0.0,0.0,0.0,0.0,0.0,0.0,0.0,0.0,0.0,0.0,0.0,0.0,0.0,0.0,0.0,0.0,0.0,0.0,0.0,0.0,0.0,0.0,0.0,0.0,0.0,0.0,0.0,0.0,0.0,0.0,0.0,0.0,0.0,0.0,0.0,0.0,0.0,0.0,0.0,0.0,0.0,0.0,0.0,0.0,0.0,0.0,0.0,0.0,0.0,0.0,0.0,0.0,0.0,0.0,0.0,0.0,0.0,0.0,0.0,0.0,0.0,0.0,0.0,0.0,0.0,0.0,0.0,0.0,0.0,0.0,0.0,0.0,0.0,0.0,0.0,0.0,0.0,0.0,0.0,0.0,0.0,0.0,0.0,0.0,0.0,0.0,-1.9287,-2.1543,-2.3135,-2.3135,-2.3135,-2.3135,-2.3135,-2.2754,-2.1714,-1.9889,0.0,0.0,0.0,0.0,0.0,0.0,0.0,0.0,0.0,0.0,0.0,0.0,0.0,0.0,0.0,0.0,0.0,0.0,0.0,0.0,0.0,0.0,0.0,0.0,0.0,0.0,0.0,0.0,0.0,0.0,0.0,0.0,0.0,0.0,0.0,0.0,0.0,0.0,0.0,0.0,0.0,0.0,0.0,0.0,0.0,0.0,0.0,0.0,0.0,0.0,0.0,0.0,0.0,0.0,0.0,0.0,0.0,0.0,0.0,0.0,-1.6081,0.0,0.0,0.0,0.0,0.0,0.0,0.0,0.0,0.0,0.0,0.0,0.0,0.0,0.0,0.0,0.0,0.0,0.0,0.0,0.0,0.0,0.0,0.0,0.0,0.0,0.0,0.0,0.0,0.0,0.0,0.0,0.0,0.0,0.0,0.0,0.0,0.0,0.0,0.0,0.0,0.0,-1.9287,-2.1543,-2.3135,-2.3135,-2.3135,-2.3135,-2.3135,-2.2754,-2.1841,-2.0294,-1.9493,0.0,0.0,0.0,0.0,0.0,0.0,0.0,0.0,0.0,0.0,0.0,0.0,0.0,0.0,0.0,0.0,0.0,0.0,0.0,0.0,0.0,0.0,0.0,0.0,0.0,0.0,0.0,0.0,0.0,0.0,0.0,0.0,0.0,0.0,0.0,0.0,0.0,0.0,0.0,0.0,0.0,0.0,0.0,0.0,0.0,0.0,0.0,0.0,0.0,0.0,0.0,0.0,0.0,0.0,0.0,0.0,0.0,0.0,0.0,0.0,-1.7224,0.0,0.0,0.0,0.0,0.0,0.0,0.0,0.0,0.0,0.0,0.0,0.0,0.0,0.0,0.0,0.0,0.0,0.0,0.0,0.0,0.0,0.0,0.0,0.0,0.0,0.0,0.0,0.0,0.0,0.0,0.0,0.0,0.0,0.0,0.0,0.0,0.0,0.0,0.0,0.0,-1.9634,-2.2068,-2.356,-2.3135,-2.3135,-2.3135,-2.3135,-2.2939,-2.2269,-2.1109,-2.0525,0.0,0.0,0.0,0.0,0.0,0.0,0.0,0.0,0.0,0.0,0.0,0.0,0.0,0.0,0.0,0.0,0.0,0.0,0.0,0.0,0.0,0.0,0.0,0.0,0.0,0.0,0.0,0.0,0.0,0.0,0.0,0.0,0.0,0.0,0.0,0.0,0.0,0.0,0.0,0.0,0.0,0.0,0.0,0.0,0.0,0.0,0.0,0.0,0.0,0.0,0.0,0.0,0.0,-1.9443,-1.9678,-1.9619,-2.0124,-2.0757,-2.1574,-2.0402,-1.9659,-1.928,0.0,0.0,0.0,0.0,0.0,0.0,0.0,0.0,0.0,0.0,0.0,0.0,0.0,0.0,0.0,0.0,0.0,0.0,0.0,0.0,0.0,0.0,0.0,0.0,0.0,-2.2984,-2.2872,0.0,0.0,0.0,0.0,0.0,0.0,0.0,0.0,0.0,0.0,0.0,0.0,-2.0477,-2.2808,-2.4241,-2.3637,-2.3309,-2.3135,-2.3309,-2.3299,-2.3061,-2.228,-2.2086,-2.1489,0.0,0.0,0.0,0.0,0.0,0.0,0.0,0.0,0.0,0.0,0.0,0.0,0.0,0.0,0.0,0.0,0.0,0.0,0.0,0.0,0.0,0.0,0.0,0.0,0.0,0.0,0.0,0.0,0.0,0.0,0.0,0.0,-1.5775,-1.6059,0.0,0.0,0.0,0.0,0.0,0.0,0.0,0.0,0.0,0.0,0.0,0.0,0.0,0.0,-1.9798,-2.1261,-2.1848,-2.161,-2.2895,-2.3302,-2.3004,-2.3576,-2.387,-2.4048,-2.4248,0.0,-2.2546,-2.1489,0.0,0.0,0.0,0.0,0.0,0.0,0.0,0.0,0.0,0.0,0.0,0.0,0.0,0.0,0.0,0.0,0.0,0.0,0.0,0.0,0.0,0.0,-2.491,-2.4756,-2.5526,-2.6098,0.0,-2.3098,-2.1075,-2.0742,0.0,0.0,0.0,0.0,0.0,0.0,0.0,0.0,-2.2561,-2.3714,-2.4744,-2.54,-2.4059,-2.3396,-2.4241,-2.4327,-2.4111,-2.3587,-2.387,-2.3744,-2.2864,-2.168,0.0,0.0,0.0,0.0,0.0,0.0,0.0,0.0,0.0,0.0,0.0,0.0,0.0,0.0,0.0,0.0,0.0,0.0,0.0,0.0,0.0,0.0,0.0,0.0,0.0,0.0,0.0,0.0,0.0,-1.6315,-1.6683,-1.6728,-1.6664,-1.6552,0.0,0.0,0.0,0.0,0.0,0.0,0.0,0.0,0.0,-1.9909,-2.0965,-2.1786,-2.2433,-2.3307,-2.3777,-2.3853,-2.4486,-2.4814,-2.488,-2.5098,-2.5532,-2.6039,-2.6253,-2.6303,-2.6082,-2.3991,-2.29,-2.2507,0.0,0.0,0.0,0.0,0.0,-2.2015,-2.3277,0.0,0.0,0.0,0.0,0.0,0.0,0.0,0.0,0.0,0.0,0.0,0.0,0.0,0.0,-2.6818,-2.74,-2.7753,-2.75,-2.6107,-2.4397,0.0,-2.2685,-2.2117,-1.9955,0.0,0.0,0.0,0.0,0.0,-2.3809,-2.5139,-2.5924,-2.583,-2.5062,-2.4819,-2.5158,-2.5242,-2.5157,-2.4943,-2.5308,-2.5295,-2.465,-2.3716,-2.2604,0.0,0.0,0.0,0.0,0.0,0.0,0.0,0.0,0.0,0.0,0.0,0.0,0.0,0.0,0.0,0.0,0.0,0.0,0.0,0.0,0.0,0.0,0.0,0.0,0.0,0.0,0.0,0.0,-1.6973,-1.75,-1.761,-1.7891,-1.7969,0.0,0.0,0.0,0.0,0.0,0.0,-1.9955,-2.0815,-2.1707,-2.2507,-2.3392,-2.4216,-2.4966,-2.5317,-2.5678,-2.6037,-2.6037,-2.6228,-2.6494,-2.6494,-2.6835,-2.751,-2.751,-2.7926,-2.8347,-2.6071,-2.4743,-2.4203,-2.3722,-2.3397,-2.327,-2.3632,-2.3649,-2.3659,-2.5547,-2.6153,-2.6048,-2.5456,0.0,-2.4059,-2.2004,0.0,0.0,0.0,0.0,-2.4591,-2.5954,0.0,-2.6894,-2.816,-2.851,-2.851,-2.851,-2.821,-2.7251,0.0,-2.5081,-2.4655,-2.2071,0.0,0.0,0.0,0.0,-2.4918,-2.5261,-2.6382,-2.701,-2.6577,-2.608,-2.5913,-2.6163,-2.6163,-2.6163,-2.6163,-2.6656,-2.6779,-2.6395,-2.5651,-2.4694,-2.3546,0.0,0.0,0.0,0.0,0.0,0.0,0.0,0.0,0.0,0.0,0.0,0.0,0.0,0.0,0.0,0.0,0.0,0.0,0.0,0.0,0.0,0.0,0.0,0.0,0.0,0.0,0.0,0.0,0.0,-1.9043,-1.9455,0.0,0.0,0.0,0.0,-2.0519,-2.0595,-2.1087,-2.2204,-2.2648,-2.336,-2.4336,-2.5633,-2.6565,-2.7012,-2.7855,-2.8279,-2.8303,-2.8303,-2.8315,-2.8339,-2.8339,-2.8419,-2.8431,-2.8431,-2.8431,-2.8426,-2.7292,-2.6749,-2.6518,-2.4888,-2.4624,-2.5111,-2.504,-2.5436,-2.6032,-2.6644,-2.686,-2.6932,-2.7375,-2.6091,-2.4397,-2.4221,-2.356,0.0,0.0,-2.5474,-2.682,-2.7459,-2.7975,-2.8371,-2.8498,-2.851,-2.851,-2.851,-2.8486,-2.8294,0.0,-2.6692,-2.5827,-2.5013,0.0,-2.4322,-2.4807,-2.5385,-2.627,-2.7365,-2.7345,-2.751,-2.8259,-2.6835,-2.6163,-2.701,-2.7103,-2.7103,-2.7103,-2.7903,-2.8371,-2.8359,-2.7819,-2.6776,-2.5193,-2.4181,0.0,0.0,0.0,0.0,0.0,0.0,0.0,0.0,0.0,0.0,0.0,0.0,0.0,0.0,0.0,0.0,0.0,0.0,0.0,0.0,0.0,0.0,0.0,0.0,0.0,0.0,0.0,0.0,-2.04,-2.0802,0.0,-2.1894,-2.223,-2.254,-2.2976,-2.3575,-2.4169,-2.4725,-2.5541,-2.617,-2.6543,-2.7372,-2.7897,-2.8007,-2.8339,-2.851,-2.851,-2.851,-2.851,-2.851,-2.851,-2.851,-2.851,-2.851,-2.851,-2.8474,-2.8102,-2.7945,-2.7909,-2.7281,-2.6924,-2.6848,-2.7222,-2.7198,-2.7224,-2.7765,-2.7945,-2.7921,-2.7765,-2.694,-2.6051,-2.6051,-2.6027,-2.6074,-2.6443,-2.7227,-2.7993,-2.8186,-2.8366,-2.851,-2.851,-2.851,-2.851,-2.851,-2.851,-2.845,-2.827,-2.7921,-2.7351,-2.6443,-2.638,-2.6427,-2.6273,-2.684,-2.7454,-2.8162,-2.8207,-2.8315,-2.851,-2.7914,-2.7672,-2.8007,-2.8018,-2.8018,-2.8018,-2.8351,-2.851,-2.851,-2.833,-2.7633,-2.637,-2.53,-2.3556,0.0,0.0,0.0,0.0,0.0,0.0,0.0,0.0,0.0,0.0,0.0,0.0,0.0,0.0,0.0,0.0,0.0,0.0,0.0,0.0,0.0,0.0,0.0,0.0,0.0,0.0,-2.0434,-2.1966,-2.2467,-2.3091,-2.403,-2.4495,-2.4922,-2.5382,-2.6013,-2.6559,-2.6923,-2.7596,-2.7993,-2.7993,-2.833,-2.851,-2.851,-2.851,-2.851,-2.851,-2.851,-2.851,-2.851,-2.851,-2.851,-2.851,-2.851,-2.851,-2.851,-2.8736,-2.8816,-2.8816,-2.859,-2.8294,-2.8029,-2.8378,-2.8294,-2.8041,-2.839,-2.851,-2.845,-2.8102,-2.7633,-2.7236,-2.7416,-2.7584,-2.7765,-2.7933,-2.8246,-2.851,-2.851,-2.851,-2.851,-2.851,-2.851,-2.851,-2.851,-2.851,-2.851,-2.851,-2.851,-2.8282,-2.7584,-2.7753,-2.7873,-2.7512,-2.783,-2.8258,-2.8462,-2.8645,-2.8724,-2.8657,-2.8578,-2.8578,-2.8578,-2.851,-2.851,-2.851,-2.8342,-2.8246,-2.8246,-2.8077,-2.756,-2.6671,-2.5588,-2.4109,-2.2197,0.0,0.0,0.0,0.0,0.0,0.0,0.0,0.0,0.0,0.0,0.0,0.0,0.0,0.0,0.0,0.0,0.0,0.0,0.0,0.0,0.0,0.0,0.0,-2.005,-2.1072,-2.2275,-2.3644,-2.4514,-2.5182,-2.5712,-2.6493,-2.72,-2.7705,-2.7741,-2.7969,-2.8486,-2.851,-2.851,-2.851,-2.851,-2.851,-2.851,-2.851,-2.851,-2.851,-2.851,-2.851,-2.851,-2.851,-2.851,-2.859,-2.859,-2.859,-2.859,-2.9197,-2.9419,-2.9341,-2.8816,-2.859,-2.859,-2.859,-2.859,-2.859,-2.859,-2.851,-2.851,-2.851,-2.8162,-2.7837,-2.8354,-2.8162,-2.7849,-2.8366,-2.851,-2.851,-2.851,-2.851,-2.851,-2.851,-2.851,-2.851,-2.851,-2.851,-2.851,-2.851,-2.851,-2.851,-2.851,-2.851,-2.851,-2.851,-2.851,0.0,-2.851,-2.8724,-2.8791,-2.8791,-2.8791,-2.8791,-2.8803,-2.8578,-2.8498,-2.8486,-2.8005,-2.7717,-2.7717,-2.7236,-2.6707,-2.6154,-2.5095,-2.4302,-2.3821,0.0,0.0,0.0,0.0,0.0,0.0,0.0,0.0,0.0,0.0,0.0,0.0,0.0,0.0,0.0,0.0,0.0,0.0,0.0,0.0,0.0,0.0,-2.114,-2.0765,-2.1621,-2.291,-2.4396,-2.5135,-2.5889,-2.7055,-2.7693,-2.8138,-2.8282,-2.8294,-2.8354,-2.8498,-2.851,-2.851,-2.851,-2.851,-2.851,-2.851,-2.851,-2.851,-2.851,-2.851,-2.8736,-2.9118,-2.9118,-2.9419,-2.9793,-2.9793,-2.9793,-2.9793,-2.9947,-3.0024,-3.0024,-2.9871,-2.9793,-2.9793,-2.9793,-2.9793,-2.9793,-2.9793,-2.9484,-2.9118,-2.9118,-2.8797,-2.8318,-2.8462,-2.8414,-2.8318,-2.8474,-2.851,-2.851,-2.851,-2.851,-2.851,-2.851,-2.851,-2.851,-2.851,-2.851,-2.851,-2.851,-2.851,-2.851,-2.851,-2.851,-2.859,-2.8724,-2.8816,0.0,-2.8907,-2.9118,-2.9106,-2.8791,-2.8791,-2.8724,-2.8578,-2.851,-2.8342,-2.7969,-2.7801,-2.7717,-2.7717,-2.7584,-2.7428,-2.7284,-2.5841,-2.5023,0.0,0.0,0.0,0.0,0.0,0.0,0.0,0.0,0.0,0.0,0.0,0.0,0.0,0.0,0.0,0.0,0.0,0.0,0.0,0.0,0.0,0.0,-2.1577,-2.2449,-2.2388,-2.3155,-2.4167,-2.5269,-2.5679,-2.6335,-2.7567,-2.7993,-2.827,-2.8498,-2.851,-2.851,-2.851,-2.851,-2.851,-2.851,-2.851,-2.851,-2.851,-2.851,-2.8669,-2.8882,-2.8882,-2.9184,-2.9793,-2.9793,-2.9947,0.0,-3.0317,-3.0317,-3.0317,-3.0545,-3.0696,0.0,0.0,0.0,0.0,0.0,-3.0317,-3.0317,-3.0317,-3.0088,-2.9793,-2.9793,-2.9574,-2.9184,-2.8961,-2.8882,-2.8803,-2.859,-2.851,-2.851,-2.851,-2.851,-2.851,-2.851,-2.851,-2.851,-2.851,-2.851,-2.851,-2.851,0.0,0.0,-2.851,-2.8578,-2.8657,-2.8803,-2.8961,-2.9131,0.0,-2.9275,-2.9341,-2.9106,-2.8961,-2.8882,-2.8736,-2.8657,0.0,0.0,0.0,-2.7698,-2.7404,-2.7392,0.0,0.0,0.0,0.0,0.0,0.0,0.0,0.0,-2.5901,-2.5853,0.0,0.0,0.0,0.0,0.0,0.0,0.0,0.0,0.0,0.0,0.0,0.0,0.0,0.0,0.0,0.0,-2.2775,-2.3496,-2.447,-2.5011,-2.548,-2.5949,-2.6057,-2.6478,-2.744,-2.7596,-2.7849,-2.8378,-2.8426,-2.845,-2.851,0.0,0.0,0.0,0.0,-2.851,-2.859,-2.859,-2.8882,-2.9496,-2.9496,-2.9793,-3.0393,-3.0393,-3.0469,-3.0469,-3.0469,-3.0469,-3.0558,-3.1084,-3.1307,-3.1233,-3.0696,-3.0469,-3.0469,-3.0469,-3.0469,0.0,0.0,0.0,0.0,-3.0393,-3.0317,-3.0165,-2.9639,-2.9496,-2.9419,-2.8816,-2.8657,-2.859,-2.859,-2.859,-2.851,-2.851,-2.851,-2.851,-2.851,-2.851,-2.851,-2.851,-2.851,-2.851,-2.851,-2.8645,-2.8791,-2.8803,-2.9052,0.0,-2.9221,-2.9353,-2.9419,-2.9419,0.0,0.0,-2.9131,-2.8961,-2.87,-2.8493,-2.8203,-2.7718,-2.7107,-2.7079,-2.7332,-2.7801,-2.7801,-2.8108,-2.8657,-2.8657,-2.8657,-2.8688,-2.6624,-2.619,0.0,0.0,0.0,0.0,0.0,0.0,0.0,0.0,0.0,0.0,0.0,0.0,0.0,0.0,0.0,-2.318,-2.3886,-2.4446,-2.5071,-2.524,-2.5348,-2.5444,-2.5841,-2.6178,-2.6394,-2.6815,-2.7308,-2.7837,-2.7873,-2.8065,-2.8486,-2.851,0.0,-2.851,-2.851,-2.8736,-2.9184,-2.9263,-2.9496,-3.0088,0.0,0.0,-3.0996,-3.0996,-3.132,-3.1863,-3.1863,-3.1863,-3.1863,-3.195,-3.2009,-3.2023,-3.1863,-3.1863,-3.1863,-3.1863,-3.1863,-3.1863,-3.1863,-3.1468,-3.0996,-3.0996,-3.0696,-3.0241,-3.0165,-3.0088,0.0,-2.9947,-2.9561,-2.9263,-2.9263,-2.8895,-2.851,-2.851,-2.851,-2.851,-2.851,-2.851,-2.851,-2.851,-2.851,-2.859,-2.8724,-2.8803,-2.8882,-2.904,-2.9197,-2.9431,-2.9624,-2.9702,-2.9611,-2.9419,-2.9341,-2.9275,-2.9131,-2.9052,-2.8868,-2.8362,-2.8304,-2.8206,-2.8032,-2.8268,-2.8458,-2.8567,-2.8567,-2.8995,-2.9691,-2.9549,-2.9781,-3.0355,-2.8676,-2.8227,0.0,0.0,0.0,0.0,0.0,0.0,0.0,0.0,0.0,0.0,0.0,-2.0405,-2.1256,0.0,-2.2669,-2.4258,-2.453,-2.4699,-2.524,-2.5312,-2.5312,-2.5312,-2.554,-2.5805,-2.6069,-2.661,-2.7152,-2.7681,-2.7969,-2.8234,-2.8498,-2.851,-2.8669,-2.8961,-2.8961,-2.9263,-2.9871,-2.9871,-3.0165,-3.0771,-3.0771,-3.1084,-3.1703,-3.1703,-3.1863,-3.2182,-3.2182,-3.2182,-3.2182,-3.2182,-3.2182,-3.2182,-3.2182,-3.2182,-3.2182,-3.2182,-3.2182,-3.2182,-3.2182,-3.195,-3.1703,-3.1703,-3.1482,-3.1172,-3.0859,-3.0771,-3.0696,-3.0393,-3.0088,-2.9871,-2.9871,-2.9651,-2.9341,-2.904,-2.8961,-2.8895,-2.8724,-2.8373,-2.8276,-2.8688,-2.8518,-2.8421,-2.8834,-2.904,-2.9106,-2.9275,-2.9443,-2.9611,-2.9792,-2.9792,-2.9792,-2.9599,-2.9509,-2.9341,-2.9275,-2.9131,-2.9008,-2.8892,-2.8725,-2.8725,-2.8725,-2.8827,-2.9118,-2.9561,-2.9561,-2.9922,-3.0719,-3.0657,-3.0807,-3.118,-3.0367,-2.9922,0.0,0.0,0.0,0.0,0.0,0.0,0.0,0.0,-1.9612,-2.0141,-2.0947,-2.1873,-2.2943,-2.3135,-2.3616,-2.5071,-2.4951,-2.4819,-2.5252,-2.5312,-2.5312,-2.5312,-2.5312,-2.548,-2.5901,-2.6442,-2.6995,-2.7524,-2.8065,-2.8402,-2.8657,-2.8657,-2.8961,-2.9574,-2.9561,-2.9871,-3.0607,-3.0545,-3.0846,-3.1516,-3.1455,-3.1703,-3.2182,-3.2182,-3.2182,-3.2182,-3.2182,-3.2182,-3.2182,-3.2182,-3.2182,-3.2182,-3.2182,-3.2241,-3.2314,-3.2241,-3.2241,-3.2314,-3.2314,-3.2314,-3.2314,-3.2386,-3.2386,-3.2228,-3.175,-3.1589,-3.1516,-3.0983,-3.0833,-3.0683,-3.0683,-3.0607,-3.038,-2.9935,-2.9781,-2.9704,-2.9394,-2.8827,-2.8654,-2.9409,-2.8981,-2.8667,-2.9499,-2.9651,-2.9561,-2.9419,-2.9611,-2.9792,-2.9792,-2.9792,-2.9792,-2.9792,-2.9611,-2.9509,-2.9509,-2.9365,-2.9287,-2.9509,-2.9365,-2.9221,-2.9221,-2.9353,-2.9729,-3.0317,-3.0545,-3.097,-3.1756,-3.1769,-3.1842,-3.1974,-3.1915,-3.1402,-2.0622,-2.0322,-2.0334,-2.0273,-2.0658,-2.1175,0.0,0.0,-2.1284,-2.1813,-2.2017,-2.2426,-2.3484,-2.3676,-2.4037,-2.5131,-2.5264,-2.524,-2.53,-2.5312,-2.5312,-2.5312,-2.5312,-2.5336,-2.5384,-2.5877,-2.6418,-2.6983,-2.7512,-2.8239,-2.9238,-2.9263,-2.9561,-3.0177,-3.0165,-3.0683,-3.1649,-3.1294,-3.1589,-3.2547,-3.2228,-3.2096,-3.2182,-3.2182,-3.2182,-3.2182,-3.2182,-3.2182,-3.2182,-3.2182,-3.2182,-3.2182,-3.2182,-3.2372,-3.2632,-3.2314,-3.2372,-3.2632,-3.2632,-3.2632,-3.2704,-3.3058,-3.2931,-3.2704,-3.2974,-3.3058,-3.3058,-3.2974,-3.2605,-3.2146,-3.2146,-3.1769,-3.1315,-3.1315,-3.1241,-3.1241,-3.1241,-3.1114,-3.1088,-3.1228,-3.0618,-3.0316,-3.1341,-3.0895,-3.0241,-2.9496,-2.9611,-2.9792,-2.9792,-2.9792,-2.9792,-2.9792,-2.9792,-2.9792,-2.9792,-2.9702,-2.9714,-2.9779,-2.9702,-2.9714,-2.9714,-3.019,-3.0456,-3.0532,-3.1281,-3.2001,-3.272,-3.2605,-3.2903,-3.3548,-3.3255,-3.2747,-2.126,-2.0839,0.0,0.0,-2.1247,-2.1837,-2.1753,-2.1801,-2.1921,-2.2149,-2.2438,-2.2883,-2.3628,-2.4013,-2.4526,0.0,-2.5382,-2.5382,-2.5606,-2.5453,-2.5312,-2.5453,-2.5382,-2.5312,-2.5312,-2.6081,-2.6683,-2.6911,-2.8206,-2.9158,-2.9406,-3.0152,-3.067,-3.0846,-3.1281,-3.1796,-3.2318,-3.239,-3.2618,-3.3058,-3.2931,-3.286,-3.286,-3.286,-3.286,-3.286,-3.286,-3.2717,-3.2503,-3.2503,-3.2704,-3.2974,-3.2974,-3.3367,-3.3837,-3.2832,-3.2717,-3.3058,-3.3058,-3.3058,-3.3058,-3.3269,-3.3199,-3.3058,-3.3269,-3.3269,-3.3269,-3.3269,-3.3115,-3.2889,-3.2889,-3.2747,-3.2448,-3.2132,-3.206,-3.1988,-3.1709,-3.1355,-3.1208,-3.1775,-3.1209,-3.0957,-3.1802,-3.1709,-3.1341,-3.1044,-3.0696,-3.0633,-3.1084,-3.0368,-2.9792,-2.9792,-2.9792,-2.9792,-2.9792,-2.9792,-2.9792,-2.9792,-2.9792,-2.9998,-3.0406,-3.0683,-3.118,-3.2132,-3.242,-3.3017,-3.3756,-3.3701,-3.3839,-3.4142,-3.4433,-3.4382,-2.1332,0.0,0.0,-2.0791,-2.1512,-2.2089,-2.1716,-2.1921,-2.2197,-2.2197,-2.2498,-2.2919,-2.346,-2.3965,-2.455,-2.5232,-2.5356,-2.5465,-2.5828,-2.5535,-2.5382,-2.5606,-2.5715,-2.58,-2.5942,-2.6518,-2.7053,-2.7484,-2.9076,-3.0062,-3.0215,-3.118,-3.1783,-3.1809,-3.2376,-3.2747,-3.2988,-3.3199,-3.3339,-3.3409,-3.3339,-3.3269,-3.3269,-3.3269,-3.3269,-3.3339,-3.3465,-3.3255,-3.2917,-3.3171,-3.3437,-3.363,-3.3837,-3.4298,-3.4832,-3.3837,-3.352,-3.3673,-3.3673,-3.3534,-3.3479,-3.3563,-3.3548,-3.3479,-3.3563,-3.3632,-3.3632,-3.3632,-3.3632,-3.3632,-3.3632,-3.3632,-3.3479,-3.303,-3.2946,-3.2875,-3.2591,-3.2091,-3.1899,-3.2579,-3.2091,-3.1856,-3.2579,-3.2577,-3.2519,-3.2733,-3.206,-3.1696,-3.2074,-3.1158,-3.0444,-3.0444,-3.0444,-3.0368,-3.0139,-3.0292,-3.0216,-2.9869,-3.0228,-3.057,-3.0895,-3.1328,-3.206,-3.3143,-3.3437,-3.3811,-3.4414,-3.4588,-3.4675,-3.469,-3.5328,-3.572,0.0,0.0,-2.0742,-2.126,-2.1789,-2.2185,-2.2173,-2.2185,-2.2197,-2.2197,-2.2209,-2.2378,-2.2907,-2.3436,-2.4032,-2.4675,-2.5126,-2.5465,-2.5828,-2.5535,-2.5382,-2.5606,-2.6387,-2.711,0.0,-2.7147,-2.7528,-2.9002,-2.966,-3.0672,-3.2263,-3.2362,-3.2662,-3.3199,-3.3269,-3.3409,-3.377,-3.3479,-3.3479,-3.377,-3.3479,-3.3269,-3.3269,-3.3269,-3.3269,-3.3339,-3.3768,-3.3713,-3.3339,-3.4298,-3.4432,-3.4027,-3.4551,-3.5044,-3.54,-3.532,-3.4993,-3.4528,-3.4528,-3.4221,-3.3839,-3.4264,-3.4128,-3.3839,-3.4264,-3.4346,-3.4346,-3.4346,-3.4346,-3.4346,-3.4346,-3.4346,-3.4346,-3.4332,-3.4346,-3.4346,-3.4332,-3.4317,-3.4317,-3.4332,-3.3659,-3.3422,-3.4182,-3.3673,-3.3437,-3.4196,-3.3673,-3.2861,-3.2218,-3.2074,-3.2015,-3.2015,-3.2015,-3.1709,-3.0895,-3.1563,-3.1368,-2.9869,-3.122,-3.1709,-3.097,-3.2349,-3.3143,-3.3213,-3.3962,-3.4414,-3.4414,-3.5024,-3.5343,-3.5343,-3.5981,-3.6635,-2.1524,0.0,-2.1319,-2.22,-2.2566,-2.2807,-2.308,-2.2936,-2.2795,-2.308,-2.2653,-2.2478,-2.3315,-2.3624,-2.4107,-2.5195,-2.529,-2.5797,-2.7098,-2.6264,-2.5918,-2.7191,-2.7477,0.0,0.0,0.0,0.0,-3.0108,-3.0915,-3.1648,-3.2335,-3.3241,-3.3618,-3.3339,-3.377,-3.3977,-3.377,-3.3977,-3.4059,-3.4196,-3.4059,-3.4059,-3.4059,-3.4059,-3.4249,-3.4558,-3.4743,-3.4743,-3.4728,-3.5059,-3.529,-3.5374,-3.5582,-3.6134,-3.6754,-3.6754,-3.643,-3.5913,-3.5593,-3.5139,-3.4773,-3.492,-3.4587,-3.4196,-3.4346,-3.4414,-3.4414,-3.4414,-3.4414,-3.4414,-3.4414,-3.4414,-3.4414,-3.4414,-3.4414,-3.4414,-3.4414,-3.4414,-3.4414,-3.4414,-3.4182,-3.4113,-3.4332,-3.4196,-3.4113,-3.4346,-3.4182,-3.3534,-3.229,-3.2506,-3.2648,-3.2146,-3.2074,-3.2001,-3.1709,-3.1928,-3.1869,-3.1368,-3.1796,-3.2218,-3.242,-3.2918,-3.3451,-3.3977,-3.4264,-3.4617,-3.5038,-3.5256,-3.559,-3.5996,-3.6664,-3.7085,-2.2055,-2.22,-2.2342,-2.299,-2.3157,-2.3257,-2.3548,-2.3389,-2.3257,-2.328,-2.2824,-2.2602,-2.324,-2.3588,-2.4141,-2.5394,-2.5539,-2.6041,-2.7775,-2.6786,-2.6526,-2.8038,-2.8611,-2.9093,0.0,0.0,0.0,-3.113,-3.1915,-3.2595,-3.3059,-3.3894,-3.4196,-3.3701,-3.4128,-3.4264,-3.3991,-3.4264,-3.4414,-3.4414,-3.4414,-3.4414,-3.4414,-3.4601,-3.4854,-3.5234,-3.5559,-3.5672,-3.5593,-3.5976,-3.6228,-3.6322,-3.6523,-3.6982,-3.748,-3.748,-3.7285,-3.6907,-3.6383,-3.5864,-3.5479,-3.5479,-3.5103,-3.4668,-3.4668,-3.4534,-3.4414,-3.4414,-3.4414,-3.4414,-3.4414,-3.4414,-3.4414,-3.4414,-3.4414,-3.4414,-3.4414,-3.4414,-3.4414,-3.4414,-3.4414,-3.4414,-3.4414,-3.4414,-3.4414,-3.4414,-3.4414,-3.4045,-3.303,-3.3311,-3.3451,-3.2946,-3.2946,-3.2804,-3.2506,-3.2733,-3.2662,-3.2146,-3.2591,-3.3017,-3.3213,-3.3451,-3.3994,-3.4748,-3.4762,-3.5067,-3.5706,-3.5938,-3.6272,-3.6678,-3.7331,-3.7752,-2.2297,-2.29,-2.3675,-2.3636,-2.3636,-2.3636,-2.3636,-2.361,-2.3385,-2.286,-2.2719,-2.2649,0.0,0.0,-2.4268,-2.5441,-2.5717,-2.6295,-2.7906,-2.7298,-2.7098,0.0,0.0,0.0,0.0,0.0,0.0,-3.209,0.0,-3.3465,-3.437,-3.4414,-3.4414,-3.4414,-3.4414,-3.4414,-3.4414,-3.4414,-3.4414,-3.4414,-3.4414,-3.4414,-3.4414,-3.4986,-3.5234,-3.5299,-3.6258,-3.6445,-3.6039,-3.7089,-3.7225,-3.6785,-3.7285,-3.748,-3.748,-3.748,-3.748,-3.7421,-3.6907,-3.6383,-3.5913,-3.5913,-3.5608,-3.5234,-3.5234,-3.4854,-3.4414,-3.4414,-3.4414,-3.4414,-3.4414,-3.4414,-3.4414,-3.4414,-3.4414,-3.4414,-3.4414,-3.4414,-3.4414,-3.4414,-3.4414,-3.4414,-3.4414,-3.4414,-3.4414,-3.4414,-3.4414,-3.4414,-3.4414,-3.4414,-3.4414,-3.4414,-3.4414,-3.4113,-3.3297,-3.3962,-3.3756,-3.2304,-3.3604,-3.4059,-3.3339,-3.402,-3.4762,-3.5401,-3.5415,-3.572,-3.6359,-3.6997,-3.7317,-3.736,-3.797,-3.8594,-2.2563,-2.2917,-2.3258,-2.3943,-2.3872,-2.3754,-2.4465,-2.372,-2.3083,-2.3628,-2.2815,-2.2244,0.0,0.0,0.0,-2.6089,-2.6511,0.0,-2.9296,-2.8505,0.0,-2.9794,0.0,-3.0594,-3.0721,-3.232,0.0,0.0,-3.2963,-3.3665,-3.437,-3.4414,-3.4414,-3.4414,-3.4414,-3.4414,-3.4414,-3.4414,-3.4414,-3.4414,-3.4414,-3.4414,-3.4414,-3.4986,-3.5415,-3.5737,-3.6399,-3.6846,-3.7089,-3.7405,-3.7421,-3.7285,-3.748,-3.748,-3.748,-3.748,-3.748,-3.748,-3.7345,-3.6968,-3.6523,-3.6523,-3.6117,-3.5721,-3.5721,-3.535,-3.4986,-3.4986,-3.4721,-3.4414,-3.4414,-3.4414,-3.4414,-3.4414,-3.4414,-3.4414,-3.4414,-3.4414,-3.4414,-3.4414,-3.4414,-3.4414,-3.4414,-3.4414,-3.4414,-3.4414,-3.4414,-3.4414,-3.4414,-3.4414,-3.4414,-3.4414,-3.4414,-3.4346,-3.4113,-3.4264,-3.4264,-3.3825,-3.4196,-3.4549,-3.479,-3.5042,-3.5415,-3.6054,-3.6069,-3.6388,-3.7056,-3.723,-3.7535,-3.7984,-3.8638,-3.9044,-2.3183,-2.3563,-2.3957,-2.4242,-2.4234,-2.4284,-2.4568,-2.3952,-2.3289,-2.3325,-2.2723,0.0,-2.2818,0.0,0.0,0.0,0.0,0.0,-2.9803,-2.931,-2.9156,0.0,-3.0812,0.0,-3.1018,-3.2237,-3.2904,0.0,-3.3369,-3.4037,-3.4385,-3.4414,-3.4414,-3.4414,-3.4414,-3.4414,-3.4414,-3.4601,-3.4721,-3.4721,-3.4721,-3.4721,-3.4787,-3.5299,-3.5672,-3.5897,0.0,-3.677,-3.7022,-3.7022,-3.7022,-3.7054,-3.7354,-3.748,-3.748,-3.748,-3.748,-3.748,-3.748,-3.7285,-3.7029,-3.7029,-3.6708,-3.6258,-3.6258,-3.5737,-3.5169,-3.5169,-3.4787,-3.4414,-3.4414,-3.4414,-3.4414,-3.4414,-3.4414,-3.4414,-3.4414,-3.4414,-3.4414,-3.4414,-3.4414,-3.4414,-3.4414,-3.4414,-3.4414,-3.4414,-3.4414,-3.4414,-3.4414,-3.4414,-3.4414,-3.4414,-3.4414,-3.4414,-3.4414,-3.4414,-3.4414,-3.4414,-3.4675,-3.4994,-3.5343,-3.5619,-3.6083,-3.6736,-3.6751,-3.7056,-3.7694,-3.7694,-3.8028,-3.8652,-3.903,-3.9509,-2.3804,-2.432,-2.4912,-2.4469,-2.4708,-2.4842,-2.4259,-2.4069,-2.3675,-2.2586,0.0,-2.2559,-2.2442,-2.3568,-2.4929,-2.6287,0.0,-2.8186,-2.9925,-2.9775,-2.9747,-3.0507,-3.1061,-3.1395,-3.1395,-3.2004,-3.2382,-3.2382,-3.3485,-3.4167,-3.4167,-3.4167,-3.4196,-3.4283,-3.437,-3.4481,-3.4481,-3.492,-3.5169,-3.5169,-3.5103,-3.5103,-3.5169,-3.5567,-3.5776,-3.5809,0.0,0.0,-3.6295,-3.639,-3.6421,-3.65,-3.7196,-3.748,-3.748,-3.748,-3.748,-3.748,-3.748,-3.7539,-3.7539,-3.7539,-3.7165,-3.6785,-3.6785,-3.607,-3.5299,-3.5299,-3.4854,-3.4414,-3.4414,-3.4414,-3.4414,-3.4414,-3.4414,-3.4414,-3.4414,-3.4414,-3.4414,-3.4414,-3.4414,-3.4414,-3.4414,-3.4414,-3.4414,-3.4414,-3.4414,-3.4414,-3.4414,-3.4414,-3.4414,-3.4414,-3.4414,-3.4414,-3.4414,-3.4414,-3.4443,-3.453,-3.5053,-3.5514,-3.5619,-3.6141,-3.6751,-3.7418,-3.7433,-3.768,-3.8202,-3.8289,-3.8638,-3.9204,-3.9378,-4.0046,-2.347,-2.3731,-2.406,-2.4734,-2.4948,-2.4842,-2.4259,-2.3689,0.0,0.0,-2.2255,-2.2159,-2.2846,-2.3794,-2.5083,-2.6859,0.0,0.0,0.0,0.0,-3.0447,0.0,0.0,0.0,0.0,0.0,0.0,0.0,0.0,-3.2846,-3.2846,-3.2846,-3.3143,-3.3784,-3.4339,-3.4683,-3.4802,-3.4935,-3.492,-3.492,-3.4817,-3.4765,-3.4802,-3.4988,-3.5093,-3.5109,0.0,0.0,-3.5616,-3.6184,-3.6421,-3.65,-3.7196,-3.748,-3.748,-3.748,-3.748,-3.748,-3.748,-3.7642,-3.7786,-3.7583,-3.7421,-3.7345,-3.7345,-3.6631,-3.58,-3.58,-3.5103,-3.4414,-3.4414,-3.4414,-3.4414,-3.4414,-3.4414,-3.4414,-3.4414,-3.4414,-3.4414,-3.4414,-3.4414,-3.4414,-3.4414,-3.4414,-3.4414,-3.4414,-3.4414,-3.4414,-3.4414,-3.4414,-3.4414,-3.4414,-3.4414,-3.4414,-3.4414,-3.4414,-3.4646,-3.5169,-3.5369,-3.5851,-3.6925,-3.707,-3.7418,-3.8028,-3.8043,-3.8101,-3.8202,-3.8754,-3.9088,-3.9233,-4.0278,-4.0887,-2.3245,-2.3339,-2.3471,-2.3897,-2.4536,-2.4761,-2.3798,0.0,0.0,0.0,-2.2334,-2.2283,-2.2592,-2.3492,0.0,0.0,0.0,0.0,0.0,0.0,0.0,0.0,0.0,0.0,0.0,0.0,0.0,0.0,0.0,-3.1801,-3.2483,-3.2576,-3.2835,-3.3319,-3.3657,-3.4044,-3.4434,-3.4679,-3.4971,-3.5299,-3.4907,-3.4857,-3.5234,-3.5307,-3.5293,-3.5308,-3.5688,0.0,-3.5272,-3.5864,-3.6151,-3.6414,-3.7171,-3.77,-3.7934,-3.7743,-3.7801,-3.7992,-3.7992,-3.8049,-3.8148,-3.7992,-3.7992,-3.7992,-3.7992,-3.7163,-3.6259,-3.6259,-3.5464,-3.4668,-3.4668,-3.4668,-3.4668,-3.4668,-3.4668,-3.4668,-3.4668,-3.4668,-3.4616,-3.4549,-3.4563,-3.4481,-3.4414,-3.4414,-3.4414,-3.4414,-3.4414,-3.4414,-3.4414,-3.4414,-3.4414,-3.4414,-3.4414,-3.4414,-3.4414,-3.4719,-3.5038,-3.5412,-3.5996,-3.6649,-3.7288,-3.7607,-3.7912,-3.8188,-3.8202,-3.8376,-3.8725,-3.9044,-3.9538,-4.0205,-4.0815,-4.1279,-2.3179,-2.3232,-2.3198,-2.3305,-2.4026,-2.4461,-2.3339,-2.3454,0.0,0.0,-2.2463,-2.2555,-2.237,0.0,-2.4423,0.0,0.0,0.0,0.0,0.0,0.0,0.0,0.0,0.0,0.0,0.0,0.0,0.0,0.0,0.0,-3.2111,-3.2411,-3.2658,-3.2859,-3.2992,-3.3317,-3.3883,-3.4382,-3.4889,-3.5362,-3.4874,-3.4826,-3.5362,-3.517,-3.5102,-3.5174,-3.5434,0.0,0.0,-3.5664,-3.6088,-3.6508,-3.7364,-3.7992,-3.8391,-3.8075,-3.8205,-3.8391,-3.8391,-3.8448,-3.8504,-3.8504,-3.8448,-3.8391,-3.8391,-3.7562,-3.6615,-3.6615,-3.577,-3.4935,-3.4935,-3.4935,-3.4935,-3.4935,-3.4935,-3.4935,-3.4935,-3.4935,-3.4868,-3.475,-3.4765,-3.4683,-3.4481,-3.4481,-3.4481,-3.4414,-3.4414,-3.4481,-3.4414,-3.4414,-3.4414,-3.4414,-3.4414,-3.4472,-3.4603,-3.5082,-3.5558,-3.5764,-3.6751,-3.736,-3.7491,-3.7955,-3.8202,-3.8202,-3.8202,-3.8536,-3.9204,-3.9334,-3.9987,-4.1091,-4.125,-4.1599,-2.3238,-2.3381,-2.345,-2.3897,-2.4066,-2.3933,-2.323,0.0,0.0,-2.2666,-2.2555,-2.2661,-2.2797,-2.3916,0.0,0.0,0.0,0.0,0.0,0.0,0.0,0.0,0.0,0.0,0.0,0.0,0.0,0.0,0.0,0.0,-3.0937,-3.1689,-3.2134,-3.2331,-3.2879,-3.3315,-3.3528,-3.4173,-3.4483,-3.4434,-3.4282,-3.422,-3.4226,-3.3379,-3.3236,-3.3692,0.0,0.0,0.0,-3.5914,-3.6578,-3.7258,-3.8012,-3.8335,-3.8391,-3.8391,-3.8391,-3.8391,-3.8391,-3.8544,-3.875,-3.875,-3.86,-3.8391,-3.8391,-3.7562,-3.6615,-3.6615,-3.577,-3.4935,-3.4935,-3.4935,-3.4935,-3.4935,-3.4935,-3.4935,-3.4935,-3.4935,-3.4868,-3.4868,-3.4868,-3.4802,-3.4698,-3.475,-3.4735,-3.4481,-3.4563,-3.4631,-3.4414,-3.4414,-3.4414,-3.4414,-3.4414,-3.4646,-3.5227,-3.5328,-3.5865,-3.7056,-3.7244,-3.7549,-3.8101,-3.8173,-3.8202,-3.8202,-3.8202,-3.8536,-3.9204,-3.9755,-4.0379,-4.1105,-4.1715,-4.2034,-2.3042,-2.309,-2.315,-2.3318,-2.3443,-2.336,-2.275,0.0,-2.2943,-2.2451,-2.2555,-2.2797,-2.2888,-2.3123,0.0,0.0,0.0,0.0,0.0,0.0,0.0,0.0,0.0,0.0,0.0,0.0,0.0,0.0,0.0,0.0,-3.1117,-3.1412,-3.1619,-3.1811,-3.2065,-3.2437,-3.2901,-3.3155,-3.3472,-3.3819,-3.3396,-3.335,-3.3698,-3.3373,-3.3299,-3.3439,0.0,0.0,0.0,-3.5577,-3.6437,-3.72,-3.7625,-3.8246,-3.8892,-3.8303,-3.8488,-3.8947,-3.8947,-3.8985,-3.9094,-3.9094,-3.875,-3.8327,-3.8327,-3.7722,-3.6995,-3.6585,-3.5879,-3.5294,-3.5294,-3.5294,-3.5294,-3.5294,-3.5294,-3.5294,-3.5294,-3.5294,-3.5213,-3.5082,-3.5082,-3.5016,-3.4868,-3.4868,-3.4854,-3.4735,-3.4683,-3.4698,-3.4563,-3.4481,-3.4559,-3.4951,-3.498,-3.5082,-3.5412,-3.5706,-3.6156,-3.6678,-3.6707,-3.6809,-3.7056,-3.707,-3.7259,-3.7651,-3.8014,-3.871,-3.9741,-4.0379,-4.1047,-4.17,-4.1976,-4.2175,-2.277,-2.272,-2.272,-2.272,-2.2808,-2.2831,0.0,-2.2571,-2.2658,-2.2108,-2.2217,-2.2495,-2.2646,-2.2574,-2.3013,0.0,0.0,0.0,0.0,0.0,0.0,0.0,0.0,0.0,0.0,0.0,0.0,0.0,0.0,0.0,0.0,-3.1232,-3.1409,-3.1482,-3.1482,-3.1764,-3.2213,-3.2422,-3.2706,-3.32,-3.2691,-3.2766,-3.3185,-3.2993,-3.2992,-3.3106,0.0,0.0,0.0,-3.5214,-3.6011,-3.6636,-3.6918,-3.7528,-3.8074,-3.7657,-3.8019,-3.8694,-3.8532,-3.8804,-3.9239,-3.8614,-3.8372,-3.8222,-3.7879,-3.7413,-3.7011,-3.6538,-3.5973,-3.5504,-3.5504,-3.5504,-3.5504,-3.5504,-3.5504,-3.5504,-3.5504,-3.5504,-3.5439,-3.5294,-3.5294,-3.5213,-3.5001,-3.5001,-3.5001,-3.4935,-3.4883,-3.4831,-3.4698,-3.4709,-3.4845,-3.5053,-3.5415,-3.5648,-3.5648,-3.6054,-3.6301,-3.6301,-3.6301,-3.6301,-3.6301,-3.6504,-3.691,-3.7564,-3.8188,-3.9117,-4.0394,-4.0858,-4.1439,-4.2175,-4.2092,-4.2175,-2.2472,-2.2322,-2.2322,-2.2322,-2.2291,-2.232,-2.2307,-2.2246,-2.2038,-2.1539,-2.1417,-2.1575,-2.2123,-2.2724,-2.3537,0.0,0.0,0.0,0.0,0.0,0.0,0.0,0.0,0.0,0.0,0.0,0.0,0.0,0.0,0.0,0.0,-3.1165,-3.1482,-3.1482,-3.1482,-3.1482,-3.1482,-3.2183,-3.246,-3.2428,-3.2475,-3.2445,-3.2413,-3.1811,-3.1868,0.0,0.0,0.0,0.0,-3.4897,-3.5209,-3.5467,-3.5997,-3.5905,-3.5522,-3.6147,-3.6798,-3.7242,-3.6628,-3.7672,-3.8978,-3.7038,-3.7262,-3.8051,-3.6768,-3.643,-3.643,-3.643,-3.5973,-3.5504,-3.5504,-3.5504,-3.5504,-3.5504,-3.5504,-3.5504,-3.5504,-3.5504,-3.5504,-3.5504,-3.5504,-3.5439,-3.5213,-3.5359,-3.5359,-3.4935,-3.5082,-3.5082,-3.4765,-3.5224,-3.5302,-3.4486,-3.5546,-3.6301,-3.6301,-3.6301,-3.6301,-3.6301,-3.6301,-3.6301,-3.6301,-3.6939,-3.7578,-3.8188,-3.8855,-3.9813,-4.1091,-4.1091,-4.1506,-4.2392,-4.2175,-4.2175,-2.2359,-2.2309,-2.2221,-2.1845,-2.1731,-2.1759,-2.1759,-2.2042,-2.2234,-2.2049,-2.2295,-2.2403,-2.2259,-2.24,-2.2831,-2.3616,0.0,0.0,0.0,0.0,0.0,0.0,0.0,0.0,0.0,0.0,0.0,0.0,0.0,0.0,0.0,-3.0477,-3.1046,-3.1467,-3.1482,-3.1482,-3.1482,-3.1676,-3.1792,-3.1811,-3.1792,-3.1792,-3.1811,-3.1582,0.0,0.0,0.0,0.0,0.0,-3.3756,-3.429,-3.4675,-3.4911,-3.5455,-3.5979,-3.5294,-3.6027,-3.7249,-3.6616,-3.7074,-3.7921,-3.7277,-3.7077,-3.6951,-3.6538,-3.643,-3.6305,-3.591,-3.5619,-3.5504,-3.5504,-3.5504,-3.5504,-3.5504,-3.5504,-3.5504,-3.5504,-3.5504,-3.5504,-3.5504,-3.5504,-3.5504,-3.5439,-3.5439,-3.5439,-3.5359,-3.5228,-3.5311,-3.5688,-3.5272,-3.5239,-3.5857,-3.5747,-3.5662,-3.5662,-3.5662,-3.5662,-3.5662,-3.5256,-3.5009,-3.5009,-3.5633,-3.6489,-3.7564,-3.8652,-3.9828,-4.1091,-4.1555,-4.1971,-4.2392,-4.2622,-4.2769,0.0,-2.1845,-2.187,-2.1317,-2.133,-2.1493,-2.1493,-2.1924,-2.2185,-2.1802,-2.1901,-2.2023,-2.1632,-2.1681,-2.2046,-2.3055,0.0,0.0,0.0,0.0,0.0,0.0,0.0,0.0,0.0,0.0,0.0,0.0,0.0,0.0,0.0,-3.0028,-3.0702,-3.1135,-3.1405,-3.1482,-3.1482,-3.1482,-3.1482,-3.1482,-3.1482,-3.1482,-3.1482,-3.1482,0.0,0.0,0.0,0.0,0.0,-3.2803,-3.3125,-3.3253,-3.3517,-3.399,-3.4492,-3.4176,-3.5025,-3.6197,-3.5804,-3.6432,-3.7263,-3.6518,-3.6215,-3.6085,-3.6085,-3.6085,-3.5958,-3.5619,-3.5504,-3.5504,-3.5504,-3.5504,-3.5504,-3.5504,-3.5504,-3.5504,-3.5504,-3.5504,-3.5504,-3.5504,-3.5504,-3.5504,-3.5504,-3.5504,-3.5504,-3.5504,-3.5583,-3.58,-3.6149,-3.5857,-3.5756,-3.6245,-3.5799,-3.5394,-3.5175,-3.5296,-3.5256,-3.5024,-3.4849,-3.4777,-3.4777,-3.5836,-3.6939,-3.7999,-3.9276,-4.0423,-4.1482,-4.2038,-4.231,-4.2392,-4.293,-4.3076,0.0,-2.1004,-2.1292,-2.074,-2.1016,-2.143,-2.143,-2.1857,0.0,-2.0941,-2.0781,-2.0724,-2.0693,-2.0731,-2.1268,-2.2897,0.0,0.0,0.0,0.0,0.0,0.0,0.0,0.0,0.0,0.0,0.0,0.0,0.0,0.0,0.0,-2.9699,-3.0387,-3.0432,-3.1106,-3.1422,-3.1482,-3.1482,-3.1482,-3.1482,-3.1482,-3.1482,-3.1482,-3.1482,0.0,0.0,0.0,0.0,0.0,-3.212,-3.2023,-3.1539,-3.2135,-3.2053,-3.1749,-3.2916,-3.3834,-3.4419,-3.4437,-3.5692,-3.6961,-3.5167,-3.4981,-3.5504,-3.5504,-3.5504,-3.5504,-3.5504,-3.5504,-3.5504,-3.5504,-3.5504,-3.5504,-3.5504,-3.5504,-3.5504,-3.5504,-3.5504,-3.5504,-3.5504,-3.5504,-3.5504,-3.5504,-3.5549,-3.5579,-3.5579,-3.6133,-3.6485,-3.632,-3.6743,-3.6778,-3.6035,-3.5712,-3.5327,-3.4815,-3.5161,-3.5111,-3.4516,-3.5082,-3.5529,-3.5503,-3.7244,-3.8536,-3.9262,-4.0604,-4.1549,-4.2175,-4.2541,-4.2622,-4.2474,-4.3025,-4.317,-2.002,0.0,-2.0769,-2.015,-2.0439,-2.092,0.0,-2.128,-2.1606,-2.1343,0.0,0.0,-2.1281,-2.1314,-2.1579,0.0,0.0,0.0,0.0,0.0,0.0,0.0,0.0,0.0,0.0,0.0,0.0,0.0,0.0,0.0,0.0,-2.8607,-2.928,-2.9789,-3.0417,-3.1001,-3.1467,-3.1482,-3.1482,-3.1482,-3.1482,-3.1482,-3.1482,-3.1482,0.0,0.0,0.0,0.0,-3.1539,-3.164,-3.164,-3.1524,-3.164,-3.1955,-3.2258,-3.2063,-3.3066,-3.4422,-3.3905,-3.4738,-3.5879,-3.5439,-3.537,-3.5504,-3.5504,-3.5504,-3.5504,-3.5504,-3.5504,-3.5504,-3.5504,-3.5504,-3.5504,-3.5504,-3.5504,-3.5504,-3.5504,-3.5504,-3.5504,-3.5504,-3.5504,-3.5504,-3.5504,-3.5923,-3.6252,-3.6252,-3.6791,-3.7195,-3.7112,-3.6692,-3.6357,-3.6141,-3.5518,-3.5221,-3.5589,-3.5477,-3.5299,-3.514,-3.5735,-3.6315,-3.6823,-3.7723,-3.883,-4.0164,-4.158,-4.2379,-4.2541,-4.285,-4.2915,-4.2835,-4.317,-4.325,-1.9429,-2.0254,-2.0903,-2.0338,-2.0627,-2.1041,-2.1041,0.0,0.0,0.0,0.0,0.0,0.0,0.0,0.0,0.0,0.0,0.0,0.0,0.0,0.0,0.0,0.0,0.0,0.0,0.0,0.0,0.0,0.0,0.0,0.0,-2.8233,-2.8771,-2.9116,-3.0013,-3.0836,-3.1467,-3.1482,-3.1482,-3.1482,-3.1482,-3.1482,-3.1482,-3.1482,0.0,0.0,0.0,0.0,-3.1482,-3.1482,-3.1482,-3.1482,-3.1482,-3.1691,-3.2093,-3.2332,-3.311,-3.4068,-3.4322,-3.4891,-3.5504,-3.5504,-3.5504,-3.5504,-3.5504,-3.5504,-3.5504,-3.5504,-3.5504,-3.5504,-3.5504,-3.5504,-3.5504,-3.5504,-3.5504,-3.5504,-3.5504,-3.5504,-3.5504,-3.5504,-3.5504,-3.5504,-3.5504,-3.6058,-3.6492,-3.6492,-3.7015,-3.7404,-3.7404,-3.6798,-3.6343,-3.6343,-3.58,-3.5659,-3.6014,-3.6329,-3.6409,-3.5962,-3.6488,-3.7056,-3.7694,-3.8594,-3.9775,-4.1339,-4.2269,-4.2688,-4.2688,-4.2915,-4.2981,-4.2981,-4.325,-4.3329,-1.8923,-2.0092,-2.112,-2.0803,-2.1079,-2.1468,-2.138,0.0,0.0,0.0,0.0,0.0,0.0,0.0,0.0,0.0,0.0,0.0,0.0,0.0,0.0,0.0,0.0,0.0,0.0,0.0,0.0,0.0,0.0,0.0,0.0,-2.8128,-2.8487,-2.8607,-2.9654,-3.0582,-3.1317,-3.1422,-3.1482,-3.1482,-3.1482,-3.1482,-3.1482,-3.1482,-3.1482,0.0,0.0,0.0,-3.1482,-3.1482,-3.1482,-3.1482,-3.1482,-3.1482,-3.1616,-3.2901,-3.341,-3.3679,-3.504,-3.5504,-3.5504,-3.5504,-3.5504,-3.5504,-3.5504,-3.5504,-3.5504,-3.5504,-3.5504,-3.5504,-3.5504,-3.5504,-3.5504,-3.5504,-3.5504,-3.5504,-3.5504,-3.5504,-3.5504,-3.5504,-3.5504,-3.5504,-3.5504,-3.6058,-3.6492,-3.6492,-3.7015,-3.7375,-3.7285,-3.6806,-3.6492,-3.6492,-3.6343,-3.6335,-3.6529,-3.7375,-3.7676,-3.7007,-3.7288,-3.7841,-3.8553,-3.979,-4.1157,-4.2444,-4.2688,-4.2769,-4.2769,-4.2996,-4.3076,-4.3076,-4.325,-4.3329,-1.8565,-1.9344,-2.0016,-2.0573,-2.1079,-2.1368,-2.0957,0.0,0.0,0.0,0.0,0.0,0.0,0.0,0.0,0.0,0.0,0.0,0.0,0.0,0.0,0.0,0.0,0.0,0.0,0.0,0.0,0.0,0.0,0.0,0.0,0.0,-2.7993,-2.8577,-2.8877,-2.9552,-3.0657,-3.124,-3.1482,-3.1482,-3.1482,-3.1482,-3.1482,-3.1482,-3.1482,0.0,0.0,-3.1482,-3.1482,-3.1482,-3.1482,-3.1482,-3.1482,-3.1482,-3.1556,-3.2377,-3.3021,-3.3679,-3.504,-3.5504,-3.5504,-3.5504,-3.5504,-3.5504,-3.5504,-3.5504,-3.5504,-3.5504,-3.5504,-3.5504,-3.5504,-3.5504,-3.5504,-3.5504,-3.5504,-3.5504,-3.5504,-3.5504,-3.5504,-3.5504,-3.5504,-3.5504,-3.5504,-3.6058,-3.6492,-3.6492,-3.7015,-3.7225,-3.6686,-3.6552,-3.6492,-3.6492,-3.6477,-3.6911,-3.8003,-3.8091,-3.8261,-3.8705,-3.8458,-3.885,-4.0125,-4.1701,-4.2708,-4.2915,-4.309,-4.317,-4.317,-4.325,-4.325,-4.325,-4.325,-4.3329,-1.7812,-1.8725,-1.9668,-2.0011,-2.0471,-2.0794,0.0,0.0,0.0,0.0,0.0,0.0,0.0,0.0,0.0,0.0,0.0,0.0,0.0,0.0,0.0,0.0,0.0,0.0,0.0,0.0,0.0,0.0,0.0,0.0,0.0,0.0,-2.7724,-2.8038,-2.8449,-2.9094,-2.9998,-3.0657,-3.1222,-3.167,-3.1539,-3.1539,-3.167,-3.1539,-3.1482,-3.1482,0.0,-3.1482,-3.1482,-3.1482,-3.1482,-3.1482,-3.1482,-3.1691,-3.2183,-3.32,-3.4008,-3.4666,-3.5295,-3.5504,-3.5504,-3.5504,-3.5504,-3.5504,-3.5504,-3.5504,-3.5504,-3.5504,-3.5504,-3.5504,-3.5504,-3.5504,-3.5504,-3.5504,-3.5504,-3.5504,-3.5504,-3.5504,-3.5504,-3.5504,-3.5504,-3.5504,-3.5504,-3.6058,-3.6492,-3.6492,-3.6731,-3.6926,-3.6985,-3.6686,-3.6611,-3.6941,-3.73,-3.7749,-3.8347,-3.8665,-3.9028,-3.9447,-3.9666,-4.0147,-4.1101,-4.2332,-4.2981,-4.2981,-4.317,-4.3329,-4.3329,-4.3329,-4.3329,-4.3329,-4.3329,-4.3329,-1.7405,-1.8184,-1.9048,-1.9171,0.0,0.0,0.0,0.0,0.0,0.0,0.0,0.0,0.0,0.0,0.0,0.0,0.0,0.0,0.0,0.0,0.0,0.0,0.0,0.0,0.0,0.0,0.0,0.0,0.0,0.0,0.0,0.0,-2.7458,-2.7625,-2.8135,-2.8734,-2.9394,-3.0078,-3.0885,-3.1799,-3.1597,-3.1597,-3.1799,-3.1597,-3.1482,-3.1482,-3.1482,-3.1482,-3.1482,-3.1482,-3.1482,-3.1497,-3.1646,-3.2258,-3.3095,-3.4098,-3.4906,-3.5504,-3.5504,-3.5504,-3.5504,-3.5504,-3.5504,-3.5504,-3.5504,-3.5504,-3.5504,-3.5504,-3.5504,-3.5504,-3.5504,-3.5504,-3.5504,-3.5504,-3.5504,-3.5504,-3.5504,-3.5504,-3.5504,-3.5504,-3.5504,-3.5504,-3.5504,-3.5923,-3.6252,-3.6252,-3.6387,-3.6656,-3.7135,-3.6911,-3.6941,-3.7569,-3.7938,-3.8083,-3.8073,-3.8781,-3.9372,-3.9565,-4.0154,-4.0881,-4.178,-4.2239,-4.2563,-4.2739,-4.2725,-4.2739,-4.2996,-4.2996,-4.3076,-4.3329,-4.3329,-4.3329,-1.7906,-1.7648,-1.7301,-1.7901,0.0,0.0,0.0,0.0,0.0,0.0,0.0,0.0,0.0,0.0,0.0,0.0,0.0,0.0,0.0,0.0,0.0,0.0,0.0,0.0,0.0,0.0,0.0,0.0,0.0,0.0,0.0,0.0,0.0,-2.7575,-2.7786,-2.8182,-2.8845,-2.963,-3.0613,-3.1799,-3.1597,-3.1597,-3.1799,-3.1597,-3.1482,-3.1482,-3.1482,-3.1482,-3.1482,-3.1482,-3.1482,-3.1541,-3.2213,-3.3215,-3.4352,-3.4442,-3.4906,-3.5504,-3.5504,-3.5504,-3.5504,-3.5504,-3.5504,-3.5504,-3.5504,-3.5504,-3.5504,-3.5504,-3.5504,-3.5504,-3.5504,-3.5504,-3.5504,-3.5504,-3.5504,-3.5504,-3.5504,-3.5504,-3.5504,-3.5504,-3.5504,-3.5504,-3.5504,-3.5549,-3.5579,-3.5579,-3.6088,-3.6507,-3.6552,-3.7015,-3.7599,-3.8257,-3.7693,-3.7212,-3.6999,-3.8256,-3.8981,-3.8908,-3.941,-4.0459,-4.2045,-4.1216,-4.1197,-4.2073,-4.1197,-4.1197,-4.2073,-4.2073,-4.2496,-4.3329,-4.3329,-4.3329,-1.7543,-1.7559,-1.7573,-1.7964,0.0,0.0,0.0,0.0,0.0,0.0,0.0,0.0,0.0,0.0,0.0,0.0,0.0,0.0,0.0,0.0,0.0,0.0,0.0,0.0,0.0,0.0,0.0,0.0,0.0,0.0,0.0,0.0,0.0,-2.7049,-2.71,-2.7683,-2.877,-2.9448,-3.0301,-3.143,-3.1573,-3.1784,-3.1883,-3.1655,-3.1482,-3.1482,-3.1482,-3.1482,-3.1482,-3.1482,-3.1779,-3.2243,-3.332,-3.4038,-3.4532,-3.4966,-3.528,-3.5504,-3.5504,-3.5504,-3.5504,-3.5504,-3.5504,-3.5504,-3.5504,-3.5504,-3.5504,-3.5504,-3.5504,-3.5504,-3.5504,-3.5504,-3.5504,-3.5504,-3.5504,-3.5504,-3.5504,-3.5504,-3.5504,-3.5504,-3.5504,-3.5504,-3.5504,-3.5848,-3.6118,-3.6118,-3.6656,-3.7058,-3.6958,-3.7575,-3.789,-3.7546,-3.7153,-3.7334,-3.813,-3.8246,-3.8592,-3.9269,-3.9504,-4.0117,-4.109,-4.0816,-4.0774,-4.1113,-4.0774,-4.0774,-4.1113,-4.1113,-4.1281,-4.1616,-4.2237,-4.2496,-1.7656,-1.757,-1.7604,0.0,0.0,0.0,0.0,0.0,0.0,0.0,0.0,0.0,0.0,0.0,0.0,0.0,0.0,0.0,0.0,0.0,0.0,0.0,0.0,0.0,0.0,0.0,0.0,0.0,0.0,0.0,0.0,0.0,0.0,0.0,-2.6404,-2.6924,-2.8025,-2.8779,-2.954,-3.0288,-3.0976,-3.1467,-3.1682,-3.1582,-3.1409,-3.1219,-3.1409,-3.1482,-3.1482,-3.1482,-3.2048,-3.2931,-3.4038,-3.4607,-3.4861,-3.5325,-3.5504,-3.5504,-3.5504,-3.5504,-3.5504,-3.5504,-3.5504,-3.5504,-3.5504,-3.5504,-3.5504,-3.5504,-3.5504,-3.5504,-3.5504,-3.5504,-3.5504,-3.5504,-3.5504,-3.5504,-3.5504,-3.5504,-3.5504,-3.5504,-3.5504,-3.5504,-3.5504,-3.6058,-3.6492,-3.6492,-3.6975,-3.7293,-3.7216,-3.7594,-3.7577,-3.6604,-3.6906,-3.7358,-3.7793,-3.7877,-3.8214,-3.8704,-3.8951,-3.9498,-4.0575,-4.0014,-3.9839,-4.0159,-3.9927,-3.9927,-4.0159,-4.0159,-4.0332,-4.0603,-4.1561,-4.199,-1.8462,-1.7751,-1.721,0.0,0.0,0.0,0.0,0.0,0.0,0.0,0.0,0.0,0.0,0.0,0.0,0.0,0.0,0.0,0.0,0.0,0.0,0.0,0.0,0.0,0.0,0.0,0.0,0.0,0.0,0.0,0.0,0.0,0.0,0.0,-2.5783,-2.596,-2.6283,-2.7582,-2.824,-2.8297,-2.9678,-3.0524,-3.097,-3.1336,-3.1087,-3.0524,-3.1219,-3.1467,-3.1467,-3.1482,-3.2258,-3.3559,-3.4218,-3.4906,-3.5504,-3.5504,-3.5504,-3.5504,-3.5504,-3.5504,-3.5504,-3.5504,-3.5504,-3.5504,-3.5504,-3.5504,-3.5504,-3.5504,-3.5504,-3.5504,-3.5504,-3.5504,-3.5504,-3.5504,-3.5504,-3.5504,-3.5504,-3.5504,-3.5504,-3.5504,-3.5504,-3.5504,-3.5519,-3.6058,-3.6507,-3.6507,-3.6928,-3.7215,-3.7215,-3.6973,-3.6582,-3.5816,-3.6927,-3.7138,-3.547,-3.7103,-3.7947,-3.7101,-3.7573,-3.8666,-4.0518,-3.8832,-3.8317,-3.921,-3.8304,-3.8304,-3.921,-3.921,-3.9637,-4.0603,-4.1561,-4.199,-1.7959,-1.7556,0.0,0.0,0.0,0.0,0.0,0.0,0.0,0.0,0.0,0.0,0.0,0.0,0.0,0.0,0.0,0.0,0.0,0.0,0.0,0.0,0.0,0.0,0.0,0.0,0.0,0.0,0.0,0.0,0.0,0.0,0.0,0.0,-2.5216,-2.5522,-2.6079,-2.6847,-2.7513,-2.8168,-2.8968,-2.9597,-3.0179,-3.0283,-3.0101,-2.9827,-3.0011,-3.0072,-3.0144,-3.1045,-3.1647,-3.2155,-3.3164,-3.3693,-3.3934,-3.4476,-3.4677,-3.4758,-3.5279,-3.5504,-3.5504,-3.5504,-3.5504,-3.5504,-3.5504,-3.5504,-3.5504,-3.5504,-3.5052,-3.4758,-3.5359,-3.4721,-3.4153,-3.5228,-3.5067,-3.4824,-3.5359,-3.5067,-3.4677,-3.4677,-3.499,-3.5092,-3.4593,-3.5923,-3.6793,-3.6185,-3.7125,-3.7659,-3.7087,-3.5919,-3.5494,-3.6425,-3.6198,-3.6266,-3.678,-3.7169,-3.7451,-3.7612,-3.7808,-3.8161,-3.8666,-3.8161,-3.7979,-3.8317,-3.807,-3.807,-3.8317,-3.8317,-3.8395,-3.8756,-3.9577,-3.9986,-1.8205,-1.7974,0.0,0.0,0.0,0.0,0.0,0.0,0.0,0.0,0.0,0.0,0.0,0.0,0.0,0.0,0.0,0.0,0.0,0.0,0.0,0.0,0.0,0.0,0.0,0.0,0.0,0.0,0.0,0.0,0.0,0.0,0.0,0.0,-2.462,-2.4865,-2.5315,-2.5949,-2.6613,-2.7252,-2.8084,-2.8574,-2.8889,-2.9546,-2.9546,-2.9142,-2.938,-2.9504,-2.9602,-3.0867,-3.1387,-3.1513,-3.2736,-3.3213,-3.3213,-3.3699,-3.3837,-3.3905,-3.4423,-3.4572,-3.4572,-3.4572,-3.4572,-3.4572,-3.4572,-3.4572,-3.4572,-3.4572,-3.4274,-3.3973,-3.4423,-3.3934,-3.3506,-3.4706,-3.4409,-3.3973,-3.4491,-3.4206,-3.3908,-3.4151,-3.4524,-3.4725,-3.445,-3.5691,-3.6507,-3.5967,-3.6682,-3.6922,-3.6042,-3.5019,-3.4878,-3.6143,-3.5911,-3.6021,-3.711,-3.7279,-3.7521,-3.7874,-3.79,-3.79,-3.79,-3.79,-3.79,-3.79,-3.79,-3.79,-3.79,-3.79,-3.79,-3.79,-3.8792,-3.921,-1.8846,0.0,0.0,-1.977,-1.9705,0.0,0.0,0.0,0.0,0.0,0.0,0.0,0.0,0.0,0.0,0.0,0.0,0.0,0.0,0.0,0.0,0.0,0.0,0.0,0.0,0.0,0.0,0.0,0.0,0.0,0.0,0.0,0.0,0.0,-2.4112,-2.4157,-2.4292,-2.4951,-2.5521,0.0,-2.7015,-2.7541,-2.7445,-2.8967,-2.917,-2.8417,-2.9079,-2.9345,-2.9498,-3.0699,-3.123,-3.1397,-3.2556,-3.3017,-3.3017,-3.3087,-3.3073,-3.3073,-3.3143,-3.3213,-3.3213,-3.3213,-3.3213,-3.3213,-3.3213,-3.3213,-3.3213,-3.3213,-3.3143,-3.3143,-3.3143,-3.3073,-3.3213,-3.3891,-3.3561,-3.3143,-3.3213,-3.3199,-3.3325,-3.3884,-3.408,-3.4259,-3.4743,-3.5418,-3.5899,-3.5899,-3.5699,-3.5264,-3.4481,-3.4397,-3.4633,-3.5234,-3.5783,-3.6345,-3.6946,-3.7547,-3.79,-3.79,-3.79,-3.79,-3.79,-3.79,-3.79,-3.79,-3.79,-3.79,-3.79,-3.79,-3.79,-3.79,-3.8715,-3.9033,0.0,-1.8261,0.0,0.0,-2.0347,0.0,0.0,0.0,0.0,0.0,0.0,0.0,0.0,0.0,0.0,0.0,0.0,0.0,0.0,0.0,0.0,0.0,0.0,0.0,0.0,0.0,0.0,0.0,0.0,0.0,0.0,0.0,0.0,-2.4112,-2.4112,-2.4112,-2.4157,-2.4379,-2.4794,0.0,-2.6153,-2.6675,-2.6935,-2.7983,-2.8183,-2.7723,-2.7842,-2.8226,-2.8704,-2.9435,-3.002,-3.0413,-3.1203,-3.1482,-3.1542,-3.2087,-3.2362,-3.2434,-3.3003,-3.3213,-3.3213,-3.3213,-3.3213,-3.3213,-3.3213,-3.3213,-3.3213,-3.3213,-3.2791,-3.2434,-3.3073,-3.2318,-3.1676,-3.2362,-3.2434,-3.2506,-3.3073,-3.3121,-3.3069,-3.3205,-3.3984,-3.4434,-3.398,-3.494,-3.5705,-3.5705,-3.5102,-3.4634,-3.4397,-3.4397,-3.4633,-3.5234,-3.5783,-3.6345,-3.6946,-3.7547,-3.79,-3.79,-3.79,-3.79,-3.79,-3.79,-3.79,-3.79,-3.79,-3.79,-3.79,-3.79,-3.79,-3.79,-3.8057,-3.8148,0.0,0.0,0.0,-2.0118,0.0,0.0,0.0,0.0,0.0,0.0,0.0,0.0,0.0,0.0,0.0,0.0,0.0,0.0,0.0,0.0,0.0,0.0,0.0,0.0,0.0,0.0,0.0,0.0,0.0,0.0,0.0,-2.4112,-2.4112,-2.4112,-2.4112,-2.4112,-2.4112,-2.4247,-2.4537,-2.5035,-2.5906,-2.6635,-2.721,-2.7591,-2.7669,-2.7523,-2.7523,-2.785,-2.8425,-2.9026,-2.9627,-3.0189,-3.0764,-3.0986,-3.1061,-3.1394,-3.1603,-3.1603,-3.2028,-3.2173,-3.2173,-3.2173,-3.2173,-3.2173,-3.2173,-3.2173,-3.2173,-3.2173,-3.1896,-3.1676,-3.2028,-3.1542,-3.1123,-3.1468,-3.1603,-3.1676,-3.2028,-3.2293,-3.2515,-3.2794,-3.3567,-3.4126,-3.4009,-3.46,-3.5114,-3.5114,-3.4716,-3.4397,-3.4397,-3.4397,-3.4724,-3.5587,-3.5926,-3.6462,-3.7364,-3.773,-3.79,-3.79,-3.79,-3.79,-3.79,-3.79,-3.79,-3.79,-3.79,-3.79,-3.79,-3.79,-3.79,-3.79,-3.79,-3.79,0.0,0.0,-1.847,-2.0584,-2.0913,0.0,0.0,0.0,0.0,0.0,0.0,0.0,0.0,0.0,0.0,0.0,0.0,0.0,0.0,0.0,0.0,0.0,0.0,0.0,0.0,0.0,0.0,0.0,0.0,0.0,-2.4112,-2.4112,-2.4112,-2.4112,-2.4112,-2.4112,-2.4112,-2.4247,-2.4484,-2.4831,-2.5805,-2.6717,-2.7723,-2.759,-2.7523,-2.7523,-2.7523,-2.7915,-2.8569,-2.9065,-2.968,-3.032,-3.0803,-3.0986,-3.0986,-3.0986,-3.0986,-3.0986,-3.0986,-3.0986,-3.0986,-3.0986,-3.0986,-3.0986,-3.0986,-3.0986,-3.0986,-3.0986,-3.0986,-3.0986,-3.0986,-3.0986,-3.0986,-3.0986,-3.0986,-3.1013,-3.1117,-3.1588,-3.2163,-3.2738,-3.3326,-3.3875,-3.4319,-3.4397,-3.4397,-3.4397,-3.4397,-3.4397,-3.4397,-3.4489,-3.4946,-3.5992,-3.6188,-3.6711,-3.7808,-3.79,-3.79,-3.79,-3.79,-3.79,-3.79,-3.79,-3.79,-3.79,-3.79,-3.79,-3.79,-3.79,-3.79,-3.79,-3.79,-3.7952,0.0,0.0,-1.8354,0.0,-2.1113,-2.0255,0.0,0.0,0.0,0.0,0.0,0.0,0.0,0.0,0.0,0.0,0.0,0.0,0.0,0.0,0.0,0.0,0.0,0.0,0.0,0.0,0.0,0.0,0.0,0.0,-2.4054,-2.4112,-2.4112,-2.4112,-2.4112,-2.4112,-2.4112,-2.4247,-2.4287,-2.4243,-2.5376,-2.6476,-2.7523,-2.7523,-2.7523,-2.7523,-2.7523,-2.815,-2.917,-2.9248,-2.9902,-3.0882,-3.096,-3.0986,-3.0986,-3.0986,-3.0986,-3.0986,-3.0986,-3.0986,-3.0986,-3.0986,-3.0986,-3.0986,-3.0986,-3.0986,-3.0986,-3.0986,-3.0986,-3.0986,-3.0986,-3.0986,-3.0986,-3.0986,-3.0986,-3.1117,-3.1614,-3.2176,-3.2764,-3.3352,-3.3914,-3.4319,-3.4384,-3.4397,-3.4397,-3.4397,-3.4397,-3.4397,-3.4397,-3.4855,-3.5417,-3.6031,-3.6567,-3.7155,-3.7848,-3.79,-3.79,-3.79,-3.79,-3.79,-3.79,-3.79,-3.79,-3.79,-3.79,-3.79,-3.79,-3.79,-3.79,-3.79,-3.79,-3.8161,-1.4534,-1.6377,-1.8339,0.0,-2.041,-2.0012,-2.0483,0.0,0.0,0.0,0.0,0.0,0.0,0.0,0.0,0.0,0.0,0.0,0.0,0.0,0.0,0.0,0.0,0.0,0.0,0.0,0.0,0.0,0.0,-2.2847,-2.3471,-2.3531,-2.3721,-2.4112,-2.4112,-2.4112,-2.4112,-2.4157,-2.4485,-2.5079,-2.5576,-2.6425,-2.7523,-2.7523,-2.7523,-2.7523,-2.7523,-2.819,-2.9274,-2.9274,-2.9954,-3.0986,-3.0986,-3.0986,-3.0986,-3.0986,-3.0986,-3.0986,-3.0986,-3.0986,-3.0986,-3.0986,-3.0986,-3.0986,-3.0986,-3.0986,-3.0986,-3.0986,-3.0986,-3.0986,-3.0986,-3.0986,-3.0986,-3.0986,-3.1235,-3.1561,-3.1927,-3.2359,-3.296,-3.3862,-3.4241,-3.4397,-3.4397,-3.4397,-3.4397,-3.4397,-3.4397,-3.4397,-3.4397,-3.4933,-3.5508,-3.6044,-3.6645,-3.7246,-3.7848,-3.79,-3.79,-3.79,-3.79,-3.79,-3.79,-3.79,-3.79,-3.79,-3.79,-3.79,-3.79,-3.79,-3.79,-3.79,-3.79,-3.8187,0.0,0.0,-1.7086,-1.9003,-1.9173,-1.9072,0.0,0.0,0.0,0.0,0.0,0.0,0.0,0.0,0.0,0.0,0.0,0.0,0.0,0.0,0.0,0.0,0.0,0.0,0.0,0.0,0.0,0.0,0.0,-2.2163,-2.2834,-2.3027,-2.328,-2.3556,-2.3923,-2.3995,-2.3865,-2.3995,-2.4687,-2.5824,-2.5824,-2.6425,-2.7523,-2.7523,-2.7523,-2.7523,-2.7523,-2.819,-2.9274,-2.9274,-2.9954,-3.0986,-3.0986,-3.0986,-3.0986,-3.0986,-3.0986,-3.0986,-3.0986,-3.0986,-3.0986,-3.0986,-3.0986,-3.0986,-3.0986,-3.0986,-3.0986,-3.0986,-3.1091,-3.1196,-3.1196,-3.1313,-3.1418,-3.1418,-3.1744,-3.2136,-3.2437,-3.2829,-3.3378,-3.4228,-3.4397,-3.4397,-3.4397,-3.4397,-3.4397,-3.4397,-3.4397,-3.4397,-3.4397,-3.5051,-3.5652,-3.6057,-3.6776,-3.7416,-3.7861,-3.79,-3.79,-3.79,-3.79,-3.79,-3.79,-3.79,-3.79,-3.79,-3.79,-3.79,-3.79,-3.79,-3.79,-3.79,-3.79,-3.8279,0.0,-1.3351,0.0,-1.7684,0.0,0.0,0.0,0.0,0.0,0.0,0.0,0.0,0.0,0.0,0.0,0.0,0.0,0.0,0.0,0.0,0.0,0.0,0.0,0.0,0.0,0.0,0.0,0.0,0.0,-2.1428,-2.2113,-2.2774,-2.2834,-2.2237,-2.3424,-2.3793,-2.3148,-2.3793,-2.4687,-2.5824,-2.5824,-2.6425,-2.7523,-2.7523,-2.7523,-2.7523,-2.7523,-2.819,-2.9274,-2.9274,-2.9954,-3.0986,-3.0986,-3.0986,-3.0986,-3.0986,-3.0986,-3.0986,-3.0986,-3.0986,-3.0986,-3.0986,-3.0986,-3.0986,-3.0986,-3.0986,-3.0986,-3.0986,-3.1378,-3.1797,-3.1797,-3.2189,-3.2607,-3.2607,-3.262,-3.2803,-3.3391,-3.3927,-3.4332,-3.4384,-3.4397,-3.4397,-3.4397,-3.4397,-3.4397,-3.4397,-3.4397,-3.4397,-3.4397,-3.5365,-3.607,-3.6109,-3.7155,-3.7874,-3.79,-3.79,-3.79,-3.79,-3.79,-3.79,-3.79,-3.79,-3.79,-3.79,-3.79,-3.79,-3.79,-3.79,-3.79,-3.79,-3.79,-3.8501,0.0,0.0,0.0,-1.564,-1.6356,-1.6742,0.0,0.0,0.0,0.0,0.0,0.0,0.0,0.0,0.0,0.0,0.0,0.0,0.0,0.0,0.0,0.0,0.0,0.0,0.0,0.0,0.0,0.0,0.0,0.0,-2.1428,-2.1678,-2.1928,-2.2101,-2.298,-2.3339,-2.3088,-2.4154,-2.4845,-2.5141,-2.5986,-2.6778,-2.7523,-2.7523,-2.7523,-2.7523,-2.7523,-2.819,-2.9274,-2.9274,-2.9954,-3.0986,-3.0986,-3.0986,-3.0986,-3.0986,-3.0986,-3.0986,-3.0986,-3.0986,-3.0986,-3.0986,-3.0986,-3.0986,-3.0986,-3.0986,-3.1065,-3.1431,-3.1679,-3.1927,-3.2293,-3.2542,-3.279,-3.3182,-3.3535,-3.3849,-3.4071,-3.4254,-3.4397,-3.4397,-3.4397,-3.4397,-3.4397,-3.4397,-3.4397,-3.4397,-3.4397,-3.4541,-3.4933,-3.5639,-3.6253,-3.6645,-3.7416,-3.79,-3.79,-3.79,-3.79,-3.79,-3.79,-3.79,-3.79,-3.79,-3.79,-3.79,-3.79,-3.79,-3.79,-3.79,-3.79,-3.7913,-3.8266,-3.8841,-1.1481,0.0,0.0,0.0,0.0,-1.5495,0.0,0.0,0.0,0.0,0.0,0.0,0.0,0.0,0.0,0.0,0.0,0.0,0.0,0.0,0.0,0.0,0.0,0.0,0.0,0.0,0.0,0.0,0.0,0.0,-2.0764,-2.1008,-2.1428,-2.2113,-2.2286,-2.2531,-2.2774,-2.3841,-2.4402,-2.4474,-2.5794,-2.6518,-2.6769,-2.7242,-2.7255,-2.6769,-2.7255,-2.819,-2.9274,-2.9274,-2.9954,-3.0986,-3.0986,-3.0986,-3.0986,-3.0986,-3.0986,-3.0986,-3.0986,-3.0986,-3.0986,-3.0986,-3.0986,-3.0986,-3.0986,-3.0986,-3.1104,-3.1679,-3.198,-3.2267,-3.2842,-3.313,-3.3365,-3.377,-3.4136,-3.4397,-3.4397,-3.4397,-3.4397,-3.4397,-3.4397,-3.4397,-3.4397,-3.4397,-3.4397,-3.4397,-3.4567,-3.4842,-3.5247,-3.5953,-3.6567,-3.6959,-3.7547,-3.79,-3.79,-3.79,-3.79,-3.79,-3.79,-3.79,-3.79,-3.79,-3.79,-3.79,-3.79,-3.79,-3.79,-3.79,-3.79,-3.7913,-3.8462,-3.9128,0.0,0.0,0.0,0.0,0.0,0.0,0.0,0.0,0.0,0.0,0.0,0.0,0.0,0.0,0.0,0.0,0.0,0.0,0.0,0.0,0.0,0.0,0.0,0.0,0.0,0.0,0.0,0.0,0.0,-2.0085,-2.0085,-2.07,-2.1376,-2.2039,-2.1439,-2.1428,-2.2039,-2.2738,-2.3269,-2.3664,-2.509,-2.5557,-2.5358,-2.6756,-2.662,-2.537,-2.6837,-2.8121,-2.9203,-2.9274,-2.9954,-3.0986,-3.0986,-3.0986,-3.0986,-3.0986,-3.0986,-3.0986,-3.0986,-3.0986,-3.0986,-3.0986,-3.0986,-3.0986,-3.0986,-3.0999,-3.113,-3.1705,-3.228,-3.2855,-3.3456,-3.4005,-3.4397,-3.4397,-3.4397,-3.4397,-3.4397,-3.4397,-3.4397,-3.4397,-3.4397,-3.4397,-3.4397,-3.4397,-3.441,-3.4424,-3.492,-3.5312,-3.5338,-3.6319,-3.7011,-3.7024,-3.7547,-3.79,-3.79,-3.79,-3.79,-3.79,-3.79,-3.79,-3.79,-3.79,-3.79,-3.79,-3.79,-3.79,-3.79,-3.79,-3.7913,-3.7939,-3.8501,-3.9364,-1.128,0.0,0.0,0.0,0.0,0.0,0.0,0.0,0.0,0.0,0.0,0.0,0.0,0.0,0.0,0.0,0.0,0.0,0.0,0.0,0.0,0.0,0.0,0.0,0.0,0.0,0.0,0.0,-2.0085,-2.0085,-2.0085,-2.027,-2.07,-2.1376,-2.1187,-2.1187,-2.1365,-2.2435,-2.2835,-2.2472,-2.4105,-2.4854,-2.4816,-2.555,-2.5721,-2.5312,-2.5721,-2.6547,-2.7631,-2.8833,-2.9954,-3.0986,-3.0986,-3.0986,-3.0986,-3.0986,-3.0986,-3.0986,-3.0986,-3.0986,-3.0986,-3.0986,-3.0986,-3.0986,-3.0986,-3.1274,-3.1718,-3.2293,-3.2881,-3.347,-3.4031,-3.428,-3.4397,-3.4397,-3.4397,-3.4397,-3.4397,-3.4397,-3.4397,-3.4397,-3.4397,-3.4397,-3.4397,-3.4397,-3.4541,-3.4986,-3.5195,-3.56,-3.6423,-3.6802,-3.7168,-3.7599,-3.7808,-3.79,-3.79,-3.79,-3.79,-3.79,-3.79,-3.79,-3.79,-3.79,-3.79,-3.79,-3.79,-3.79,-3.79,-3.79,-3.8109,-3.8514,-3.9494,-4.0344,0.0,0.0,0.0,0.0,0.0,0.0,0.0,-1.3078,0.0,0.0,0.0,0.0,0.0,0.0,0.0,0.0,0.0,0.0,0.0,0.0,0.0,0.0,0.0,0.0,0.0,0.0,0.0,-2.0085,-2.0085,-2.0085,-2.0085,-2.0085,-2.027,-2.07,-2.07,-2.07,-2.07,-2.1678,-2.1999,-2.1563,-2.3361,-2.4017,-2.3712,-2.4778,-2.4945,-2.4371,-2.5016,-2.5683,-2.6498,-2.7779,-2.9183,-3.0432,-3.0432,-3.0672,-3.0986,-3.0986,-3.0986,-3.0986,-3.0986,-3.0986,-3.0986,-3.0986,-3.0986,-3.0986,-3.0986,-3.1222,-3.1653,-3.2463,-3.3287,-3.4005,-3.4319,-3.4397,-3.4397,-3.4397,-3.4397,-3.4397,-3.4397,-3.4397,-3.4397,-3.4397,-3.4397,-3.4397,-3.4397,-3.4397,-3.4607,-3.5208,-3.5482,-3.5966,-3.6881,-3.722,-3.7521,-3.7861,-3.79,-3.79,-3.79,-3.79,-3.79,-3.79,-3.79,-3.79,-3.79,-3.79,-3.79,-3.79,-3.8122,-3.8357,-3.8619,-3.8135,-3.8305,-3.9102,-4.0004,-4.0736,0.0,0.0,0.0,0.0,0.0,0.0,-1.3445,-1.3011,0.0,0.0,0.0,0.0,0.0,0.0,0.0,0.0,0.0,0.0,0.0,0.0,0.0,0.0,0.0,0.0,0.0,-1.9877,-2.0162,-2.0162,-2.0107,-2.0085,-2.0085,-2.0085,-2.0085,-2.0085,-2.0085,-2.0085,-2.0085,-2.07,-2.0924,-2.0851,-2.2619,-2.3006,-2.2258,-2.4199,-2.4299,-2.3075,-2.4443,-2.5222,-2.5512,-2.6335,-2.7806,-2.9549,-2.9549,-3.0024,-3.0735,-3.0735,-3.0735,-3.0748,-3.0823,-3.0823,-3.0748,-3.0911,-3.0898,-3.0898,-3.0986,-3.1078,-3.1418,-3.2555,-3.3613,-3.4397,-3.4397,-3.4397,-3.4397,-3.4397,-3.4397,-3.4397,-3.4397,-3.4397,-3.4397,-3.4397,-3.4397,-3.4397,-3.4397,-3.445,-3.4698,-3.5299,-3.5848,-3.6423,-3.7024,-3.7573,-3.79,-3.79,-3.79,-3.79,-3.79,-3.79,-3.79,-3.79,-3.79,-3.79,-3.79,-3.79,-3.79,-3.79,-3.8436,-3.9011,-3.9612,-3.8645,-3.871,-3.9703,-4.0265,-4.0801,0.0,0.0,0.0,0.0,0.0,0.0,-1.1331,-1.0858,-1.0726,0.0,0.0,0.0,0.0,0.0,0.0,0.0,0.0,0.0,0.0,0.0,0.0,0.0,0.0,0.0,0.0,-2.0428,-2.0718,-2.0718,-2.0358,-2.0085,-2.0085,-2.0085,-2.0085,-2.0085,-2.0085,-2.0085,-2.0085,-2.0205,-2.0249,-2.0293,-2.1428,-2.1904,-2.1756,-2.29,-2.3287,-2.3001,-2.3287,-2.3694,-2.4128,-2.477,-2.6424,-2.8664,-2.8664,-2.8743,-2.89,-2.89,-2.89,-2.8978,-2.9704,-2.9459,-2.9147,-3.0508,-3.0508,-3.0101,-3.0823,-3.1627,-3.2594,-3.3744,-3.4228,-3.4397,-3.4397,-3.4397,-3.4397,-3.4397,-3.4397,-3.4397,-3.4397,-3.4397,-3.4397,-3.4397,-3.4397,-3.4397,-3.4397,-3.4803,-3.5312,-3.5861,-3.6449,-3.705,-3.7652,-3.7835,-3.79,-3.79,-3.79,-3.79,-3.79,-3.79,-3.79,-3.79,-3.79,-3.79,-3.79,-3.79,-3.79,-3.79,-3.8436,-3.9011,-3.9612,-3.9821,-4.0043,-4.0278,-4.0867,-4.1206,0.0,0.0,0.0,-1.225,0.0,0.0,0.0,0.0,-1.0328,-1.04,0.0,0.0,0.0,0.0,0.0,0.0,0.0,0.0,0.0,0.0,0.0,0.0,0.0,0.0,0.0,-1.9521,-2.031,-2.0839,-2.0413,-2.0183,-2.0489,-2.0282,-2.0085,-2.0085,-2.0085,-2.0085,-2.0085,-2.0085,-2.0085,-2.0085,-2.0882,-2.1352,-2.1614,-2.2335,-2.2783,-2.3001,-2.3001,-2.3274,-2.3766,-2.4279,-2.544,-2.6887,-2.7544,-2.8039,-2.8426,-2.8426,-2.8426,-2.8426,-2.89,-2.8743,-2.8585,-2.9947,-3.0024,-2.9858,-3.0748,-3.1784,-3.2868,-3.3757,-3.4188,-3.4397,-3.4397,-3.4397,-3.4397,-3.4397,-3.4397,-3.4397,-3.4397,-3.4397,-3.4397,-3.4397,-3.4397,-3.4502,-3.4789,-3.5103,-3.5587,-3.6423,-3.6815,-3.722,-3.7821,-3.79,-3.79,-3.79,-3.79,-3.79,-3.79,-3.79,-3.79,-3.79,-3.79,-3.79,-3.79,-3.79,-3.8174,-3.8749,-3.9285,-3.986,-4.0461,-4.0736,-4.071,-4.0435,-4.1036,-4.1311,0.0,0.0,0.0,0.0,0.0,-1.1406,0.0,0.0,0.0,-1.0504,0.0,0.0,0.0,0.0,0.0,0.0,0.0,0.0,0.0,0.0,0.0,0.0,0.0,0.0,0.0,-1.8287,-1.9467,-2.0485,-2.0074,-2.0118,-2.0828,-2.0336,-2.0129,-2.0282,-2.0129,-2.0085,-2.0085,-2.0085,-2.0085,-2.0085,-2.0631,-2.1123,-2.1614,-2.2095,-2.2575,-2.3001,-2.3001,-2.323,-2.3635,-2.4137,-2.4618,-2.5179,-2.6479,-2.7325,-2.7959,-2.7959,-2.7959,-2.7947,-2.8108,-2.8039,-2.8108,-2.9147,-2.9534,-2.9724,-3.056,-3.1538,-3.2465,-3.3057,-3.3534,-3.3869,-3.3869,-3.3953,-3.405,-3.3869,-3.3966,-3.4134,-3.4134,-3.4134,-3.4217,-3.4397,-3.4489,-3.4724,-3.5221,-3.5391,-3.5809,-3.6841,-3.7103,-3.7351,-3.7848,-3.79,-3.79,-3.79,-3.79,-3.79,-3.79,-3.79,-3.79,-3.79,-3.79,-3.79,-3.79,-3.79,-3.8449,-3.9586,-3.9933,-4.0507,-4.1311,-4.1211,-4.0963,-4.0605,-4.1089,-4.1311,0.0,0.0,0.0,0.0,-1.2871,0.0,0.0,0.0,-0.9676,-0.8539,0.0,0.0,0.0,0.0,0.0,0.0,0.0,0.0,0.0,0.0,0.0,0.0,0.0,0.0,0.0,0.0,-1.8519,-1.9271,-1.9049,-1.936,-2.0536,-2.027,-2.0336,-2.0762,-2.0369,-2.0085,-2.0085,-2.0085,-2.0085,-2.0085,-2.0631,-2.1123,-2.1614,-2.2095,-2.2575,-2.3001,-2.3001,-2.3034,-2.3121,-2.3613,-2.4115,-2.4661,-2.5628,-2.6135,-2.6218,-2.6218,-2.6218,-2.6302,-2.7103,-2.6857,-2.6456,-2.8028,-2.8843,-2.9325,-2.9937,-3.0482,-3.1077,-3.1697,-3.1892,-3.1928,-3.1928,-3.255,-3.298,-3.2103,-3.255,-3.3164,-3.3164,-3.3164,-3.3433,-3.4217,-3.4829,-3.5221,-3.5286,-3.5691,-3.624,-3.6907,-3.7469,-3.7821,-3.79,-3.79,-3.79,-3.79,-3.79,-3.79,-3.79,-3.79,-3.79,-3.79,-3.79,-3.79,-3.79,-3.79,-3.8449,-3.9586,-3.9459,-4.0018,-4.1311,-4.1097,-4.1058,-4.1219,-4.1285,-4.1311,0.0,0.0,0.0,0.0,0.0,0.0,-1.084,0.0,-0.9207,0.0,0.0,0.0,0.0,0.0,0.0,0.0,0.0,0.0,0.0,0.0,0.0,0.0,0.0,0.0,0.0,0.0,0.0,0.0,0.0,-1.8699,-1.9765,-1.9793,-1.9899,-2.0159,-2.0052,-1.9944,-1.9813,-2.0009,-2.0074,-2.0009,-2.0281,-2.085,-2.1592,-2.18,-2.2302,-2.3001,-2.3001,-2.3001,-2.3045,-2.3525,-2.4028,-2.4563,-2.5218,-2.5644,-2.5895,-2.5895,-2.5895,-2.5979,-2.6302,-2.6218,-2.6107,-2.76,-2.8574,-2.933,-3.0133,-3.0529,-3.0829,-3.1432,-3.1577,-3.1577,-3.1577,-3.1928,-3.2103,-3.1665,-3.1928,-3.2103,-3.2016,-3.2798,-3.3395,-3.3021,-3.3922,-3.459,-3.4545,-3.5622,-3.6444,-3.5787,-3.6476,-3.6722,-3.6143,-3.6628,-3.6909,-3.6722,-3.7413,-3.7808,-3.7703,-3.7703,-3.7703,-3.7703,-3.7505,-3.7505,-3.7703,-3.8139,-3.8613,-3.9091,-3.9651,-4.0317,-4.1097,-4.0795,-4.0795,-4.1097,-4.1211,-4.1211,-1.3576,0.0,0.0,0.0,0.0,0.0,0.0,0.0,0.0,0.0,0.0,0.0,0.0,0.0,0.0,0.0,0.0,0.0,0.0,0.0,0.0,0.0,0.0,0.0,0.0,0.0,0.0,0.0,0.0,0.0,-1.9053,-1.9235,-1.9459,-1.9796,-1.9811,-1.9736,-1.9605,-1.9813,-1.9878,-1.9813,-2.0074,-2.0714,-2.1637,-2.1718,-2.223,-2.3047,-2.2981,-2.2927,-2.2885,-2.3308,-2.383,-2.435,-2.4847,-2.5267,-2.5728,-2.5812,-2.5895,-2.5895,-2.5895,-2.5895,-2.6056,-2.7206,-2.8035,-2.8855,-2.9593,-2.9916,-3.0285,-3.0507,-3.0672,-3.0866,-3.0866,-3.0956,-3.1045,-3.0878,-3.0956,-3.0979,-3.1055,-3.2016,-3.2689,-3.2094,-3.3008,-3.3768,-3.3315,-3.4804,-3.576,-3.4788,-3.5355,-3.5547,-3.4763,-3.5343,-3.563,-3.5522,-3.632,-3.6803,-3.6508,-3.6615,-3.6615,-3.6508,-3.6307,-3.6307,-3.6508,-3.7526,-3.8206,-3.8371,-3.9548,-4.0337,-4.0795,-4.0491,-4.0491,-4.0795,-4.101,-4.101,0.0,0.0,0.0,-1.3735,0.0,0.0,0.0,0.0,-0.9586,0.0,0.0,0.0,0.0,0.0,0.0,0.0,0.0,0.0,0.0,0.0,0.0,0.0,0.0,0.0,0.0,0.0,0.0,0.0,0.0,0.0,-1.8884,-1.8682,-1.9049,-2.0207,-1.9849,-1.9615,-1.9605,-1.9605,-1.9605,-1.9615,-2.0275,-2.0984,-2.1741,-2.2136,-2.2583,-2.3062,-2.3058,-2.2777,-2.2478,-2.2863,-2.3361,-2.3908,-2.4339,-2.4822,-2.5285,-2.5728,-2.5895,-2.5895,-2.5895,-2.5895,-2.5983,-2.6474,-2.7009,-2.7382,-2.7403,-2.8072,-2.8729,-2.828,-2.8488,-2.8932,-2.8932,-2.9371,-2.9726,-2.9024,-2.9165,-2.9633,-3.0337,-3.0345,-3.0563,-3.1973,-3.2699,-3.2773,-3.1735,-3.27,-3.3743,-3.4267,-3.4666,-3.4666,-3.435,-3.435,-3.435,-3.435,-3.435,-3.4338,-3.4009,-3.4228,-3.4338,-3.4009,-3.4009,-3.4009,-3.4009,-3.5514,-3.6665,-3.722,-3.8542,-3.9651,-4.0504,-4.0287,-4.0287,-4.0504,-4.0504,-4.0504,0.0,0.0,-1.4522,-1.4053,0.0,0.0,0.0,0.0,0.0,0.0,0.0,0.0,0.0,0.0,0.0,0.0,0.0,0.0,0.0,0.0,0.0,0.0,0.0,0.0,0.0,0.0,0.0,0.0,0.0,0.0,0.0,-1.7474,-1.7967,-1.8392,-1.8874,-1.9079,-1.8883,-1.9656,-1.9857,-1.9417,-2.0094,-2.0717,-2.1264,-2.1718,-2.2199,-2.2637,-2.2617,-2.2553,-2.2402,-2.2553,-2.3043,-2.3828,-2.3988,-2.4474,-2.52,-2.5559,-2.5728,-2.5728,-2.5728,-2.5728,-2.5814,-2.6217,-2.6476,-2.6748,-2.7129,-2.7583,-2.7774,-2.7807,-2.812,-2.8477,-2.8279,-2.856,-2.8746,-2.8373,-2.8599,-2.8964,-2.9041,-3.013,-3.1005,-3.068,-3.1484,-3.2129,-3.1164,-3.1255,-3.1603,-3.188,-3.2689,-3.2878,-3.2106,-3.2577,-3.2967,-3.2789,-3.3552,-3.3923,-3.3726,-3.3737,-3.3848,-3.3737,-3.3552,-3.3603,-3.4105,-3.4832,-3.5884,-3.7073,-3.7175,-3.8165,-4.0185,-3.9117,-3.9221,-4.0185,-4.0096,-4.0096,-1.4569,-1.4569,0.0,-1.4196,-1.3621,0.0,-1.1645,0.0,0.0,0.0,0.0,0.0,0.0,0.0,0.0,0.0,0.0,0.0,0.0,0.0,0.0,0.0,0.0,0.0,0.0,0.0,-1.3243,-1.4053,0.0,0.0,0.0,0.0,-1.7324,-1.7542,-1.8184,-1.8471,-1.8266,-1.9051,-1.9424,-1.9277,-1.9947,-2.0625,-2.1313,-2.1744,-2.2136,-2.2418,-2.2401,-2.2327,-2.2176,-2.2327,-2.2889,-2.3587,-2.3748,-2.431,-2.4946,-2.5295,-2.5464,-2.5464,-2.5464,-2.5464,-2.555,-2.6034,-2.6184,-2.6238,-2.6703,-2.7054,-2.7345,-2.7286,-2.7796,-2.8196,-2.7998,-2.8102,-2.8102,-2.7998,-2.8254,-2.8463,-2.8544,-2.9749,-3.0629,-2.9908,-3.0572,-3.1084,-3.0609,-3.0401,-3.0401,-3.0609,-3.13,-3.1597,-3.0713,-3.1289,-3.1586,-3.1403,-3.2174,-3.2644,-3.2465,-3.2532,-3.2532,-3.2532,-3.2516,-3.2749,-3.3142,-3.3949,-3.4895,-3.5875,-3.6148,-3.7049,-3.8662,-3.7713,-3.782,-3.8675,-3.8582,-3.8804]}]]